[[{"header":{"parameterUnit":"m.s-1","parameterCategory":1,"la1":31.0,"la2":29.5877,"lo1":-88.7671,"lo2":-86.6584,"dy":0.0162,"dx":0.0185,"nx":115,"ny":88,"refTime":"2026-04-07T00:00:00:Z","depth":0,"parameterNumber":2,"parameterNumberName":"U-component_of_WINDS"},"data":[0.0,0.0,0.0,0.0,0.0,0.0,0.0,0.0,0.0,0.0,0.0,0.0,0.0,0.0,0.0,0.0,0.0,0.0,0.0,0.0,0.0,0.0,0.0,0.0,0.0,0.0,0.0,0.0,0.0,0.0,0.0,0.0,0.0,0.0,0.0,0.0,0.0,0.0,0.0,0.0,0.0,0.0,0.0,0.0,0.0,0.0,0.0,0.0,0.0,0.0,0.0,0.0,0.0,0.0,0.0,0.0,0.0,0.0,0.0,0.0,0.0,0.0,0.0,0.0,0.0,0.0,0.0,0.0,0.0,0.0,0.0,0.0,0.0,0.0,0.0,0.0,0.0,0.0,0.0,0.0,0.0,0.0,0.0,0.0,0.0,0.0,0.0,0.0,0.0,0.0,0.0,0.0,0.0,0.0,0.0,0.0,0.0,0.0,0.0,0.0,0.0,0.0,0.0,0.0,0.0,0.0,0.0,0.0,0.0,0.0,0.0,0.0,0.0,0.0,0.0,0.0,0.0,0.0,0.0,0.0,0.0,0.0,0.0,0.0,0.0,0.0,0.0,0.0,0.0,0.0,0.0,0.0,0.0,0.0,0.0,0.0,0.0,0.0,0.0,0.0,0.0,0.0,0.0,0.0,0.0,0.0,0.0,0.0,0.0,0.0,0.0,0.0,0.0,0.0,0.0,0.0,0.0,0.0,0.0,0.0,0.0,0.0,0.0,0.0,0.0,0.0,0.0,0.0,0.0,0.0,0.0,0.0,0.0,0.0,0.0,0.0,0.0,0.0,0.0,0.0,0.0,0.0,0.0,0.0,0.0,0.0,0.0,0.0,0.0,0.0,0.0,0.0,0.0,0.0,0.0,0.0,0.0,0.0,0.0,0.0,0.0,0.0,0.0,0.0,0.0,0.0,0.0,0.0,0.0,0.0,0.0,0.0,0.0,0.0,0.0,0.0,0.0,0.0,0.0,0.0,0.0,0.0,0.0,0.0,0.0,0.0,0.0,0.0,0.0,0.0,0.0,0.0,0.0,0.0,0.0,0.0,0.0,0.0,0.0,0.0,0.0,0.0,0.0,0.0,0.0,0.0,0.0,0.0,0.0,0.0,0.0,0.0,0.0,0.0,0.0,0.0,0.0,0.0,0.0,0.0,0.0,0.0,0.0,0.0,0.0,0.0,0.0,0.0,0.0,0.0,0.0,0.0,0.0,0.0,0.0,0.0,0.0,0.0,0.0,0.0,0.0,0.0,0.0,0.0,0.0,0.0,0.0,0.0,0.0,0.0,0.0,0.0,0.0,0.0,0.0,0.0,0.0,0.0,0.0,0.0,0.0,0.0,0.0,0.0,0.0,0.0,0.0,0.0,0.0,0.0,0.0,0.0,0.0,0.0,0.0,0.0,0.0,0.0,0.0,0.0,0.0,0.0,0.0,0.0,0.0,0.0,0.0,0.0,0.0,0.0,0.0,0.0,0.0,0.0,0.0,0.0,0.0,0.0,0.0,0.0,0.0,0.0,0.0,0.0,0.0,0.0,0.0,0.0,0.0,0.0,0.0,0.0,0.0,0.0,0.0,0.0,0.0,0.0,0.0,0.0,0.0,0.0,0.0,0.0,0.0,0.0,0.0,0.0,0.0,0.0,0.0,0.0,0.0,0.0,0.0,0.0,0.0,0.0,0.0,0.0,0.0,0.0,0.0,0.0,0.0,0.0,0.0,0.0,0.0,0.0,0.0,0.0,0.0,0.0,0.0,0.0,0.0,0.0,0.0,0.0,0.0,0.0,0.0,0.0,0.0,0.0,0.0,0.0,0.0,0.0,0.0,0.0,0.0,0.0,0.0,0.0,0.0,0.0,0.0,0.0,0.0,0.0,0.0,0.0,0.0,0.0,0.0,0.0,0.0,0.0,0.0,0.0,0.0,0.0,0.0,0.0,0.0,0.0,0.0,0.0,0.0,0.0,0.0,0.0,0.0,0.0,0.0,0.0,0.0,0.0,0.0,0.0,0.0,0.0,0.0,0.0,0.0,0.0,0.0,0.0,0.0,0.0,0.0,0.0,0.0,0.0,0.0,0.0,0.0,0.0,0.0,0.0,0.0,0.0,0.0,0.0,0.0,0.0,0.0,0.0,0.0,0.0,0.0,0.0,0.0,0.0,0.0,0.0,0.0,0.0,0.0,0.0,0.0,0.0,0.0,0.0,0.0,0.0,0.0,0.0,0.0,0.0,0.0,0.0,0.0,0.0,0.0,0.0,0.0,0.0,0.0,0.0,0.0,0.0,0.0,0.0,0.0,0.0,0.0,0.0,0.0,0.0,0.0,0.0,0.0,0.0,0.0,0.0,0.0,0.0,0.0,0.0,0.0,0.0,0.0,0.0,0.0,0.0,0.0,0.0,0.0,0.0,0.0,0.0,0.0,0.0,0.0,0.0,0.0,0.0,0.0,0.0,0.0,0.0,0.0,0.0,0.0,0.0,0.0,0.0,0.0,0.0,0.0,0.0,0.0,0.0,0.0,0.0,0.0,0.0,0.0,0.0,0.0,0.0,0.0,0.0,0.0,0.0,0.0,0.0,0.0,0.0,0.0,0.0,0.0,0.0,0.0,0.0,0.0,0.0,0.0,0.0,0.0,0.0,0.0,0.0,0.0,0.0,0.0,0.0,0.0,0.0,0.0,0.0,0.0,0.0,0.0,0.0,0.0,0.0,0.0,0.0,0.0,0.0,0.0,0.0,0.0,0.0,0.0,0.0,0.0,0.0,0.0,0.0,0.0,0.0,0.0,0.0,0.0,0.0,0.0,0.0,0.0,0.0,0.0,0.0,0.0,0.0,0.0,0.0,0.0,0.0,0.0,0.0,0.0,0.0,0.0,0.0,0.0,0.0,0.0,0.0,0.0,0.0,0.0,0.0,0.0,0.0,0.0,0.0,0.0,0.0,0.0,0.0,0.0,0.0,0.0,0.0,0.0,0.0,0.0,0.0,0.0,0.0,0.0,0.0,0.0,0.0,0.0,0.0,0.0,0.0,0.0,0.0,0.0,0.0,0.0,0.0,0.0,0.0,0.0,0.0,0.0,0.0,0.0,0.0,0.0,0.0,0.0,0.0,0.0,0.0,0.0,0.0,0.0,0.0,0.0,0.0,0.0,0.0,0.0,0.0,0.0,0.0,0.0,0.0,0.0,0.0,0.0,0.0,0.0,0.0,0.0,0.0,0.0,0.0,0.0,0.0,0.0,0.0,0.0,0.0,0.0,0.0,0.0,0.0,0.0,0.0,0.0,0.0,0.0,0.0,0.0,0.0,0.0,0.0,0.0,0.0,0.0,0.0,0.0,0.0,0.0,0.0,0.0,0.0,0.0,0.0,0.0,0.0,0.0,0.0,0.0,0.0,0.0,0.0,0.0,0.0,0.0,0.0,0.0,0.0,0.0,0.0,0.0,0.0,0.0,0.0,0.0,0.0,0.0,0.0,0.0,0.0,0.0,0.0,0.0,0.0,0.0,0.0,0.0,0.0,0.0,0.0,0.0,0.0,0.0,0.0,0.0,0.0,0.0,0.0,0.0,0.0,0.0,0.0,0.0,0.0,0.0,0.0,0.0,0.0,0.0,0.0,0.0,0.0,0.0,0.0,0.0,0.0,0.0,0.0,0.0,0.0,0.0,0.0,0.0,0.0,0.0,0.0,0.0,0.0,0.0,0.0,0.0,0.0,0.0,0.0,0.0,0.0,0.0,0.0,0.0,0.0,0.0,0.0,0.0,0.0,0.0,0.0,0.0,0.0,0.0,0.0,0.0,0.0,0.0,0.0,0.0,0.0,0.0,0.0,0.0,0.0,0.0,0.0,0.0,0.0,0.0,0.0,0.0,0.0,0.0,0.0,0.0,0.0,0.0,0.0,0.0,0.0,0.0,0.0,0.0,0.0,0.0,0.0,0.0,0.0,0.0,0.0,0.0,0.0,0.0,0.0,0.0,0.0,0.0,0.0,0.0,0.0,0.0,0.0,0.0,0.0,0.0,0.0,0.0,0.0,0.0,0.0,0.0,0.0,0.0,0.0,0.0,0.0,0.0,0.0,0.0,0.0,0.0,0.0,0.0,0.0,0.0,0.0,0.0,0.0,0.0,0.0,0.0,0.0,0.0,0.0,0.0,0.0,0.0,0.0,0.0,0.0,0.0,0.0,0.0,0.0,0.0,0.0,0.0,0.0,0.0,0.0,0.0,0.0,0.0,0.0,0.0,0.0,0.0,0.0,0.0,0.0,0.0,0.0,0.0,0.0,0.0,0.0,-1.3393,0.0,0.0,0.0,0.0,0.0,0.0,0.0,0.0,0.0,0.0,0.0,0.0,0.0,0.0,0.0,0.0,0.0,0.0,0.0,0.0,0.0,0.0,0.0,0.0,0.0,0.0,0.0,0.0,0.0,0.0,0.0,0.0,0.0,0.0,0.0,0.0,0.0,0.0,0.0,0.0,0.0,0.0,0.0,0.0,0.0,0.0,0.0,0.0,0.0,0.0,0.0,0.0,0.0,0.0,0.0,0.0,0.0,0.0,0.0,0.0,0.0,0.0,0.0,0.0,0.0,0.0,0.0,0.0,0.0,0.0,0.0,0.0,0.0,0.0,0.0,0.0,0.0,0.0,0.0,0.0,0.0,0.0,0.0,0.0,0.0,0.0,0.0,0.0,0.0,0.0,0.0,0.0,0.0,0.0,0.0,0.0,0.0,0.0,0.0,0.0,0.0,0.0,0.0,0.0,0.0,0.0,0.0,0.0,0.0,0.0,-1.3963,-1.3949,-1.392,-1.3891,-1.3833,0.0,0.0,0.0,0.0,0.0,0.0,0.0,0.0,0.0,0.0,0.0,0.0,0.0,0.0,0.0,0.0,0.0,0.0,0.0,0.0,0.0,0.0,0.0,0.0,0.0,0.0,0.0,0.0,0.0,0.0,0.0,0.0,0.0,0.0,0.0,0.0,0.0,0.0,0.0,0.0,0.0,0.0,0.0,0.0,0.0,0.0,0.0,0.0,0.0,0.0,0.0,0.0,0.0,0.0,0.0,0.0,0.0,0.0,0.0,0.0,0.0,0.0,0.0,0.0,0.0,0.0,0.0,0.0,0.0,0.0,0.0,0.0,0.0,0.0,0.0,0.0,0.0,0.0,0.0,0.0,0.0,0.0,0.0,0.0,0.0,0.0,0.0,0.0,0.0,0.0,0.0,0.0,0.0,0.0,0.0,0.0,0.0,0.0,0.0,0.0,0.0,0.0,0.0,0.0,0.0,0.0,0.0,0.0,0.0,0.0,0.0,0.0,-1.4239,-1.4141,-1.4109,0.0,0.0,0.0,0.0,0.0,0.0,0.0,0.0,0.0,0.0,0.0,0.0,0.0,0.0,0.0,0.0,0.0,0.0,0.0,0.0,0.0,0.0,0.0,0.0,0.0,0.0,0.0,0.0,0.0,0.0,0.0,0.0,0.0,0.0,0.0,0.0,0.0,0.0,0.0,0.0,0.0,0.0,0.0,0.0,0.0,0.0,0.0,0.0,0.0,0.0,0.0,0.0,0.0,0.0,0.0,0.0,0.0,0.0,0.0,0.0,0.0,0.0,0.0,0.0,0.0,0.0,0.0,0.0,0.0,0.0,0.0,0.0,0.0,0.0,0.0,0.0,0.0,0.0,0.0,0.0,0.0,0.0,0.0,0.0,0.0,0.0,0.0,0.0,0.0,0.0,0.0,0.0,0.0,0.0,0.0,0.0,0.0,0.0,0.0,0.0,0.0,0.0,0.0,0.0,0.0,0.0,0.0,0.0,0.0,0.0,-1.4708,-1.536,-1.4658,0.0,-1.4167,0.0,0.0,0.0,0.0,0.0,0.0,0.0,0.0,0.0,0.0,0.0,0.0,0.0,0.0,0.0,0.0,0.0,0.0,0.0,0.0,0.0,0.0,0.0,0.0,0.0,0.0,0.0,0.0,0.0,0.0,0.0,0.0,0.0,0.0,0.0,0.0,0.0,0.0,0.0,0.0,0.0,0.0,0.0,0.0,0.0,0.0,0.0,0.0,0.0,0.0,0.0,0.0,0.0,0.0,0.0,0.0,0.0,0.0,0.0,0.0,0.0,0.0,0.0,0.0,0.0,0.0,0.0,0.0,0.0,0.0,0.0,0.0,0.0,0.0,0.0,0.0,0.0,0.0,0.0,0.0,0.0,0.0,0.0,0.0,0.0,0.0,0.0,0.0,0.0,0.0,0.0,0.0,0.0,0.0,0.0,0.0,0.0,0.0,0.0,0.0,0.0,0.0,0.0,0.0,0.0,0.0,0.0,0.0,0.0,0.0,-1.4722,-1.5021,-1.5157,-1.4986,0.0,0.0,0.0,0.0,0.0,0.0,0.0,0.0,0.0,0.0,0.0,0.0,0.0,0.0,0.0,0.0,0.0,0.0,0.0,0.0,0.0,0.0,0.0,0.0,0.0,0.0,0.0,0.0,0.0,0.0,0.0,0.0,0.0,0.0,0.0,0.0,0.0,0.0,0.0,0.0,0.0,0.0,0.0,0.0,0.0,0.0,0.0,0.0,0.0,0.0,0.0,0.0,0.0,0.0,0.0,0.0,0.0,0.0,0.0,0.0,0.0,0.0,0.0,0.0,0.0,0.0,0.0,0.0,0.0,0.0,0.0,0.0,0.0,0.0,0.0,0.0,0.0,0.0,0.0,0.0,0.0,0.0,0.0,0.0,0.0,0.0,0.0,0.0,0.0,0.0,0.0,0.0,0.0,0.0,0.0,0.0,0.0,0.0,0.0,0.0,0.0,0.0,0.0,0.0,0.0,0.0,0.0,0.0,0.0,0.0,-1.4457,-1.4738,-1.4783,-1.5721,-1.5737,-1.4674,0.0,0.0,0.0,0.0,0.0,0.0,0.0,0.0,0.0,0.0,0.0,0.0,0.0,0.0,0.0,0.0,0.0,0.0,0.0,0.0,0.0,0.0,0.0,0.0,0.0,0.0,0.0,0.0,0.0,0.0,0.0,0.0,0.0,0.0,0.0,0.0,0.0,0.0,0.0,0.0,0.0,0.0,0.0,0.0,0.0,0.0,0.0,0.0,0.0,0.0,0.0,0.0,0.0,0.0,0.0,0.0,0.0,0.0,0.0,0.0,0.0,0.0,0.0,0.0,0.0,0.0,0.0,0.0,0.0,0.0,0.0,0.0,0.0,0.0,0.0,0.0,0.0,0.0,0.0,0.0,0.0,0.0,0.0,0.0,0.0,0.0,0.0,0.0,0.0,0.0,0.0,0.0,0.0,0.0,0.0,0.0,0.0,0.0,0.0,0.0,0.0,0.0,0.0,0.0,0.0,0.0,0.0,0.0,-1.482,-1.4849,-1.485,-1.4832,-1.6324,-1.6377,0.0,0.0,0.0,0.0,0.0,0.0,0.0,0.0,0.0,0.0,0.0,0.0,0.0,0.0,0.0,0.0,0.0,0.0,0.0,0.0,0.0,0.0,0.0,0.0,0.0,0.0,0.0,0.0,0.0,0.0,0.0,0.0,0.0,0.0,0.0,0.0,0.0,0.0,0.0,0.0,0.0,0.0,0.0,0.0,0.0,0.0,0.0,0.0,0.0,0.0,0.0,0.0,0.0,0.0,0.0,0.0,0.0,0.0,0.0,0.0,0.0,0.0,0.0,0.0,0.0,0.0,0.0,0.0,0.0,0.0,0.0,0.0,0.0,0.0,0.0,0.0,0.0,0.0,0.0,0.0,0.0,0.0,0.0,0.0,0.0,0.0,0.0,0.0,0.0,0.0,0.0,0.0,0.0,0.0,0.0,0.0,0.0,0.0,0.0,0.0,0.0,0.0,0.0,0.0,0.0,0.0,0.0,0.0,0.0,-1.4251,-1.4722,-1.4963,-1.4968,-1.6017,-1.6064,0.0,0.0,0.0,0.0,0.0,0.0,0.0,0.0,0.0,0.0,0.0,0.0,0.0,0.0,0.0,0.0,0.0,0.0,0.0,0.0,0.0,0.0,0.0,0.0,0.0,0.0,0.0,0.0,0.0,0.0,0.0,0.0,0.0,0.0,0.0,0.0,0.0,0.0,0.0,0.0,0.0,0.0,0.0,0.0,0.0,0.0,0.0,0.0,0.0,0.0,0.0,0.0,0.0,0.0,0.0,0.0,0.0,0.0,0.0,0.0,0.0,0.0,0.0,0.0,0.0,0.0,0.0,0.0,0.0,0.0,0.0,0.0,0.0,0.0,0.0,0.0,0.0,0.0,0.0,0.0,0.0,0.0,0.0,0.0,0.0,0.0,0.0,0.0,0.0,0.0,0.0,0.0,0.0,0.0,0.0,0.0,0.0,0.0,0.0,0.0,0.0,0.0,0.0,0.0,0.0,0.0,0.0,0.0,0.0,-1.4651,0.0,-1.5665,-1.5437,-1.5999,-1.5869,0.0,0.0,0.0,0.0,0.0,0.0,0.0,0.0,0.0,0.0,0.0,0.0,0.0,0.0,0.0,0.0,0.0,0.0,0.0,0.0,0.0,0.0,0.0,0.0,0.0,0.0,0.0,0.0,0.0,0.0,0.0,0.0,0.0,0.0,0.0,0.0,0.0,0.0,0.0,0.0,0.0,0.0,0.0,0.0,0.0,0.0,0.0,0.0,0.0,0.0,0.0,0.0,0.0,0.0,0.0,0.0,0.0,0.0,0.0,0.0,0.0,0.0,0.0,0.0,0.0,0.0,0.0,0.0,0.0,0.0,0.0,0.0,0.0,0.0,0.0,0.0,0.0,0.0,0.0,0.0,0.0,0.0,0.0,0.0,0.0,0.0,0.0,0.0,0.0,0.0,0.0,0.0,0.0,0.0,0.0,0.0,0.0,0.0,0.0,0.0,0.0,0.0,0.0,0.0,0.0,0.0,0.0,0.0,-1.5544,-1.6284,-1.706,-1.7089,-1.6345,-1.629,-1.5893,0.0,0.0,0.0,0.0,0.0,0.0,0.0,0.0,0.0,0.0,0.0,0.0,0.0,0.0,0.0,0.0,0.0,0.0,0.0,0.0,0.0,0.0,0.0,0.0,0.0,0.0,0.0,0.0,0.0,0.0,0.0,0.0,0.0,0.0,0.0,0.0,0.0,0.0,0.0,0.0,0.0,0.0,0.0,0.0,0.0,0.0,0.0,0.0,0.0,0.0,0.0,0.0,0.0,0.0,0.0,0.0,0.0,0.0,0.0,0.0,0.0,0.0,0.0,0.0,0.0,0.0,0.0,0.0,0.0,0.0,0.0,0.0,0.0,0.0,0.0,0.0,0.0,0.0,0.0,0.0,0.0,0.0,0.0,0.0,0.0,0.0,0.0,0.0,0.0,0.0,0.0,0.0,0.0,0.0,0.0,0.0,0.0,0.0,0.0,0.0,0.0,0.0,0.0,0.0,0.0,0.0,0.0,0.0,0.0,-1.7238,-1.8018,-1.7789,-1.6368,-1.6346,-1.5949,0.0,0.0,0.0,0.0,0.0,0.0,0.0,0.0,0.0,0.0,0.0,0.0,0.0,0.0,0.0,0.0,0.0,0.0,0.0,0.0,0.0,0.0,0.0,0.0,0.0,0.0,0.0,0.0,0.0,0.0,0.0,0.0,0.0,0.0,0.0,0.0,0.0,0.0,0.0,0.0,0.0,0.0,0.0,0.0,0.0,0.0,0.0,0.0,0.0,0.0,0.0,0.0,0.0,0.0,0.0,0.0,0.0,0.0,0.0,0.0,0.0,0.0,0.0,0.0,0.0,0.0,0.0,0.0,0.0,0.0,0.0,0.0,0.0,0.0,0.0,0.0,0.0,0.0,0.0,0.0,0.0,0.0,0.0,0.0,0.0,0.0,0.0,0.0,0.0,0.0,0.0,0.0,0.0,0.0,0.0,0.0,0.0,0.0,0.0,0.0,0.0,0.0,0.0,0.0,0.0,0.0,0.0,0.0,0.0,-1.9002,-1.9239,-1.8837,-1.7759,-1.6873,-1.6101,-1.5544,0.0,0.0,0.0,0.0,0.0,0.0,0.0,0.0,0.0,0.0,0.0,0.0,0.0,0.0,0.0,0.0,0.0,0.0,0.0,0.0,0.0,0.0,0.0,0.0,0.0,0.0,0.0,0.0,0.0,0.0,0.0,0.0,0.0,0.0,0.0,0.0,0.0,0.0,0.0,0.0,0.0,0.0,0.0,0.0,0.0,0.0,0.0,0.0,0.0,0.0,0.0,0.0,0.0,0.0,0.0,0.0,0.0,0.0,0.0,0.0,0.0,0.0,0.0,0.0,0.0,0.0,0.0,0.0,0.0,0.0,0.0,0.0,0.0,0.0,0.0,0.0,0.0,0.0,0.0,0.0,0.0,0.0,0.0,0.0,0.0,0.0,0.0,0.0,0.0,0.0,0.0,0.0,0.0,0.0,0.0,0.0,0.0,0.0,0.0,0.0,0.0,0.0,0.0,0.0,0.0,0.0,0.0,0.0,-2.1422,-2.0688,-2.027,-2.005,-1.7799,-1.6512,0.0,0.0,0.0,0.0,0.0,0.0,0.0,0.0,0.0,0.0,0.0,0.0,0.0,0.0,0.0,0.0,0.0,0.0,0.0,0.0,0.0,0.0,0.0,0.0,0.0,0.0,0.0,0.0,0.0,0.0,0.0,0.0,0.0,0.0,0.0,0.0,0.0,0.0,0.0,0.0,0.0,0.0,0.0,0.0,0.0,0.0,0.0,0.0,0.0,0.0,0.0,0.0,0.0,0.0,0.0,0.0,0.0,0.0,0.0,0.0,0.0,0.0,0.0,0.0,0.0,0.0,0.0,0.0,0.0,0.0,0.0,0.0,0.0,0.0,0.0,0.0,0.0,0.0,0.0,0.0,0.0,0.0,0.0,0.0,0.0,0.0,0.0,0.0,0.0,0.0,0.0,0.0,0.0,0.0,0.0,0.0,0.0,0.0,0.0,0.0,0.0,0.0,0.0,0.0,0.0,0.0,0.0,0.0,0.0,-2.2943,-2.2916,-2.1972,-2.0155,-1.8918,-1.7677,0.0,0.0,0.0,0.0,0.0,0.0,0.0,0.0,0.0,0.0,0.0,0.0,0.0,0.0,0.0,0.0,0.0,0.0,0.0,0.0,0.0,0.0,0.0,0.0,0.0,0.0,0.0,0.0,0.0,0.0,0.0,0.0,0.0,0.0,0.0,0.0,0.0,0.0,0.0,0.0,0.0,0.0,0.0,0.0,0.0,0.0,0.0,0.0,0.0,0.0,0.0,0.0,0.0,0.0,0.0,0.0,0.0,0.0,0.0,0.0,0.0,0.0,0.0,0.0,0.0,0.0,0.0,0.0,0.0,0.0,0.0,0.0,0.0,0.0,0.0,0.0,0.0,0.0,0.0,0.0,0.0,0.0,0.0,0.0,0.0,0.0,0.0,0.0,0.0,0.0,0.0,0.0,0.0,0.0,0.0,0.0,0.0,0.0,0.0,0.0,0.0,0.0,0.0,0.0,0.0,0.0,0.0,0.0,-2.2097,-2.4182,-2.4966,-2.4322,-2.2239,-2.0384,-1.8811,0.0,0.0,0.0,0.0,0.0,0.0,0.0,0.0,0.0,0.0,0.0,0.0,0.0,0.0,0.0,0.0,0.0,0.0,0.0,0.0,0.0,0.0,0.0,0.0,0.0,0.0,0.0,0.0,0.0,0.0,0.0,0.0,0.0,0.0,0.0,0.0,0.0,0.0,0.0,0.0,0.0,0.0,0.0,0.0,0.0,0.0,0.0,0.0,0.0,0.0,0.0,0.0,0.0,0.0,0.0,0.0,0.0,0.0,0.0,0.0,0.0,0.0,0.0,0.0,0.0,0.0,0.0,0.0,0.0,0.0,0.0,0.0,0.0,0.0,0.0,0.0,0.0,0.0,0.0,0.0,0.0,0.0,0.0,0.0,0.0,0.0,0.0,0.0,0.0,0.0,0.0,0.0,0.0,0.0,0.0,0.0,0.0,0.0,0.0,0.0,0.0,0.0,0.0,0.0,0.0,0.0,0.0,0.0,-2.336,-2.5105,-2.6698,-2.675,-2.5094,-2.2064,-1.9925,0.0,0.0,0.0,0.0,0.0,0.0,0.0,0.0,0.0,0.0,0.0,0.0,0.0,0.0,0.0,0.0,0.0,0.0,0.0,0.0,0.0,0.0,0.0,0.0,0.0,0.0,0.0,0.0,0.0,0.0,0.0,0.0,0.0,0.0,0.0,0.0,0.0,0.0,0.0,0.0,0.0,0.0,0.0,0.0,0.0,0.0,0.0,0.0,0.0,0.0,0.0,0.0,0.0,0.0,0.0,0.0,0.0,0.0,0.0,0.0,0.0,0.0,0.0,0.0,0.0,0.0,0.0,0.0,0.0,0.0,0.0,0.0,0.0,0.0,0.0,0.0,0.0,0.0,0.0,0.0,0.0,0.0,0.0,0.0,0.0,0.0,0.0,0.0,0.0,0.0,0.0,0.0,0.0,0.0,0.0,0.0,0.0,0.0,0.0,0.0,0.0,0.0,0.0,0.0,0.0,0.0,0.0,0.0,-2.3613,-2.5863,-2.6963,-2.6986,-2.5882,-2.3372,-2.0993,0.0,0.0,0.0,0.0,0.0,0.0,0.0,0.0,0.0,0.0,0.0,0.0,0.0,0.0,0.0,0.0,0.0,0.0,0.0,0.0,0.0,0.0,0.0,0.0,0.0,0.0,0.0,0.0,0.0,0.0,0.0,0.0,0.0,0.0,0.0,0.0,0.0,0.0,0.0,0.0,0.0,0.0,0.0,0.0,0.0,0.0,0.0,0.0,-1.3208,0.0,0.0,0.0,0.0,0.0,0.0,0.0,0.0,0.0,0.0,0.0,0.0,0.0,0.0,0.0,0.0,0.0,0.0,0.0,0.0,0.0,0.0,0.0,0.0,0.0,0.0,0.0,0.0,0.0,0.0,0.0,0.0,0.0,0.0,0.0,0.0,0.0,0.0,0.0,0.0,0.0,0.0,0.0,0.0,0.0,0.0,0.0,0.0,0.0,0.0,0.0,0.0,0.0,0.0,0.0,0.0,0.0,0.0,0.0,-2.5243,-2.7327,-2.8199,-2.8222,-2.7267,-2.5253,-2.2842,0.0,0.0,0.0,0.0,0.0,0.0,0.0,0.0,0.0,0.0,0.0,0.0,0.0,0.0,0.0,0.0,0.0,0.0,0.0,0.0,0.0,0.0,0.0,0.0,0.0,0.0,0.0,0.0,0.0,0.0,0.0,0.0,0.0,0.0,0.0,0.0,0.0,0.0,0.0,0.0,0.0,0.0,0.0,0.0,0.0,0.0,0.0,0.0,0.0,0.0,0.0,0.0,0.0,0.0,0.0,0.0,0.0,0.0,0.0,0.0,0.0,0.0,0.0,0.0,0.0,0.0,0.0,0.0,0.0,0.0,0.0,0.0,0.0,0.0,0.0,0.0,0.0,0.0,0.0,0.0,0.0,0.0,0.0,0.0,0.0,0.0,0.0,0.0,0.0,0.0,0.0,0.0,0.0,0.0,0.0,0.0,0.0,0.0,0.0,0.0,0.0,0.0,0.0,0.0,0.0,0.0,0.0,-2.5002,-2.7009,-2.8623,-2.9455,-2.9401,-2.8423,-2.6902,-2.4572,-2.1393,0.0,0.0,0.0,0.0,0.0,0.0,0.0,0.0,0.0,0.0,0.0,0.0,0.0,0.0,0.0,0.0,0.0,0.0,0.0,0.0,0.0,0.0,0.0,0.0,0.0,0.0,0.0,0.0,0.0,0.0,0.0,0.0,0.0,0.0,0.0,0.0,0.0,0.0,-1.186,-1.2741,0.0,0.0,0.0,0.0,0.0,0.0,0.0,0.0,-1.441,0.0,0.0,0.0,0.0,0.0,0.0,0.0,0.0,0.0,0.0,0.0,0.0,0.0,0.0,0.0,0.0,0.0,0.0,0.0,0.0,0.0,0.0,0.0,0.0,0.0,0.0,0.0,0.0,0.0,0.0,0.0,0.0,0.0,0.0,0.0,0.0,0.0,0.0,0.0,0.0,0.0,0.0,0.0,0.0,0.0,0.0,0.0,0.0,0.0,0.0,0.0,0.0,0.0,0.0,0.0,0.0,-2.3383,-2.5181,-2.6918,-2.8579,-2.941,-2.9091,-2.7549,-2.6537,-2.476,-2.2112,0.0,0.0,0.0,0.0,0.0,0.0,0.0,0.0,0.0,0.0,0.0,0.0,0.0,0.0,0.0,0.0,0.0,0.0,0.0,0.0,0.0,0.0,0.0,0.0,0.0,0.0,0.0,0.0,0.0,0.0,0.0,0.0,0.0,0.0,0.0,0.0,0.0,0.0,0.0,-1.4111,-1.4819,0.0,0.0,0.0,0.0,0.0,0.0,0.0,0.0,-1.4009,0.0,0.0,0.0,0.0,0.0,0.0,0.0,0.0,0.0,0.0,0.0,0.0,0.0,0.0,0.0,0.0,0.0,0.0,0.0,0.0,0.0,0.0,0.0,0.0,0.0,0.0,0.0,0.0,0.0,0.0,0.0,0.0,0.0,0.0,0.0,0.0,0.0,0.0,0.0,0.0,0.0,0.0,0.0,0.0,0.0,0.0,0.0,0.0,0.0,0.0,0.0,0.0,0.0,0.0,0.0,-2.4053,-2.5822,-2.7478,-2.9079,-2.9549,-2.9155,-2.7879,-2.6193,-2.4308,0.0,0.0,0.0,0.0,0.0,0.0,0.0,0.0,0.0,0.0,0.0,0.0,0.0,0.0,0.0,0.0,0.0,0.0,0.0,0.0,0.0,0.0,0.0,0.0,0.0,0.0,0.0,0.0,0.0,0.0,0.0,0.0,0.0,0.0,0.0,0.0,0.0,0.0,0.0,0.0,-1.4719,-1.5057,-1.5528,0.0,0.0,0.0,0.0,0.0,0.0,-1.501,-1.4674,0.0,0.0,0.0,0.0,0.0,0.0,0.0,0.0,0.0,0.0,0.0,0.0,0.0,0.0,0.0,0.0,0.0,0.0,0.0,0.0,0.0,0.0,0.0,0.0,0.0,0.0,0.0,0.0,0.0,0.0,0.0,0.0,0.0,0.0,0.0,0.0,0.0,0.0,0.0,0.0,0.0,0.0,0.0,0.0,0.0,0.0,0.0,0.0,0.0,0.0,0.0,0.0,0.0,0.0,0.0,-2.457,-2.631,-2.7959,-2.9533,-2.9608,-2.9139,-2.8147,-2.583,-2.3705,0.0,0.0,0.0,0.0,0.0,0.0,0.0,0.0,0.0,0.0,0.0,0.0,0.0,0.0,0.0,0.0,0.0,0.0,0.0,0.0,0.0,0.0,0.0,0.0,0.0,0.0,0.0,0.0,0.0,0.0,0.0,0.0,0.0,0.0,0.0,0.0,0.0,0.0,0.0,0.0,0.0,-1.5366,-1.6615,-1.6333,0.0,0.0,0.0,0.0,-1.6508,-1.5951,0.0,0.0,0.0,0.0,0.0,0.0,0.0,0.0,0.0,0.0,0.0,0.0,0.0,0.0,0.0,0.0,0.0,0.0,0.0,0.0,0.0,0.0,0.0,0.0,0.0,0.0,0.0,0.0,0.0,0.0,0.0,0.0,0.0,0.0,0.0,0.0,0.0,0.0,0.0,0.0,0.0,0.0,0.0,0.0,0.0,0.0,0.0,0.0,0.0,0.0,0.0,0.0,0.0,0.0,0.0,0.0,-2.4353,-2.6061,-2.7716,-2.9241,-2.9353,-2.8666,-2.7177,-2.5427,-2.3417,0.0,0.0,0.0,0.0,0.0,0.0,0.0,0.0,0.0,0.0,0.0,0.0,0.0,0.0,0.0,0.0,0.0,0.0,0.0,0.0,0.0,0.0,0.0,0.0,0.0,0.0,0.0,0.0,0.0,0.0,0.0,0.0,0.0,0.0,0.0,0.0,0.0,0.0,0.0,0.0,0.0,-1.6593,-1.6761,-1.7264,-1.743,0.0,0.0,-1.6631,-1.6675,-1.5994,0.0,0.0,0.0,0.0,0.0,0.0,0.0,0.0,0.0,0.0,0.0,0.0,0.0,0.0,0.0,0.0,0.0,0.0,0.0,0.0,0.0,0.0,0.0,0.0,0.0,0.0,0.0,0.0,0.0,0.0,0.0,0.0,0.0,0.0,0.0,0.0,0.0,0.0,0.0,0.0,0.0,0.0,0.0,0.0,0.0,0.0,0.0,0.0,0.0,0.0,0.0,0.0,0.0,0.0,0.0,-2.0906,-2.4099,-2.5772,-2.7411,-2.892,-2.8552,-2.7822,-2.6737,-2.4266,-2.2046,0.0,0.0,0.0,0.0,0.0,0.0,0.0,0.0,0.0,0.0,0.0,0.0,0.0,0.0,0.0,0.0,0.0,0.0,0.0,0.0,0.0,0.0,0.0,0.0,0.0,0.0,0.0,0.0,0.0,0.0,0.0,0.0,0.0,0.0,0.0,0.0,0.0,0.0,0.0,0.0,0.0,0.0,-1.8082,-1.8088,0.0,0.0,0.0,-1.8176,-1.813,0.0,0.0,0.0,0.0,0.0,0.0,0.0,0.0,0.0,0.0,0.0,0.0,0.0,0.0,0.0,0.0,0.0,0.0,0.0,0.0,0.0,0.0,0.0,0.0,0.0,0.0,0.0,0.0,0.0,0.0,0.0,0.0,0.0,0.0,0.0,0.0,0.0,0.0,0.0,0.0,0.0,0.0,0.0,0.0,0.0,0.0,0.0,0.0,0.0,0.0,0.0,0.0,0.0,0.0,0.0,0.0,0.0,-2.328,-2.5339,-2.6964,-2.8093,-2.7765,-2.7096,-2.6155,-2.3491,0.0,0.0,0.0,0.0,0.0,0.0,0.0,0.0,0.0,0.0,0.0,0.0,0.0,0.0,0.0,0.0,0.0,0.0,0.0,0.0,0.0,0.0,0.0,0.0,0.0,0.0,0.0,-0.9199,0.0,0.0,0.0,0.0,0.0,0.0,0.0,0.0,0.0,0.0,0.0,0.0,0.0,0.0,-1.7731,-1.9324,-1.9182,-1.9312,0.0,0.0,-1.9518,-1.9235,-1.8608,-1.7292,0.0,0.0,0.0,0.0,0.0,0.0,0.0,0.0,0.0,0.0,0.0,0.0,0.0,0.0,0.0,0.0,0.0,0.0,0.0,0.0,0.0,0.0,0.0,0.0,0.0,0.0,0.0,0.0,0.0,0.0,0.0,0.0,0.0,0.0,0.0,0.0,0.0,0.0,0.0,0.0,0.0,0.0,0.0,0.0,0.0,0.0,0.0,0.0,0.0,0.0,0.0,0.0,0.0,0.0,0.0,-2.162,-2.4664,-2.6281,-2.6486,-2.7102,-2.6703,-2.5223,-2.3651,-2.1697,0.0,0.0,0.0,0.0,0.0,0.0,0.0,0.0,0.0,0.0,0.0,0.0,0.0,0.0,0.0,0.0,0.0,0.0,0.0,0.0,0.0,0.0,0.0,0.0,0.0,0.0,0.0,0.0,0.0,0.0,0.0,0.0,0.0,0.0,0.0,0.0,0.0,0.0,0.0,0.0,0.0,-1.8427,-1.9989,-2.0825,-2.1316,0.0,0.0,-2.0156,-1.9392,-1.8617,-1.7475,-1.5618,0.0,0.0,0.0,0.0,0.0,0.0,0.0,0.0,0.0,0.0,0.0,0.0,0.0,0.0,0.0,0.0,0.0,0.0,0.0,0.0,0.0,0.0,0.0,0.0,0.0,0.0,0.0,0.0,0.0,0.0,0.0,0.0,0.0,0.0,0.0,0.0,0.0,0.0,0.0,0.0,0.0,0.0,0.0,0.0,0.0,0.0,0.0,0.0,0.0,0.0,0.0,0.0,0.0,-1.9201,-2.1191,-2.34,-2.498,-2.5937,-2.5829,-2.5494,-2.4928,-2.2958,-2.1043,0.0,0.0,0.0,0.0,0.0,0.0,0.0,0.0,0.0,0.0,0.0,0.0,0.0,0.0,0.0,0.0,0.0,0.0,0.0,0.0,0.0,0.0,0.0,0.0,0.0,0.0,0.0,0.0,-0.933,-0.9706,-1.0571,0.0,0.0,0.0,0.0,0.0,0.0,0.0,0.0,0.0,0.0,-1.8435,-2.001,-2.0934,0.0,0.0,-2.1751,-2.1029,-2.0205,-1.9412,-1.817,-1.5936,-1.5451,0.0,0.0,0.0,0.0,0.0,0.0,0.0,0.0,0.0,0.0,0.0,0.0,0.0,0.0,0.0,0.0,0.0,0.0,0.0,0.0,0.0,0.0,0.0,0.0,0.0,0.0,0.0,0.0,0.0,0.0,0.0,0.0,0.0,0.0,0.0,0.0,0.0,0.0,0.0,0.0,0.0,0.0,0.0,0.0,0.0,0.0,0.0,0.0,0.0,0.0,0.0,0.0,-1.8682,-2.0769,-2.2589,-2.4016,-2.5087,-2.4837,-2.4611,-2.4372,-2.238,-2.0677,0.0,0.0,0.0,0.0,0.0,0.0,0.0,0.0,0.0,0.0,0.0,0.0,0.0,0.0,0.0,0.0,0.0,0.0,0.0,0.0,0.0,0.0,0.0,0.0,0.0,0.0,0.0,0.0,-1.0109,-1.0392,-1.0981,0.0,0.0,0.0,0.0,0.0,0.0,0.0,0.0,0.0,0.0,-1.8983,-2.0336,-2.1241,-2.2004,-2.2662,-2.199,-2.1013,-1.9984,-1.9543,-1.8427,-1.5733,0.0,0.0,0.0,0.0,0.0,0.0,0.0,0.0,0.0,0.0,0.0,0.0,0.0,0.0,0.0,0.0,0.0,0.0,0.0,0.0,0.0,0.0,0.0,0.0,0.0,0.0,0.0,0.0,0.0,0.0,-1.2554,0.0,0.0,0.0,0.0,0.0,0.0,0.0,0.0,0.0,0.0,0.0,0.0,0.0,0.0,0.0,0.0,0.0,0.0,0.0,0.0,0.0,0.0,-1.8396,-2.0019,-2.2303,-2.3494,-2.3601,-2.4302,-2.4337,-2.3552,-2.2067,-2.0888,-1.9915,0.0,0.0,0.0,0.0,0.0,0.0,0.0,0.0,0.0,0.0,0.0,0.0,0.0,0.0,0.0,0.0,0.0,0.0,0.0,0.0,0.0,0.0,0.0,0.0,0.0,0.0,-1.1588,-1.1769,-1.1797,0.0,0.0,0.0,0.0,0.0,0.0,0.0,0.0,0.0,0.0,-1.859,-2.0333,-2.1162,-2.1954,-2.2499,-2.2636,-2.1389,-1.9892,-1.8374,-1.8791,-1.8206,0.0,0.0,0.0,0.0,0.0,0.0,0.0,0.0,0.0,0.0,0.0,0.0,0.0,0.0,0.0,0.0,0.0,0.0,0.0,0.0,0.0,0.0,0.0,0.0,0.0,0.0,0.0,-1.5019,-1.498,0.0,0.0,0.0,0.0,0.0,0.0,0.0,0.0,0.0,0.0,0.0,-1.7267,-1.7182,0.0,0.0,0.0,0.0,0.0,0.0,0.0,0.0,0.0,0.0,0.0,0.0,-1.779,-1.9814,-2.1191,-2.241,-2.3458,-2.3766,-2.3779,-2.3494,-2.2003,-2.0269,-1.8394,0.0,0.0,0.0,0.0,0.0,0.0,0.0,0.0,0.0,0.0,0.0,0.0,0.0,0.0,0.0,0.0,0.0,0.0,0.0,0.0,0.0,0.0,0.0,0.0,0.0,-1.0977,0.0,0.0,0.0,0.0,0.0,0.0,0.0,0.0,0.0,0.0,0.0,-1.4472,-1.6992,-1.8914,-2.0311,-2.1075,-2.1861,-2.2182,0.0,0.0,0.0,0.0,0.0,0.0,0.0,0.0,0.0,0.0,0.0,0.0,0.0,0.0,-1.6135,-1.5624,-1.456,-1.3291,-1.1843,0.0,0.0,0.0,0.0,0.0,0.0,0.0,0.0,0.0,0.0,0.0,0.0,0.0,0.0,-1.6814,0.0,-1.5919,0.0,0.0,0.0,0.0,0.0,0.0,0.0,0.0,-1.9745,-1.9749,-1.9059,-1.8954,-1.9161,0.0,-1.9507,-1.9049,0.0,0.0,0.0,0.0,0.0,0.0,0.0,0.0,-1.8033,-2.0026,-2.0923,-2.203,-2.3271,-2.3342,-2.3342,-2.3342,-2.1795,-1.9841,-1.7451,-1.6851,-1.5993,0.0,0.0,0.0,0.0,0.0,0.0,0.0,0.0,0.0,0.0,0.0,0.0,0.0,0.0,0.0,0.0,0.0,0.0,0.0,0.0,0.0,0.0,0.0,-1.1729,0.0,0.0,0.0,0.0,0.0,0.0,0.0,0.0,0.0,-1.3955,-1.4399,-1.5426,-1.7426,-1.9039,-2.0182,-2.0637,0.0,0.0,0.0,0.0,0.0,0.0,0.0,-1.8789,-1.7511,-1.7832,-1.8249,-1.827,-1.8043,-1.7809,-1.7789,0.0,0.0,-1.7277,-1.6221,-1.494,-1.3235,-1.3597,-1.3763,-1.2428,-1.3028,-1.396,0.0,0.0,0.0,0.0,0.0,0.0,0.0,0.0,-1.8724,-1.8775,0.0,-1.7344,0.0,0.0,0.0,0.0,0.0,-1.8857,0.0,0.0,-2.1185,-2.1295,-2.1383,-2.0805,-2.1072,-2.1945,-2.1472,-2.1341,-2.1364,-1.9102,0.0,0.0,0.0,0.0,0.0,0.0,-1.9108,-2.0673,-2.1476,-2.227,-2.3042,-2.3077,-2.3042,-2.2937,-2.1488,-1.959,-1.7383,-1.7171,-1.6367,-1.4812,-1.4007,0.0,0.0,0.0,0.0,0.0,0.0,0.0,0.0,0.0,0.0,0.0,0.0,0.0,0.0,0.0,0.0,0.0,0.0,0.0,0.0,-1.2618,0.0,0.0,0.0,0.0,0.0,0.0,0.0,0.0,0.0,0.0,-1.5474,-1.6736,-1.773,-1.7766,0.0,0.0,0.0,0.0,-1.977,-1.9709,-1.9703,-1.921,-1.7753,-1.8799,-1.9085,-1.6884,0.0,0.0,-1.7519,-1.7248,-1.7147,-1.7067,-1.7666,-1.8254,-1.8629,-1.7502,-1.6008,-1.439,-1.4714,-1.4841,-1.3762,-1.4521,-1.5556,-2.4487,0.0,0.0,0.0,0.0,-2.1892,-2.1779,-2.1286,-2.1495,-2.1436,-2.1199,-2.0206,0.0,0.0,0.0,0.0,0.0,0.0,-2.2039,-2.2434,-2.2889,-2.2899,-2.257,-2.2009,-2.1941,-2.2352,-2.2374,-2.2489,-2.2731,-2.1784,-2.0229,-1.8091,0.0,0.0,0.0,0.0,-1.9521,-2.1059,-2.1468,-2.2002,-2.279,-2.279,-2.227,-2.1194,-2.0673,-1.9568,-1.7851,-1.7642,-1.6897,-1.5344,-1.5016,0.0,0.0,0.0,0.0,0.0,0.0,0.0,0.0,0.0,0.0,0.0,0.0,0.0,0.0,0.0,0.0,0.0,0.0,0.0,-1.1836,-1.2899,-1.3592,0.0,0.0,0.0,0.0,0.0,0.0,0.0,0.0,0.0,-1.712,-1.7475,-1.8158,0.0,0.0,-1.9948,-1.983,-1.9785,-1.9703,-1.9563,-1.9908,0.0,0.0,-1.9652,-1.9939,-1.8793,-1.8968,-1.8947,-1.8078,-1.7873,-1.7811,-1.7852,-1.7975,-1.8073,-1.821,-1.7839,-1.7042,-1.6075,-1.6038,-1.621,-1.5859,-1.6177,-1.6666,-2.7101,-2.4617,-2.4644,-2.4376,-2.3922,-2.4153,-2.4002,-2.3577,-2.363,-2.3601,-2.3518,-2.2615,-2.2322,-2.2435,-2.1218,0.0,0.0,0.0,-2.3636,-2.3906,-2.407,-2.3993,-2.3655,-2.3031,-2.2888,-2.3055,-2.3002,-2.318,-2.351,-2.3155,-2.2212,-2.0619,0.0,0.0,-1.9647,-2.0018,-2.05,-2.1155,-2.16,-2.2063,-2.2535,-2.2535,-2.1781,-2.0309,-2.0191,-1.9461,-1.7929,-1.7772,-1.7143,-1.5925,-1.5529,-1.4274,0.0,0.0,0.0,0.0,0.0,0.0,0.0,0.0,0.0,0.0,0.0,-0.8916,-0.9097,0.0,0.0,0.0,-1.0958,-1.1825,-1.3074,-1.3854,0.0,0.0,0.0,0.0,0.0,0.0,0.0,-1.4763,-1.6833,-1.8181,-1.8039,-1.836,-1.8825,-1.9469,-1.9558,-1.9484,-1.9349,0.0,-1.931,-1.952,-2.005,-2.0292,-1.9946,-2.042,-2.0673,-1.9935,-1.9509,-1.912,-1.8628,-1.8254,-1.8027,-1.8078,-1.8035,-1.8027,-1.8091,-1.8027,-1.7679,-1.6859,-1.6991,-1.7177,-1.6876,-1.7117,-1.7542,-2.8432,-2.7963,-2.7331,-2.6701,-2.617,-2.6192,-2.6083,-2.5894,-2.5371,-2.5429,-2.5836,-2.4704,-2.42,-2.4119,-2.2952,0.0,-2.4275,-2.4473,-2.4891,-2.5456,-2.4984,-2.4731,-2.4701,-2.4088,-2.3859,-2.4043,-2.36,-2.3544,-2.3948,-2.3647,-2.3608,-2.3816,-2.2824,-2.1911,-2.1234,-2.1826,-2.1821,-2.1177,-2.1872,-2.2237,-2.2271,-2.2237,-2.1528,-2.001,-1.9976,-1.9243,-1.7771,-1.7612,-1.7209,-1.6409,-1.5657,-1.4556,-1.3064,0.0,0.0,0.0,0.0,0.0,0.0,0.0,0.0,0.0,0.0,0.0,0.0,0.0,0.0,0.0,-1.2623,0.0,-1.4528,-1.5276,0.0,0.0,0.0,-1.3954,-1.4604,-1.3644,-1.3759,-1.5853,0.0,0.0,-1.8487,-1.927,-1.9546,-1.895,-1.8824,-1.8769,-1.8622,-1.8654,-1.8823,-1.9619,-2.0187,-2.0605,-2.0802,-2.126,-2.1309,-2.048,-1.9747,-1.929,-1.8981,-1.8403,-1.7986,-1.7961,-1.7983,-1.8005,-1.807,-1.8147,-1.7941,-1.7151,-1.7624,-1.7927,-1.7219,-1.759,-1.8086,-2.9531,-2.894,-2.8719,-2.8248,-2.7818,-2.7818,-2.7614,-2.7287,-2.7636,-2.7578,-2.7229,-2.6939,-2.6323,-2.5482,-2.4817,-2.4658,-2.4982,-2.5627,-2.5972,-2.6169,-2.6165,-2.6123,-2.6093,-2.5435,-2.4912,-2.464,-2.4589,-2.448,-2.4387,-2.4484,-2.4659,-2.4917,-2.4782,-2.4244,-2.3287,-2.2886,-2.2651,-2.2452,-2.2115,-2.1915,-2.1915,-2.1915,-2.1188,-1.9724,-1.9691,-1.9026,-1.7595,-1.7434,-1.7033,-1.6285,-1.5452,-1.4365,-1.2899,-1.215,0.0,0.0,0.0,0.0,0.0,0.0,0.0,0.0,0.0,-1.0278,-1.0365,0.0,-1.1564,0.0,-1.4645,-1.5809,-1.5358,-1.6027,0.0,0.0,-1.5303,-1.4811,-1.3954,-1.5072,-1.5918,-1.5868,-1.7582,-1.8926,-1.9143,-1.9458,-1.9421,-1.878,-1.8768,-1.8769,-1.8678,-1.8622,-1.9039,-2.0201,-2.0511,-2.0975,-2.2002,-2.2263,-2.1907,-2.1068,-2.0737,-2.0212,-1.8976,-1.8617,-1.8339,-1.7884,-1.7726,-1.7772,-1.7983,-1.8027,-1.7992,-1.78,-1.7967,-1.8057,-1.78,-1.7945,-1.8134,-2.9571,-2.9251,-2.9335,-2.9141,-2.8792,-2.8736,-2.8656,-2.8537,-2.8652,-2.8477,-2.8158,-2.8158,-2.7661,-2.6753,-2.6455,-2.6184,-2.595,-2.6453,-2.6651,-2.6651,-2.6555,-2.6504,-2.6475,-2.5866,-2.5285,-2.4747,-2.4806,-2.462,-2.4337,-2.4533,-2.4775,-2.4974,-2.5208,-2.5051,-2.4495,-2.3687,-2.3126,-2.2861,-2.2162,-2.1797,-2.1797,-2.1797,-2.1234,-2.0141,-1.975,-1.9055,-1.7988,-1.7535,-1.7125,-1.6675,-1.5873,-1.4897,-1.3796,-1.307,-1.2551,0.0,0.0,0.0,0.0,0.0,0.0,0.0,0.0,0.0,0.0,0.0,-1.3328,-1.5008,-1.6441,-1.7394,-1.7667,-1.8075,-1.8007,-1.7237,-1.7169,-1.6795,-1.5999,-1.6755,-1.7185,-1.6755,-1.7856,-1.855,-1.8272,-1.8654,-1.8808,-1.8458,-1.86,-1.8714,-1.8659,-1.8659,-1.9188,-2.0582,-2.0718,-2.1114,-2.2514,-2.2596,-2.2296,-2.1725,-2.1332,-2.074,-1.9777,-1.911,-1.8568,-1.8181,-1.7846,-1.7658,-1.7839,-1.7939,-1.7961,-1.7983,-1.8005,-1.7971,-1.7949,-1.8048,-1.8113,-2.921,-2.921,-2.946,-2.9438,-2.9254,-2.9233,-2.9394,-2.9665,-2.9175,-2.8915,-2.8915,-2.877,-2.8394,-2.7874,-2.7671,-2.7378,-2.691,-2.6928,-2.7003,-2.6974,-2.6672,-2.6555,-2.6525,-2.6075,-2.5525,-2.4896,-2.4896,-2.4627,-2.4255,-2.4334,-2.4493,-2.4667,-2.4766,-2.4902,-2.5067,-2.4188,-2.3456,-2.2961,-2.2363,-2.2029,-2.193,-2.2029,-2.1632,-2.0737,-2.0174,-1.9419,-1.8526,-1.7798,-1.7388,-1.7289,-1.6458,-1.5706,-1.5069,-1.4432,-1.3751,0.0,-1.3686,0.0,0.0,0.0,0.0,0.0,0.0,0.0,0.0,-1.4218,-1.5365,-1.7746,-1.8143,-1.8858,-2.0157,-2.0313,-2.0016,-1.9243,-1.8992,-1.89,-1.8843,-1.8335,-1.7941,-1.7963,-1.7963,-1.7715,-1.7305,-1.7684,-1.8134,-1.8205,-1.8408,-1.8545,-1.8584,-1.8659,-1.9211,-2.0576,-2.081,-2.1322,-2.2332,-2.2569,-2.2426,-2.2254,-2.1758,-2.111,-2.0644,-1.9644,-1.8776,-1.8452,-1.7919,-1.7622,-1.7726,-1.7794,-1.7861,-1.7939,-1.7905,-1.7883,-1.7905,-1.7971,-1.8057,-2.8924,-2.8948,-2.8831,-2.8672,-2.8565,-2.9308,-2.9882,-3.034,-3.0227,-3.0199,-3.0051,-2.9036,-2.8615,-2.8623,-2.774,-2.7336,-2.7357,-2.7132,-2.7003,-2.7003,-2.7115,-2.7238,-2.7208,-2.721,-2.6871,-2.6243,-2.6213,-2.5978,-2.5439,-2.5045,-2.4902,-2.5001,-2.4606,-2.4533,-2.4664,0.0,0.0,0.0,-2.3653,-2.3288,-2.2725,-2.3288,-2.2659,-2.0804,-2.1135,0.0,-1.8625,-1.8233,-1.7854,-1.7298,-1.6458,0.0,0.0,0.0,0.0,0.0,0.0,0.0,0.0,0.0,0.0,0.0,-1.7337,-1.7311,-1.6308,-1.6994,-1.7996,-1.914,-2.0034,-2.0425,-2.0086,-2.073,-2.079,-1.9916,-1.9355,-1.8948,-1.89,-1.8775,-1.8707,-1.8674,-1.8674,-1.8663,-1.8506,-1.8268,-1.8048,-1.8134,-1.8246,-1.8368,-1.8333,-1.8584,-1.9088,-1.9891,-2.0893,-2.1784,-2.2512,-2.2596,-2.2515,-2.2371,-2.2309,-2.1623,-2.0384,-1.9896,-1.9051,-1.7996,-1.7461,-1.7386,-1.7472,-1.7509,-1.7635,-1.7749,-1.7794,-1.7816,-1.7883,-1.7905,-1.7961,-2.9503,0.0,-2.9453,-2.9343,0.0,-2.964,-2.998,-3.031,-3.0349,-3.0179,-2.9849,-2.9242,-2.8761,-2.8484,-2.7736,-2.7371,-2.7365,-2.7002,-2.6899,-2.6899,-2.7078,-2.7211,-2.7211,-2.7335,-2.703,-2.6406,-2.6406,-2.6128,-2.5521,-2.4956,-2.4717,-2.4746,-2.42,-2.4036,-2.4287,-2.4271,-2.4079,-2.3718,-2.3685,-2.3521,-2.3194,-2.3489,-2.3031,-2.1622,0.0,0.0,0.0,0.0,0.0,0.0,0.0,0.0,0.0,0.0,0.0,-1.5489,-1.6071,-1.6484,-1.6548,-1.7442,-1.8001,-1.7973,-1.8965,-1.9094,-1.8065,-1.8209,-1.8687,-1.9512,-1.9855,-2.0119,-2.0516,-2.1019,-2.1249,-2.1162,-2.0883,-2.0645,-2.0586,-2.0255,-1.9858,-1.9486,-1.9147,-1.8775,-1.8426,-1.8133,-1.7939,-1.8005,-1.8113,-1.8163,-1.8205,-1.8448,-1.8988,-2.0004,-2.1335,-2.2272,-2.2493,-2.2487,-2.2432,-2.2349,-2.2293,-2.1709,-2.0565,-2.001,-1.9325,-1.8145,-1.7601,-1.7371,-1.7353,-1.7377,-1.7415,-1.7589,-1.7602,-1.7681,-1.7749,-1.7794,-1.7873,-3.0206,-3.0583,-3.034,-3.0164,-3.019,-2.9956,-2.9899,-3.0021,0.0,0.0,0.0,-2.9228,-2.8806,-2.8263,-2.7765,-2.7535,-2.74,-2.7018,-2.6915,-2.6939,-2.6928,-2.7003,-2.7003,-2.713,-2.6916,-2.6385,-2.6385,-2.612,-2.5511,-2.5006,-2.4726,-2.4713,-2.4179,-2.401,-2.4207,-2.4431,-2.421,-2.3583,-2.3658,-2.3629,-2.3465,-2.3597,-2.3211,-2.231,-2.1924,-2.0985,-1.9488,-1.887,-1.8156,-1.7402,-1.7311,-1.7002,-1.6451,-1.6937,-1.7092,-1.6645,-1.7649,-1.8297,-1.8297,-1.8792,-1.9151,-1.9312,-1.9828,-1.9922,-1.9398,-1.9056,-1.9126,-1.9855,-1.9498,-1.977,-2.1076,-2.1292,-2.1583,-2.2254,-2.2214,-2.2173,-2.222,-2.1644,-2.0779,-2.0103,-1.9461,-1.8741,-1.7941,-1.7805,-1.7816,-1.7861,-1.7939,-1.7983,-1.807,-1.8399,-1.9059,-2.0246,-2.1403,-2.2356,-2.2392,-2.2321,-2.2237,-2.2118,-2.2061,-2.164,-2.0755,-2.009,-1.9365,-1.8302,-1.7749,-1.7404,-1.7338,-1.7314,-1.7305,-1.7448,-1.7439,-1.7505,-1.7686,-1.7813,-1.7939,-3.0557,-3.0608,-3.0532,-3.0284,-2.9856,-2.9858,-2.9833,-2.9859,-3.0047,-3.0099,-2.9968,-2.8874,-2.8581,-2.8772,-2.7967,-2.7858,-2.8172,-2.7456,-2.725,-2.7386,-2.7132,-2.7003,-2.7003,-2.713,-2.7122,-2.7034,-2.7034,-2.7004,-2.6828,-2.6337,-2.612,-2.605,-2.558,-2.5153,-2.4832,-2.4395,-2.4194,-2.4203,-2.4532,-2.4372,-2.3771,-2.4379,-2.3777,-2.1935,-2.242,-2.1887,-2.0088,-1.9863,-1.9305,-1.815,-1.7967,-1.7908,-1.7811,-1.7876,-1.82,-1.8713,-1.894,-1.907,-1.9037,-1.9139,-1.9463,-2.0049,-2.021,-2.0178,-2.0021,-2.0594,-2.104,-2.1138,-2.0999,-2.1286,-2.1602,-2.1711,-2.1797,-2.1903,-2.1636,-2.1556,-2.2017,-2.1446,-2.0733,-2.0,-1.9909,-1.9258,-1.8042,-1.7772,-1.7772,-1.7828,-1.785,-1.7816,-1.794,-1.8517,-1.9293,-2.0079,-2.0841,-2.1481,-2.2035,-2.2027,-2.1945,-2.1735,-2.1764,-2.1334,-1.9992,-1.9744,-1.9199,-1.7904,-1.7476,-1.7338,-1.7289,-1.7273,-1.7273,-1.7314,-1.7281,-1.742,-1.7945,-1.8251,-1.841,-3.1035,-3.1035,-3.1035,-3.0884,-3.0633,-3.0055,-2.9779,-2.9856,-2.991,-2.9755,-2.9423,-2.8839,-2.8466,-2.8265,-2.7762,-2.7659,-2.7961,-2.7589,-2.7598,-2.7853,-2.7523,-2.7598,-2.7831,-2.7272,-2.715,-2.7418,-2.715,-2.6974,-2.6916,-2.6432,-2.6159,-2.6149,-2.5301,-2.4759,-2.4522,-2.3983,-2.3696,-2.3812,-2.4287,-2.4418,-2.4106,-2.4387,-2.392,-2.2605,-2.2692,-2.1918,-2.0319,-1.9973,-1.9399,-1.8499,-1.8467,-1.8438,-1.8438,-1.8757,-1.9108,-1.9457,-1.984,-2.0064,-2.0064,-1.9803,-2.012,-2.1182,-2.1019,-2.0986,-2.1342,-2.0985,-2.0789,-2.0694,-2.0402,-2.0305,-2.0782,-2.0964,-2.1246,-2.1642,-2.1524,-2.1578,-2.1716,-2.1249,-2.0605,-1.9922,-1.958,-1.8988,-1.7963,-1.7772,-1.7772,-1.7772,-1.776,-1.7715,-1.7713,-1.8617,-1.9471,-1.9984,-2.0868,-2.1586,-2.1874,-2.1827,-2.1708,-2.1617,-2.1556,-2.0967,-1.9722,-1.9503,-1.893,-1.7813,-1.741,-1.7371,-1.7322,-1.7248,-1.7224,-1.7224,-1.7191,-1.7427,-1.8013,-1.887,-1.9386,-3.1486,-3.1386,-3.1537,-3.1436,-3.1135,-3.0331,-2.9905,-2.9804,-2.9779,-2.9528,-2.9151,-2.8976,-2.8571,-2.8094,-2.7704,-2.7604,-2.7813,-2.7699,-2.7785,-2.8108,-2.7825,-2.7993,-2.8367,-2.7411,-2.7151,-2.7552,-2.7084,-2.6794,-2.6788,-2.6426,-2.6213,-2.6147,-2.5188,-2.457,-2.4393,-2.3791,-2.3349,-2.3127,-2.3734,-2.4078,-2.4036,-2.4078,-2.3732,-2.3102,-2.2631,-2.1787,-2.0597,-1.9958,-1.9373,-1.8623,-1.859,-1.859,-1.859,-1.9217,-1.9656,-1.9844,-2.0348,-2.0695,-2.0632,-2.0194,-2.0575,-2.1984,-2.1601,-2.1633,-2.2183,-2.1406,-2.0728,-2.0476,-1.9965,-1.9711,-2.0283,-2.0469,-2.0819,-2.1562,-2.1722,-2.1817,-2.1875,-2.1414,-2.078,-2.009,-1.9605,-1.9133,-1.8434,-1.8232,-1.8276,-1.8262,-1.8114,-1.8019,-1.8063,-1.9009,-1.9728,-2.0081,-2.1026,-2.1624,-2.1573,-2.1521,-2.143,-2.1334,-2.1275,-2.0726,-1.9877,-1.9446,-1.8936,-1.7955,-1.7461,-1.7371,-1.7322,-1.7248,-1.7297,-1.7427,-1.7474,-1.7623,-1.8556,-1.9512,-1.9975,-3.1838,-3.1512,-3.1938,-3.1562,-3.0733,-3.0583,-3.0256,-2.9804,-2.9779,-2.9779,-2.9628,-2.9176,-2.895,-2.8921,-2.8119,-2.8023,-2.8384,-2.7894,-2.7755,-2.8069,-2.7841,-2.7822,-2.7967,-2.7455,-2.7281,-2.7446,-2.7031,-2.6794,-2.6794,-2.6864,-2.6938,-2.7004,-2.6385,-2.5707,-2.5088,-2.4469,-2.3585,-2.2435,-2.3052,-2.3392,-2.3422,-2.3392,-2.3096,-2.2401,-2.2396,-2.1904,-2.0805,-2.0248,-1.9443,-1.8377,-1.8285,-1.8285,-1.8346,-1.8932,-1.9516,-2.0135,-2.0258,-2.0292,-2.0361,-1.997,-2.0415,-2.172,-2.16,-2.173,-2.241,-2.2313,-2.2118,-2.1824,-2.1279,-2.0799,-2.083,-2.0959,-2.1311,-2.1923,-2.2085,-2.2247,-2.2281,-2.241,-2.195,-2.0689,-2.0495,-2.0364,-1.9517,-1.9318,-1.9358,-1.9207,-1.9173,-1.9095,-1.9088,-1.9689,-2.0286,-2.0297,-2.0945,-2.1168,-2.0877,-2.0953,-2.0988,-2.0476,-2.0766,-2.0606,-2.0028,-1.9473,-1.9,-1.8424,-1.7731,-1.7519,-1.7486,-1.7306,-1.7525,-1.7993,-1.8141,-1.8317,-1.945,-1.9961,-1.9657,-3.239,-3.1938,-3.2491,-3.2089,-3.111,-3.0758,-3.0306,-2.9804,-2.9779,-2.9779,-2.9779,-2.9553,-2.9152,-2.8545,-2.8164,-2.7889,-2.7634,-2.7538,-2.7717,-2.7985,-2.7755,-2.8008,-2.8446,-2.7425,-2.723,-2.7824,-2.7151,-2.6794,-2.6794,-2.6846,-2.6899,-2.6916,-2.628,-2.5783,-2.5491,-2.4528,-2.3564,-2.2717,-2.2571,-2.2527,-2.2586,-2.304,-2.3186,-2.2877,-2.2536,-2.1999,-2.1227,-2.0647,-2.0092,-1.9657,-1.9627,-1.9778,-2.0171,-2.0473,-2.0744,-2.0986,-2.0986,-2.1311,-2.1858,-2.143,-2.1828,-2.3387,-2.3111,-2.3159,-2.3871,-2.3651,-2.3355,-2.3127,-2.1949,-2.1023,-2.0958,-2.0925,-2.1211,-2.1748,-2.1872,-2.203,-2.2544,-2.2332,-2.1761,-2.0924,-2.0587,-2.0213,-1.9502,-1.9334,-1.9389,-1.9416,-1.9449,-1.9492,-1.9377,-1.9874,-2.04,-2.076,-2.1116,-2.1179,-2.0983,-2.1052,-2.1022,-2.083,-2.0863,-2.0703,-2.0223,-1.9901,-1.9476,-1.8963,-1.8534,-1.8339,-1.8534,-1.8469,-1.8573,-1.8848,-1.9147,-1.9447,-1.9872,-1.9968,-1.9608,-3.2742,-3.234,-3.2842,-3.2441,-3.1386,-3.0984,-3.0432,-2.9829,-2.9779,-2.9779,-2.9779,-2.9779,-2.9252,-2.8423,-2.8323,-2.794,-2.7429,-2.754,-2.7628,-2.7776,-2.7637,-2.8012,-2.8575,-2.7594,-2.7363,-2.7937,-2.7397,-2.696,-2.6813,-2.6664,-2.6606,-2.6573,-2.622,-2.5952,-2.5691,-2.4675,-2.3746,-2.2917,-2.2468,-2.2178,-2.2164,-2.279,-2.3201,-2.3143,-2.2731,-2.2115,-2.1374,-2.0725,-2.0262,-1.9953,-1.9953,-2.0161,-2.0635,-2.0991,-2.1258,-2.1435,-2.1435,-2.1813,-2.2716,-2.2303,-2.2714,-2.4122,-2.3951,-2.3959,-2.439,-2.4207,-2.3897,-2.3549,-2.2388,-2.1563,-2.1464,-2.1397,-2.161,-2.2169,-2.2118,-2.23,-2.2817,-2.2546,-2.2055,-2.1305,-2.0991,-2.0442,-1.9739,-1.9702,-1.9822,-1.9877,-1.9877,-1.9816,-1.9728,-2.012,-2.0573,-2.0991,-2.1087,-2.1183,-2.1277,-2.1277,-2.1214,-2.1022,-2.0895,-2.0959,-2.0541,-2.0415,-2.0129,-1.9704,-1.947,-1.9276,-1.919,-1.9283,-1.9592,-1.9793,-2.015,-2.0444,-2.0415,-2.0096,-1.9461,-3.2742,-3.234,-3.2842,-3.2416,-3.1386,-3.1336,-3.0758,-2.9779,-2.9779,-2.9779,-2.9779,-2.9779,-2.9453,-2.89,-2.89,-2.8648,-2.8286,-2.7915,-2.761,-2.74,-2.743,-2.767,-2.7973,-2.7705,-2.7693,-2.798,-2.767,-2.7256,-2.6722,-2.6382,-2.6204,-2.6283,-2.6385,-2.6202,-2.5836,-2.5139,-2.421,-2.3091,-2.2801,-2.254,-2.212,-2.2614,-2.2904,-2.2875,-2.2875,-2.2236,-2.1146,-2.0447,-1.9633,-1.8375,-1.8499,-1.847,-1.8557,-1.9633,-2.0535,-2.1029,-2.1087,-2.1462,-2.2115,-2.198,-2.2344,-2.3534,-2.3539,-2.3341,-2.3646,-2.3662,-2.346,-2.2885,-2.2865,-2.2749,-2.2749,-2.2488,-2.2734,-2.3387,-2.339,-2.3313,-2.3484,-2.3467,-2.3048,-2.2118,-2.1782,-2.1372,-2.0798,-2.083,-2.0735,-2.083,-2.0863,-2.0735,-2.0607,-2.0701,-2.0731,-2.0793,-2.0859,-2.1055,-2.1373,-2.1277,-2.0988,-2.0827,-2.0959,-2.1247,-2.1247,-2.1086,-2.0735,-2.0353,-1.9747,-1.9494,-1.9655,-1.994,-2.0319,-2.0702,-2.1278,-2.1504,-2.0767,-1.9653,-1.9116,-3.2771,-3.2792,-3.2993,-3.2416,-3.1436,-3.1386,-3.0783,-2.9804,-2.9779,-2.9779,-2.9779,-2.9779,-2.9679,-2.9478,-2.9478,-2.8976,-2.8195,-2.7733,-2.7379,-2.729,-2.7028,-2.7053,-2.7311,-2.7026,-2.7083,-2.7382,-2.7176,-2.6667,-2.6235,-2.6159,-2.6134,-2.6099,-2.6229,-2.6381,-2.622,-2.54,-2.4442,-2.3572,-2.2788,-2.2207,-2.2033,-2.2236,-2.2352,-2.2323,-2.2352,-2.1917,-2.1017,-2.0407,-1.9885,-1.942,-1.942,-1.9595,-2.003,-2.0843,-2.1598,-2.2106,-2.2193,-2.2396,-2.2659,-2.2614,-2.2845,-2.3477,-2.3443,-2.3402,-2.3599,-2.3753,-2.3744,-2.365,-2.3668,-2.3778,-2.3631,-2.311,-2.2867,-2.3383,-2.346,-2.3566,-2.3813,-2.3699,-2.3243,-2.2723,-2.2113,-2.1276,-2.068,-2.0527,-2.0628,-2.0697,-2.0663,-2.0597,-2.0532,-2.053,-2.0621,-2.093,-2.0808,-2.0852,-2.1559,-2.1246,-2.0927,-2.0831,-2.0862,-2.0892,-2.0921,-2.0823,-2.0473,-2.0665,-2.0067,-2.0223,-2.0632,-2.1012,-2.1304,-2.099,-2.16,-2.16,-2.0989,-1.9783,-1.928,-3.2896,-3.3093,-3.3093,-3.2416,-3.1436,-3.1386,-3.0783,-2.9829,-2.9779,-2.9779,-2.9779,-2.9779,-2.9779,-2.9779,-2.9779,-2.9402,-2.8624,-2.8072,-2.762,-2.7268,-2.6892,-2.6822,-2.6867,-2.6775,-2.6857,-2.7038,-2.6764,-2.6382,-2.6042,-2.5964,-2.5873,-2.5883,-2.5964,-2.6204,-2.6275,-2.5437,-2.4575,-2.3856,-2.2861,-2.2259,-2.2103,-2.1873,-2.1787,-2.17,-2.1427,-2.1108,-2.0727,-2.0291,-1.9972,-1.9827,-1.9798,-2.0146,-2.093,-2.1423,-2.2062,-2.2772,-2.2888,-2.2962,-2.3007,-2.3023,-2.3038,-2.3201,-2.3216,-2.3304,-2.348,-2.3653,-2.3782,-2.3867,-2.3952,-2.4055,-2.4073,-2.3579,-2.3314,-2.3619,-2.3609,-2.3754,-2.4194,-2.3917,-2.3456,-2.2879,-2.1954,-2.1055,-2.0338,-2.0285,-2.0357,-2.0462,-2.0395,-2.0292,-2.0261,-2.0258,-2.0347,-2.0742,-2.0535,-2.0578,-2.0902,-2.0751,-2.0663,-2.0599,-2.0601,-2.0595,-2.0652,-2.0522,-2.0522,-2.0746,-2.1061,-2.1342,-2.1655,-2.207,-2.1827,-2.1268,-2.127,-2.1363,-2.066,-1.9867,-1.9427,-3.3068,-3.3093,-3.3068,-3.2466,-3.1455,-3.1329,-3.0783,-2.9877,-2.9804,-2.9702,-2.9702,-2.9779,-2.9702,-2.9779,-2.9702,-2.9754,-2.9553,-2.9076,-2.8348,-2.7494,-2.7268,-2.7107,-2.6815,-2.6867,-2.695,-2.7152,-2.6765,-2.6544,-2.6425,-2.5836,-2.5641,-2.572,-2.5547,-2.5605,-2.5907,-2.5124,-2.4507,-2.3862,-2.3217,-2.2656,-2.2198,-2.1654,-2.1327,-2.1203,-2.0387,-1.9986,-2.0164,-2.0088,-1.9759,-1.9304,-1.9217,-1.974,-2.0872,-2.1162,-2.1656,-2.2656,-2.2888,-2.2872,-2.2809,-2.2781,-2.2735,-2.2752,-2.2735,-2.2843,-2.2994,-2.3172,-2.3304,-2.3348,-2.3451,-2.3659,-2.4102,-2.4131,-2.4164,-2.4273,-2.4273,-2.4304,-2.4337,-2.4317,-2.3794,-2.2686,-2.1824,-2.109,-2.0501,-2.0216,-2.0189,-2.0258,-2.0185,-2.0045,-2.005,-2.0045,-2.0005,-2.0036,-2.0071,-2.0203,-2.0207,-2.0181,-2.022,-2.0289,-2.0357,-2.0354,-2.047,-2.043,-2.0369,-2.0562,-2.1214,-2.1491,-2.1378,-2.1755,-2.1921,-2.1526,-2.1463,-2.1058,-2.0419,-1.9722,-1.9406,-3.2661,-3.2661,-3.2661,-3.2154,-3.1437,-3.1174,-3.0498,-2.9831,-2.946,-2.9287,-2.9312,-2.9287,-2.9287,-2.9365,-2.9443,-2.9521,-2.9496,-2.9476,-2.9126,-2.8398,-2.7645,-2.7289,-2.7037,-2.6754,-2.6671,-2.6714,-2.6629,-2.6298,-2.5983,-2.5884,-2.5709,-2.5255,-2.5261,-2.5287,-2.5272,-2.4641,-2.3984,-2.3461,-2.2779,-2.2177,-2.1678,-2.1478,-2.1156,-2.0745,-2.0495,-2.0398,-2.0231,-1.9678,-1.945,-1.9623,-1.9759,-2.0378,-2.1394,-2.1685,-2.2091,-2.2772,-2.2872,-2.2826,-2.2781,-2.2644,-2.2569,-2.2569,-2.2569,-2.2569,-2.2678,-2.2814,-2.2875,-2.2933,-2.3343,-2.3751,-2.3955,-2.4363,-2.4699,-2.497,-2.5138,-2.5031,-2.4767,-2.4468,-2.3876,-2.3148,-2.2409,-2.1701,-2.0983,-2.0482,-2.0076,-2.001,-1.9904,-1.9869,-1.9833,-1.9797,-1.9792,-1.9756,-1.9756,-1.969,-1.969,-1.9654,-1.9726,-1.9833,-1.9904,-1.994,-2.005,-2.0135,-2.011,-2.0515,-2.1166,-2.1454,-2.1338,-2.1436,-2.1695,-2.1234,-2.0619,-2.0303,-2.0045,-1.9758,-1.9376,-3.156,-3.156,-3.156,-3.1249,-3.0635,-3.0385,-2.9834,-2.9104,-2.8745,-2.8482,-2.8339,-2.8395,-2.8474,-2.8633,-2.8949,-2.9184,-2.9341,-2.9624,-2.9603,-2.9176,-2.8348,-2.772,-2.7293,-2.6716,-2.6533,-2.6533,-2.6533,-2.6264,-2.5912,-2.5952,-2.5781,-2.5454,-2.5205,-2.5051,-2.4918,-2.4356,-2.3714,-2.2938,-2.2483,-2.1894,-2.1198,-2.0877,-2.0641,-2.0454,-2.0313,-2.0352,-2.0523,-1.9796,-1.9603,-2.0108,-2.0316,-2.0876,-2.1845,-2.1961,-2.225,-2.2727,-2.2826,-2.2764,-2.2644,-2.2477,-2.2431,-2.2402,-2.2431,-2.2431,-2.2523,-2.2586,-2.2632,-2.2689,-2.3177,-2.3712,-2.3951,-2.4496,-2.5027,-2.5567,-2.5538,-2.5511,-2.5228,-2.4828,-2.4273,-2.36,-2.2928,-2.2095,-2.1166,-2.063,-2.0074,-1.9846,-1.969,-1.9617,-1.9581,-1.9581,-1.9538,-1.9428,-1.9362,-1.9288,-1.9213,-1.9176,-1.9176,-1.9288,-1.9398,-1.9398,-1.9487,-1.9516,-1.9553,-2.0295,-2.1006,-2.1181,-2.1099,-2.1469,-2.162,-2.0744,-1.9935,-1.9833,-1.9762,-1.9617,-1.936,-3.017,-3.017,-3.017,-2.9917,-2.9481,-2.9366,-2.8884,-2.8042,-2.7813,-2.7644,-2.73,-2.7267,-2.7406,-2.781,-2.8291,-2.8633,-2.9052,-2.9468,-2.9624,-2.9449,-2.8925,-2.8225,-2.7318,-2.6886,-2.6634,-2.6533,-2.6533,-2.6508,-2.6408,-2.6164,-2.5968,-2.587,-2.5241,-2.4832,-2.4762,-2.4327,-2.3576,-2.2554,-2.2374,-2.1694,-2.0625,-2.0054,-2.0002,-2.0419,-1.9877,-2.0007,-2.0914,-2.0498,-2.0311,-2.0741,-2.0811,-2.1184,-2.1729,-2.1903,-2.2278,-2.2661,-2.2764,-2.2552,-2.2385,-2.2263,-2.2301,-2.2264,-2.2339,-2.247,-2.2546,-2.2725,-2.2772,-2.2725,-2.3206,-2.3695,-2.421,-2.4775,-2.5364,-2.592,-2.5762,-2.5634,-2.5878,-2.5349,-2.4744,-2.4096,-2.3299,-2.2374,-2.1216,-2.0792,-2.0271,-1.987,-1.9618,-1.9602,-1.9426,-1.938,-1.9197,-1.9093,-1.8884,-1.8769,-1.8655,-1.876,-1.8788,-1.897,-1.9113,-1.9228,-1.9199,-1.9237,-1.9498,-2.0245,-2.0872,-2.0951,-2.0971,-2.1208,-2.0989,-2.0131,-1.9677,-1.9611,-1.9501,-1.9325,-1.9213,-2.9646,-2.9646,-2.9646,-2.9579,-2.9398,-2.9083,-2.8701,-2.8341,-2.7644,-2.7245,-2.7082,-2.6828,-2.6775,-2.7185,-2.773,-2.8051,-2.8211,-2.8791,-2.8973,-2.8816,-2.8694,-2.8124,-2.7473,-2.7143,-2.6841,-2.654,-2.6396,-2.6533,-2.6508,-2.6357,-2.608,-2.5744,-2.5481,-2.5102,-2.4836,-2.434,-2.3441,-2.2401,-2.1949,-2.1237,-2.0271,-1.9915,-1.9864,-1.994,-1.9962,-2.0393,-2.1274,-2.1366,-2.1111,-2.0969,-2.1332,-2.1657,-2.1861,-2.1981,-2.2112,-2.2114,-2.2105,-2.1983,-2.1841,-2.1698,-2.1842,-2.2232,-2.2254,-2.2578,-2.3096,-2.3247,-2.3348,-2.3509,-2.4058,-2.4582,-2.4836,-2.5261,-2.5791,-2.6115,-2.5856,-2.5745,-2.5923,-2.5497,-2.4993,-2.471,-2.3703,-2.2746,-2.2018,-2.1166,-2.0423,-2.0071,-1.9916,-1.979,-1.9518,-1.9336,-1.9268,-1.8574,-1.8316,-1.8198,-1.8187,-1.8293,-1.8439,-1.8652,-1.8938,-1.9205,-1.9284,-1.9362,-1.989,-2.0546,-2.1133,-2.1333,-2.0878,-2.0743,-2.0088,-1.9597,-1.9317,-1.9213,-1.9139,-1.9026,-1.8874,-2.856,-2.856,-2.8466,-2.8373,-2.8351,-2.7979,-2.765,-2.7393,-2.6922,-2.6408,-2.6065,-2.5787,-2.5806,-2.6135,-2.6588,-2.6999,-2.7325,-2.773,-2.7891,-2.781,-2.7649,-2.7567,-2.736,-2.7089,-2.6621,-2.6325,-2.6054,-2.6025,-2.6025,-2.6119,-2.599,-2.5784,-2.5578,-2.5303,-2.5109,-2.4356,-2.3577,-2.2723,-2.2096,-2.1368,-2.0589,-2.0514,-2.0514,-2.0517,-2.0549,-2.0784,-2.1224,-2.1797,-2.1903,-2.1426,-2.1355,-2.141,-2.1506,-2.165,-2.165,-2.1506,-2.1382,-2.1313,-2.1215,-2.1118,-2.1336,-2.1789,-2.195,-2.2295,-2.2802,-2.32,-2.3489,-2.3592,-2.4682,-2.5149,-2.5121,-2.5542,-2.5906,-2.604,-2.5863,-2.5845,-2.6206,-2.5654,-2.5255,-2.4858,-2.4009,-2.289,-2.2505,-2.1389,-2.0665,-2.0199,-2.0032,-1.9822,-1.9656,-1.9488,-1.914,-1.8549,-1.8099,-1.8003,-1.7868,-1.7828,-1.8167,-1.8423,-1.8862,-1.9154,-1.9613,-1.9708,-2.0103,-2.0685,-2.1327,-2.1456,-2.0825,-2.0292,-1.9998,-1.9565,-1.9181,-1.8836,-1.8788,-1.8606,-1.845,-2.7262,-2.7262,-2.6996,-2.69,-2.69,-2.6592,-2.6445,-2.6047,-2.5979,-2.5462,-2.4966,-2.4654,-2.4877,-2.4934,-2.557,-2.5841,-2.6362,-2.667,-2.667,-2.6648,-2.6543,-2.6656,-2.698,-2.6463,-2.6015,-2.573,-2.5373,-2.5183,-2.5111,-2.53,-2.5535,-2.553,-2.5369,-2.5468,-2.5336,-2.4668,-2.3841,-2.313,-2.2555,-2.1906,-2.1281,-2.1056,-2.1007,-2.1131,-2.1117,-2.1049,-2.1386,-2.1898,-2.2193,-2.1616,-2.1092,-2.0933,-2.0957,-2.1057,-2.1057,-2.1036,-2.1064,-2.0987,-2.0757,-2.0861,-2.1017,-2.151,-2.1614,-2.1797,-2.2559,-2.3096,-2.3501,-2.3825,-2.5051,-2.5465,-2.5324,-2.5602,-2.5687,-2.5715,-2.5632,-2.5797,-2.6037,-2.5692,-2.5299,-2.519,-2.4098,-2.3105,-2.2261,-2.1555,-2.0818,-2.0351,-2.0188,-2.0053,-1.9845,-1.9548,-1.9164,-1.8552,-1.8209,-1.7948,-1.7728,-1.7439,-1.7849,-1.8192,-1.878,-1.929,-2.0064,-2.0307,-2.041,-2.0778,-2.1338,-2.1114,-2.0344,-1.9964,-1.9906,-1.9429,-1.8999,-1.8679,-1.8405,-1.8123,-1.7895,-2.7167,-2.6996,-2.69,-2.6805,-2.6592,-2.6496,-2.6436,-2.6315,-2.5973,-2.5638,-2.541,-2.4826,-2.4662,-2.4872,-2.5081,-2.5274,-2.5444,-2.5822,-2.5924,-2.5527,-2.5527,-2.5568,-2.5744,-2.5574,-2.5338,-2.4793,-2.4498,-2.43,-2.4123,-2.4391,-2.4636,-2.4921,-2.5252,-2.5481,-2.5566,-2.5019,-2.4369,-2.3529,-2.2825,-2.211,-2.1297,-2.0853,-2.0804,-2.1107,-2.1354,-2.1576,-2.1626,-2.1765,-2.1765,-2.151,-2.1146,-2.1011,-2.1189,-2.104,-2.1014,-2.1215,-2.1313,-2.1285,-2.1201,-2.1176,-2.1453,-2.1913,-2.1989,-2.2426,-2.3109,-2.354,-2.4121,-2.4722,-2.5445,-2.5758,-2.5707,-2.5351,-2.5324,-2.5211,-2.5016,-2.4848,-2.4964,-2.5135,-2.5136,-2.4861,-2.4259,-2.3499,-2.2692,-2.1914,-2.1229,-2.0682,-2.0422,-2.0241,-2.0061,-1.9882,-1.9347,-1.891,-1.8461,-1.8215,-1.7823,-1.7583,-1.7791,-1.8041,-1.8489,-1.9164,-1.9925,-2.0421,-2.0378,-2.0743,-2.1281,-2.0863,-2.0298,-2.0206,-2.0251,-1.9533,-1.8805,-1.8515,-1.82,-1.7765,-1.7629,-2.6784,-2.6688,-2.6592,-2.64,-2.6304,-2.6207,-2.613,-2.6071,-2.5873,-2.5635,-2.5397,-2.4921,-2.4846,-2.4806,-2.4921,-2.4995,-2.5001,-2.4989,-2.4695,-2.4313,-2.4166,-2.4251,-2.4231,-2.4388,-2.4299,-2.414,-2.4015,-2.3776,-2.3755,-2.3971,-2.4326,-2.4499,-2.4842,-2.5135,-2.5205,-2.4795,-2.4242,-2.3737,-2.3095,-2.2423,-2.168,-2.1246,-2.0864,-2.0954,-2.1256,-2.1501,-2.1663,-2.1945,-2.1922,-2.1788,-2.1403,-2.1082,-2.1032,-2.0692,-2.0692,-2.1008,-2.1156,-2.1099,-2.1043,-2.1092,-2.124,-2.1829,-2.1854,-2.2381,-2.3033,-2.3624,-2.4121,-2.4792,-2.5387,-2.5942,-2.5889,-2.538,-2.5064,-2.4899,-2.457,-2.4261,-2.4268,-2.4464,-2.465,-2.4433,-2.3765,-2.315,-2.2538,-2.1878,-2.1588,-2.0983,-2.0963,-2.0833,-2.1043,-2.0784,-2.0065,-1.9481,-1.8976,-1.8523,-1.8042,-1.7804,-1.7841,-1.793,-1.8096,-1.8774,-1.9504,-1.986,-2.0092,-2.0686,-2.1259,-2.1133,-2.066,-2.0651,-2.0152,-1.9054,-1.8377,-1.8229,-1.8061,-1.7798,-1.7753,-2.6557,-2.64,-2.6187,-2.6091,-2.6014,-2.582,-2.5742,-2.5723,-2.5723,-2.5604,-2.5195,-2.5117,-2.4952,-2.4921,-2.4854,-2.4874,-2.4846,-2.4516,-2.4068,-2.3762,-2.3604,-2.3584,-2.3525,-2.3454,-2.3579,-2.4137,-2.3698,-2.3447,-2.3423,-2.3743,-2.3772,-2.3974,-2.4265,-2.4346,-2.4348,-2.4048,-2.363,-2.3375,-2.3006,-2.2474,-2.1939,-2.1596,-2.1185,-2.0981,-2.1058,-2.1409,-2.1728,-2.2092,-2.2273,-2.2149,-2.1692,-2.126,-2.0851,-2.0394,-2.0273,-2.0861,-2.1029,-2.1078,-2.1102,-2.0995,-2.1163,-2.1572,-2.1668,-2.2101,-2.2862,-2.3472,-2.3909,-2.4524,-2.5224,-2.5779,-2.5815,-2.5141,-2.4849,-2.4773,-2.4381,-2.3967,-2.3791,-2.3841,-2.3842,-2.3612,-2.3093,-2.2574,-2.2137,-2.1616,-2.1511,-2.1433,-2.1407,-2.1482,-2.1658,-2.1447,-2.0678,-2.0066,-1.9535,-1.8981,-1.8478,-1.8131,-1.8139,-1.7834,-1.7874,-1.8342,-1.8929,-1.9106,-1.9509,-2.0579,-2.1043,-2.0888,-2.0836,-2.0707,-1.9965,-1.856,-1.8189,-1.8312,-1.8141,-1.7823,-1.7847,-2.6721,-2.6187,-2.6091,-2.6014,-2.5839,-2.5742,-2.5723,-2.5723,-2.5723,-2.5703,-2.5586,-2.5234,-2.5153,-2.4996,-2.4848,-2.4822,-2.4842,-2.452,-2.4238,-2.4043,-2.3828,-2.3672,-2.3574,-2.334,-2.3299,-2.3122,-2.3023,-2.2748,-2.2509,-2.2574,-2.306,-2.294,-2.3246,-2.3449,-2.3356,-2.3143,-2.2994,-2.2656,-2.2457,-2.2015,-2.124,-2.0879,-2.0871,-2.0818,-2.1057,-2.1572,-2.1957,-2.2149,-2.2259,-2.2149,-2.1692,-2.1668,-2.1704,-2.1368,-2.1392,-2.1656,-2.1786,-2.1749,-2.181,-2.181,-2.2073,-2.2495,-2.2528,-2.2726,-2.3227,-2.3574,-2.3923,-2.4353,-2.4798,-2.5142,-2.516,-2.4681,-2.4337,-2.4214,-2.4059,-2.3774,-2.3433,-2.314,-2.2787,-2.2476,-2.2156,-2.2065,-2.172,-2.1578,-2.1609,-2.1635,-2.1735,-2.175,-2.1893,-2.1559,-2.0923,-2.0441,-2.0089,-1.951,-1.8982,-1.8659,-1.8435,-1.7842,-1.7721,-1.7799,-1.824,-1.8335,-1.8927,-1.9927,-2.0639,-2.074,-2.0711,-2.0677,-2.0192,-1.9162,-1.8839,-1.8518,-1.8178,-1.7864,-1.7917,-2.6547,-2.6232,-2.6015,-2.582,-2.5742,-2.5723,-2.5723,-2.5723,-2.5723,-2.5723,-2.5684,-2.5508,-2.541,-2.5352,-2.533,-2.5189,-2.4898,-2.4839,-2.4629,-2.4414,-2.4199,-2.3965,-2.3848,-2.3574,-2.334,-2.3144,-2.291,-2.2754,-2.2559,-2.2899,-2.2832,-2.29,-2.3103,-2.3071,-2.2815,-2.2743,-2.2391,-2.2052,-2.1903,-2.15,-2.0594,-2.0183,-2.0147,-2.0677,-2.1098,-2.1635,-2.2268,-2.2409,-2.2409,-2.2385,-2.2174,-2.2198,-2.2221,-2.2198,-2.2138,-2.24,-2.2567,-2.2645,-2.2733,-2.2669,-2.2852,-2.3043,-2.3048,-2.3219,-2.3529,-2.3673,-2.3837,-2.4214,-2.4449,-2.4589,-2.4589,-2.4305,-2.4164,-2.407,-2.3904,-2.3553,-2.3203,-2.2647,-2.2081,-2.1564,-2.1572,-2.1614,-2.1535,-2.1481,-2.163,-2.1817,-2.1913,-2.2002,-2.2056,-2.1599,-2.1014,-2.0686,-2.0286,-1.9691,-1.9147,-1.8775,-1.8406,-1.782,-1.7506,-1.7571,-1.7662,-1.7772,-1.8342,-1.919,-1.9768,-2.037,-2.0467,-2.0402,-2.0041,-1.9713,-1.8979,-1.8401,-1.819,-1.8026,-1.8012,-2.6342,-2.6148,-2.5799,-2.5605,-2.5547,-2.5528,-2.5528,-2.5547,-2.5528,-2.5547,-2.5528,-2.5528,-2.5509,-2.5528,-2.547,-2.5315,-2.51,-2.5005,-2.483,-2.4598,-2.4404,-2.4171,-2.4049,-2.3796,-2.3621,-2.3379,-2.3301,-2.3223,-2.3047,-2.3201,-2.3216,-2.3028,-2.3136,-2.2899,-2.2308,-2.2084,-2.188,-2.1712,-2.1548,-2.1097,-2.0327,-1.9568,-1.9575,-2.0422,-2.0767,-2.1257,-2.2117,-2.223,-2.2253,-2.2253,-2.2253,-2.2321,-2.2366,-2.2457,-2.2457,-2.2541,-2.2928,-2.3021,-2.2954,-2.2931,-2.2907,-2.3049,-2.3232,-2.3375,-2.349,-2.3555,-2.3598,-2.3891,-2.3959,-2.3913,-2.394,-2.4009,-2.3986,-2.399,-2.3715,-2.3347,-2.312,-2.2594,-2.1846,-2.1499,-2.133,-2.104,-2.0879,-2.12,-2.1305,-2.1384,-2.1472,-2.168,-2.1705,-2.1415,-2.0912,-2.073,-2.0394,-1.9833,-1.9269,-1.8625,-1.819,-1.7589,-1.7243,-1.7179,-1.7224,-1.724,-1.7907,-1.8634,-1.9425,-1.9971,-2.0041,-2.017,-2.01,-1.9703,-1.8827,-1.8235,-1.7938,-1.7824,-1.7832,-2.6332,-2.5547,-2.549,-2.5381,-2.4979,-2.4941,-2.4941,-2.4941,-2.4941,-2.5039,-2.4824,-2.4941,-2.4941,-2.4843,-2.4922,-2.4884,-2.4846,-2.4692,-2.4617,-2.4369,-2.4258,-2.4279,-2.4448,-2.4121,-2.388,-2.3602,-2.3652,-2.3477,-2.3223,-2.3144,-2.3036,-2.2722,-2.2689,-2.2296,-2.1808,-2.1749,-2.1155,-2.084,-2.0819,-2.046,-1.9857,-1.9055,-1.9351,-1.9959,-2.0333,-2.0664,-2.1516,-2.1669,-2.1691,-2.1647,-2.1603,-2.1559,-2.1581,-2.1789,-2.1819,-2.1903,-2.1989,-2.216,-2.2181,-2.2385,-2.2565,-2.2786,-2.2947,-2.3077,-2.3194,-2.3224,-2.3194,-2.3106,-2.3216,-2.3282,-2.3326,-2.3364,-2.3468,-2.3548,-2.3486,-2.3289,-2.3112,-2.2495,-2.1796,-2.1567,-2.1375,-2.0546,-2.0014,-2.0556,-2.095,-2.102,-2.1082,-2.1362,-2.1409,-2.1067,-2.081,-2.0637,-2.0334,-1.9808,-1.9298,-1.8656,-1.8001,-1.7409,-1.7147,-1.6918,-1.6874,-1.6929,-1.7422,-1.8129,-1.8926,-1.9643,-1.9946,-2.0052,-2.0175,-1.9704,-1.887,-1.8238,-1.7679,-1.7634,-1.7534,-2.4951,-2.4718,-2.4289,-2.4003,-2.3824,-2.3609,-2.3502,-2.3502,-2.3502,-2.3502,-2.3502,-2.3502,-2.3502,-2.3601,-2.3502,-2.3502,-2.3502,-2.3601,-2.3502,-2.3701,-2.3717,-2.3846,-2.401,-2.4089,-2.4028,-2.3874,-2.375,-2.3516,-2.3281,-2.3057,-2.3008,-2.2891,-2.2832,-2.2617,-2.1914,-2.1953,-2.1719,-2.1309,-2.0918,-2.0426,-1.9979,-1.9515,-1.9451,-2.012,-2.0422,-2.0765,-2.1153,-2.1533,-2.1618,-2.1639,-2.1639,-2.1565,-2.1513,-2.1607,-2.1561,-2.1241,-2.13,-2.1565,-2.188,-2.2103,-2.237,-2.2596,-2.2831,-2.3152,-2.3147,-2.3069,-2.2991,-2.3034,-2.3034,-2.2991,-2.2907,-2.3011,-2.3037,-2.3067,-2.3018,-2.3017,-2.28,-2.2302,-2.1783,-2.1631,-2.146,-2.0672,-2.0138,-2.0687,-2.1152,-2.126,-2.1235,-2.1325,-2.1277,-2.0955,-2.0665,-2.0461,-2.0081,-1.972,-1.9179,-1.8644,-1.7991,-1.7413,-1.7105,-1.6884,-1.6631,-1.6779,-1.7222,-1.7518,-1.8084,-1.8822,-1.9572,-1.9931,-2.0003,-1.9499,-1.8955,-1.8232,-1.7543,-1.697,-1.6772,-2.3262,-2.3393,-2.319,-2.2975,-2.2857,-2.269,-2.2588,-2.2571,-2.2605,-2.2537,-2.2418,-2.235,-2.2299,-2.2299,-2.24,-2.24,-2.2299,-2.2299,-2.2299,-2.2501,-2.2785,-2.3143,-2.3492,-2.3929,-2.4108,-2.3919,-2.3963,-2.3615,-2.321,-2.3036,-2.3105,-2.3057,-2.3066,-2.2852,-2.2598,-2.2402,-2.2187,-2.1738,-2.0957,-2.0507,-2.0266,-1.9826,-1.9865,-2.0151,-2.0467,-2.0805,-2.0968,-2.1095,-2.1278,-2.1201,-2.1181,-2.1044,-2.1008,-2.0854,-2.0817,-2.0566,-2.0487,-2.0584,-2.1084,-2.1476,-2.2039,-2.2326,-2.2512,-2.2715,-2.2716,-2.2737,-2.2635,-2.2615,-2.2635,-2.2575,-2.2554,-2.2469,-2.2512,-2.2421,-2.2328,-2.2461,-2.2506,-2.1948,-2.1688,-2.1639,-2.1407,-2.1229,-2.0916,-2.1203,-2.1403,-2.149,-2.1498,-2.1366,-2.1061,-2.0621,-2.027,-1.9922,-1.977,-1.9423,-1.9122,-1.8569,-1.7959,-1.7444,-1.7183,-1.69,-1.6616,-1.6697,-1.7043,-1.7349,-1.7512,-1.7963,-1.8692,-1.9254,-1.9717,-1.916,-1.8609,-1.8062,-1.742,-1.675,-1.625,-2.1417,-2.1487,-2.2766,-2.2938,-2.2642,-2.2716,-2.2683,-2.2388,-2.2544,-2.2363,-2.1931,-2.1907,-2.1656,-2.1623,-2.1505,-2.1607,-2.1725,-2.1725,-2.1623,-2.1709,-2.2114,-2.2484,-2.2915,-2.3341,-2.3804,-2.4012,-2.3824,-2.3429,-2.3051,-2.2606,-2.2815,-2.3115,-2.2882,-2.2785,-2.2609,-2.2427,-2.2213,-2.1748,-2.0992,-2.0625,-2.0275,-1.9922,-1.9664,-1.9805,-1.9847,-1.9869,-2.0333,-2.0313,-2.0255,-2.0255,-2.0333,-2.0255,-2.0255,-2.0098,-1.996,-1.9863,-1.9766,-1.9803,-2.0134,-2.0664,-2.1036,-2.1391,-2.1703,-2.2056,-2.207,-2.1934,-2.1894,-2.1992,-2.2109,-2.1864,-2.1753,-2.1605,-2.177,-2.1746,-2.1732,-2.1652,-2.1678,-2.1636,-2.1411,-2.1466,-2.1314,-2.0943,-2.0923,-2.1008,-2.1135,-2.1198,-2.1047,-2.0899,-2.0449,-2.0049,-1.9599,-1.9343,-1.9302,-1.9156,-1.8986,-1.8482,-1.7798,-1.7385,-1.7136,-1.6868,-1.6668,-1.6845,-1.7007,-1.7105,-1.7328,-1.7553,-1.7829,-1.8578,-1.8973,-1.8742,-1.8343,-1.7821,-1.7223,-1.6533,-1.6052,-2.1203,-2.1303,-2.185,-2.1815,-2.1493,-2.1278,-2.1186,-2.1186,-2.1186,-2.1018,-2.0817,-2.0557,-2.0389,-2.0251,-2.0205,-2.0189,-2.0189,-2.0189,-2.0308,-2.0395,-2.0704,-2.12,-2.181,-2.2248,-2.2611,-2.2824,-2.2814,-2.2423,-2.1618,-2.1821,-2.1499,-2.1536,-2.2232,-2.2541,-2.2408,-2.2138,-2.1844,-2.1363,-2.0837,-2.0523,-2.0362,-2.0232,-1.9908,-1.9544,-2.0255,-2.0023,-1.9831,-1.9828,-1.9904,-1.9863,-1.9863,-1.9784,-1.9706,-1.9645,-1.9566,-1.9469,-1.9292,-1.9421,-1.9641,-2.0117,-2.0461,-2.1043,-2.1344,-2.1494,-2.1749,-2.1757,-2.1776,-2.1708,-2.1652,-2.1509,-2.146,-2.1163,-2.1081,-2.1096,-2.1053,-2.0997,-2.0954,-2.0914,-2.0916,-2.0918,-2.0703,-2.043,-2.0469,-2.0508,-2.0718,-2.0838,-2.0629,-2.0325,-1.9909,-1.9515,-1.9164,-1.8884,-1.8864,-1.8715,-1.8616,-1.8065,-1.7546,-1.7232,-1.6985,-1.6701,-1.6522,-1.6876,-1.7038,-1.705,-1.7108,-1.7387,-1.7734,-1.8113,-1.8275,-1.8161,-1.7955,-1.7599,-1.698,-1.6241,-1.5824,-2.1203,-2.1203,-2.1203,-2.1086,-2.0852,-2.0618,-2.053,-2.053,-2.0545,-2.034,-2.0047,-1.9959,-1.9725,-1.9506,-1.955,-1.9611,-1.9687,-1.9657,-1.9538,-1.9702,-1.9955,-2.0308,-2.079,-2.1269,-2.1694,-2.1744,-2.1759,-2.1569,-2.106,-2.0881,-2.0789,-2.0957,-2.1207,-2.1626,-2.1606,-2.1516,-2.1212,-2.0729,-2.0143,-1.9991,-1.9833,-1.9979,-2.0117,-1.9593,-2.0245,-2.0263,-1.9784,-1.9706,-1.9668,-1.9706,-1.9706,-1.9627,-1.9548,-1.9469,-1.939,-1.9311,-1.9347,-1.9512,-1.9842,-2.0246,-2.0503,-2.101,-2.1305,-2.1526,-2.164,-2.1731,-2.171,-2.1658,-2.1516,-2.1392,-2.1284,-2.0905,-2.0789,-2.0829,-2.0503,-2.041,-2.0385,-2.0368,-2.0343,-2.0316,-2.0104,-1.9953,-2.0329,-2.0367,-2.0346,-2.0391,-2.0019,-1.9805,-1.95,-1.9136,-1.8759,-1.8537,-1.8392,-1.8297,-1.8165,-1.7427,-1.6843,-1.6793,-1.651,-1.6388,-1.6315,-1.6741,-1.7102,-1.7245,-1.7302,-1.7302,-1.7494,-1.7831,-1.7812,-1.7716,-1.7426,-1.6985,-1.6523,-1.578,-1.538,-2.1218,-2.1203,-2.1218,-2.1203,-2.1159,-2.1189,-2.1145,-2.1072,-2.1101,-2.0925,-2.0589,-2.034,-2.0047,-1.9872,-1.9974,-1.993,-1.9784,-1.9755,-1.9725,-1.9744,-1.9657,-2.0043,-2.0292,-2.057,-2.0759,-2.1505,-2.129,-2.0877,-2.0736,-2.0458,-2.0394,-2.0184,-2.0164,-2.0473,-2.0235,-2.0076,-1.9985,-1.9777,-1.8996,-1.8868,-1.9059,-1.9274,-1.9495,-1.9634,-2.0071,-2.009,-1.9806,-1.9524,-1.9407,-1.9388,-1.937,-1.937,-1.9352,-1.9316,-1.9316,-1.9297,-1.9261,-1.9524,-1.9871,-2.0583,-2.093,-2.1145,-2.1365,-2.1676,-2.175,-2.1805,-2.1896,-2.1953,-2.1626,-2.1374,-2.0998,-2.0696,-2.0606,-2.0479,-2.0189,-1.9985,-1.9998,-1.9842,-1.9825,-1.9797,-1.967,-1.9586,-2.0017,-2.0254,-2.0034,-1.9851,-1.9465,-1.9277,-1.9161,-1.8911,-1.8647,-1.8348,-1.8271,-1.7832,-1.7561,-1.6703,-1.6209,-1.6173,-1.6157,-1.6087,-1.61,-1.6356,-1.672,-1.721,-1.7173,-1.6961,-1.7222,-1.7521,-1.7257,-1.6991,-1.6544,-1.6175,-1.5756,-1.539,-1.4828,-2.1525,-2.1511,-2.1291,-2.1089,-2.096,-2.1089,-2.1203,-2.1203,-2.1189,-2.1028,-2.0764,-2.0589,-2.0384,-2.0208,-2.0179,-2.0208,-2.0106,-2.0062,-2.0033,-1.9556,-1.9425,-1.9237,-1.9345,-1.9405,-1.948,-1.945,-1.9539,-1.9493,-1.8947,-1.9295,-1.8985,-1.8563,-1.8958,-1.9039,-1.9558,-1.9587,-1.9426,-1.8941,-1.8344,-1.8008,-1.8523,-1.8812,-1.899,-1.9143,-1.9674,-1.9844,-1.9481,-1.9169,-1.9099,-1.9081,-1.9081,-1.9099,-1.9099,-1.9099,-1.9134,-1.9151,-1.9186,-1.9379,-1.9764,-2.0237,-2.0731,-2.1031,-2.1423,-2.1788,-2.2061,-2.241,-2.2409,-2.2244,-2.1733,-2.1496,-2.1352,-2.0671,-2.048,-2.0303,-2.0026,-1.9817,-1.9764,-1.9519,-1.9431,-1.9431,-1.9256,-1.9305,-1.9604,-1.9971,-1.9894,-1.9751,-1.9442,-1.938,-1.9317,-1.9041,-1.8742,-1.8417,-1.8164,-1.7564,-1.6924,-1.6353,-1.5947,-1.5931,-1.593,-1.5931,-1.5959,-1.6017,-1.6263,-1.6668,-1.663,-1.6558,-1.6706,-1.6808,-1.6451,-1.6137,-1.569,-1.5297,-1.4889,-1.4521,-1.415,-2.1584,-2.1657,-2.122,-2.0845,-2.0615,-2.0859,-2.0859,-2.0859,-2.096,-2.0958,-2.0925,-2.0896,-2.0706,-2.0516,-2.0516,-2.0472,-2.0428,-2.0288,-2.0149,-1.9656,-1.9419,-1.9184,-1.8907,-1.8632,-1.883,-1.8562,-1.8436,-1.84,-1.8363,-1.8245,-1.8147,-1.8122,-1.7806,-1.8354,-1.8766,-1.8566,-1.8162,-1.7699,-1.7179,-1.6889,-1.7432,-1.7835,-1.8217,-1.849,-1.8803,-1.9134,-1.8846,-1.8729,-1.8629,-1.8646,-1.8646,-1.8559,-1.8646,-1.8629,-1.8629,-1.8543,-1.8796,-1.8912,-1.9179,-1.9479,-1.985,-2.0279,-2.1086,-2.159,-2.1969,-2.2258,-2.2438,-2.2308,-2.1924,-2.1613,-2.1397,-2.0715,-2.036,-2.0275,-2.0172,-1.9949,-1.971,-1.954,-1.9333,-1.9333,-1.9162,-1.9213,-1.9384,-1.9555,-1.9799,-1.959,-1.9451,-1.9418,-1.9264,-1.8868,-1.8473,-1.814,-1.7673,-1.7115,-1.6648,-1.6171,-1.5889,-1.5748,-1.5634,-1.5514,-1.56,-1.5528,-1.5796,-1.6076,-1.6144,-1.6156,-1.6161,-1.6063,-1.5739,-1.5325,-1.488,-1.4396,-1.3963,-1.3755,-1.3637,-2.1378,-2.154,-2.0989,-2.0515,-2.027,-2.004,-2.0026,-2.027,-2.0486,-2.0831,-2.1074,-2.1045,-2.0885,-2.0725,-2.0929,-2.087,-2.0554,-2.0413,-2.0229,-2.0032,-1.9569,-1.9236,-1.9083,-1.8916,-1.8669,-1.8666,-1.8526,-1.8282,-1.8304,-1.813,-1.8116,-1.8248,-1.8047,-1.8151,-1.7928,-1.7652,-1.7176,-1.6995,-1.658,-1.6462,-1.675,-1.6989,-1.7417,-1.7735,-1.8081,-1.8277,-1.8134,-1.7919,-1.7777,-1.7715,-1.7683,-1.7652,-1.7636,-1.7604,-1.7604,-1.7699,-1.7982,-1.8198,-1.8308,-1.8609,-1.8767,-1.9249,-2.0222,-2.0823,-2.1456,-2.1995,-2.2433,-2.2345,-2.1942,-2.162,-2.1223,-2.0905,-2.0497,-2.0446,-2.0412,-2.0189,-1.9949,-1.9727,-1.9504,-1.9384,-1.9213,-1.9299,-1.971,-1.9826,-1.9698,-1.9535,-1.9289,-1.8799,-1.8564,-1.8008,-1.7663,-1.7363,-1.6931,-1.6563,-1.6208,-1.6034,-1.5824,-1.5716,-1.5196,-1.5017,-1.5064,-1.5219,-1.5427,-1.5605,-1.5723,-1.5758,-1.5713,-1.5436,-1.503,-1.4643,-1.4438,-1.3938,-1.3593,-1.3515,-1.3347,-2.0659,-2.0561,-2.0128,-1.9415,-1.8532,-1.7923,-1.804,-1.8971,-1.9435,-2.0026,-2.063,-2.0515,-2.043,-2.0387,-2.0458,-2.043,-2.0401,-2.023,-1.9976,-1.9751,-1.9401,-1.9111,-1.8863,-1.8617,-1.8469,-1.8306,-1.8158,-1.8036,-1.786,-1.782,-1.7833,-1.7779,-1.7952,-1.7833,-1.7671,-1.7244,-1.7171,-1.6954,-1.642,-1.6359,-1.6484,-1.6795,-1.6994,-1.7145,-1.7335,-1.752,-1.7445,-1.7415,-1.734,-1.7355,-1.7385,-1.74,-1.74,-1.74,-1.7415,-1.7415,-1.752,-1.7565,-1.7565,-1.7639,-1.7759,-1.8018,-1.8737,-2.0054,-2.0945,-2.1735,-2.227,-2.2132,-2.1907,-2.1604,-2.1353,-2.0959,-2.0678,-2.0593,-2.0492,-2.0272,-2.0053,-1.9833,-1.9614,-1.9259,-1.9107,-1.9259,-1.9664,-1.9923,-1.9703,-1.953,-1.9147,-1.8561,-1.8086,-1.7599,-1.7326,-1.7026,-1.6847,-1.6579,-1.6287,-1.6137,-1.5904,-1.5613,-1.516,-1.4889,-1.5068,-1.5215,-1.5219,-1.5219,-1.5278,-1.5212,-1.5113,-1.4838,-1.4669,-1.465,-1.4433,-1.379,-1.328,-1.3267,-1.308,-1.9112,-1.896,-1.8564,-1.7577,-1.6301,-1.5806,-1.6031,-1.6738,-1.8027,-1.9216,-1.991,-1.991,-1.991,-1.991,-1.991,-1.991,-1.9897,-1.9652,-1.9469,-1.9273,-1.8951,-1.877,-1.8525,-1.8242,-1.8236,-1.7955,-1.7812,-1.7707,-1.7512,-1.7499,-1.7633,-1.7633,-1.7648,-1.7556,-1.7569,-1.7475,-1.7341,-1.7154,-1.6927,-1.676,-1.6783,-1.6744,-1.6732,-1.6703,-1.6781,-1.6805,-1.6791,-1.6805,-1.6791,-1.6777,-1.6669,-1.6669,-1.6655,-1.6655,-1.6655,-1.6626,-1.6626,-1.664,-1.664,-1.664,-1.6739,-1.6866,-1.7227,-1.8208,-1.9496,-2.0404,-2.1295,-2.1812,-2.1611,-2.1427,-2.131,-2.1078,-2.0945,-2.0716,-2.05,-2.0284,-2.0085,-1.9886,-1.9521,-1.9123,-1.9074,-1.9173,-1.9372,-1.9629,-1.9546,-1.9104,-1.8643,-1.8118,-1.7795,-1.7579,-1.732,-1.7154,-1.7095,-1.693,-1.6623,-1.6301,-1.6096,-1.5862,-1.5452,-1.5242,-1.5235,-1.4992,-1.483,-1.4794,-1.475,-1.4674,-1.4664,-1.4641,-1.4476,-1.4489,-1.4321,-1.3785,-1.3378,-1.3296,-1.2997,-1.7008,-1.701,-1.6387,-1.5356,-1.3851,-1.411,-1.4101,-1.3952,-1.6453,-1.8064,-1.8752,-1.8971,-1.8855,-1.8622,-1.8622,-1.8622,-1.8506,-1.8389,-1.8273,-1.8635,-1.8119,-1.7836,-1.7774,-1.793,-1.7387,-1.7553,-1.7428,-1.6869,-1.7092,-1.6907,-1.687,-1.734,-1.7367,-1.7322,-1.7473,-1.7556,-1.7502,-1.7422,-1.7154,-1.6847,-1.6714,-1.6526,-1.6326,-1.637,-1.6209,-1.6048,-1.6034,-1.5925,-1.5899,-1.5912,-1.5925,-1.6061,-1.6007,-1.5927,-1.5927,-1.5967,-1.6075,-1.6116,-1.6252,-1.6293,-1.6126,-1.6219,-1.6215,-1.6936,-1.8067,-1.9205,-2.0155,-2.0718,-2.0527,-2.0543,-2.0364,-2.0269,-2.0059,-1.9933,-1.976,-1.965,-1.9539,-1.9193,-1.8674,-1.8328,-1.8186,-1.8297,-1.8545,-1.8703,-1.8519,-1.8257,-1.7885,-1.7404,-1.7153,-1.6979,-1.7167,-1.7124,-1.713,-1.7028,-1.6945,-1.6638,-1.636,-1.6052,-1.5616,-1.5442,-1.5438,-1.4972,-1.4402,-1.443,-1.4391,-1.4241,-1.4196,-1.4166,-1.4082,-1.4082,-1.3899,-1.373,-1.3522,-1.3121,-1.2999,-1.6115,-1.5898,-1.5047,-1.4309,-1.3775,-1.3527,-1.3651,-1.3757,-1.4455,-1.5502,-1.6419,-1.6514,-1.6621,-1.675,-1.675,-1.675,-1.6632,-1.675,-1.6397,-1.6514,-1.6408,-1.6526,-1.6408,-1.6423,-1.6204,-1.5825,-1.5702,-1.5738,-1.5648,-1.5592,-1.5659,-1.6098,-1.6354,-1.6795,-1.7232,-1.7394,-1.7569,-1.7569,-1.737,-1.7118,-1.6972,-1.6981,-1.686,-1.6673,-1.6473,-1.642,-1.6433,-1.646,-1.6473,-1.65,-1.65,-1.6393,-1.6192,-1.5965,-1.5845,-1.5858,-1.6032,-1.6112,-1.6206,-1.6299,-1.6249,-1.6229,-1.6221,-1.6504,-1.7069,-1.7978,-1.8702,-1.911,-1.9403,-1.9463,-1.9375,-1.9301,-1.9241,-1.9108,-1.8959,-1.8929,-1.8885,-1.8349,-1.7705,-1.7546,-1.7353,-1.7427,-1.7669,-1.7527,-1.739,-1.7109,-1.6749,-1.6386,-1.6075,-1.5912,-1.6457,-1.6606,-1.6979,-1.6958,-1.6921,-1.6916,-1.6608,-1.6271,-1.5864,-1.5648,-1.549,-1.4881,-1.4172,-1.4035,-1.398,-1.3891,-1.3743,-1.3659,-1.3574,-1.3392,-1.3222,-1.2966,-1.2699,-1.2322,-1.2504,-1.4539,-1.4346,-1.3761,-1.3374,-1.3061,-1.2926,-1.2926,-1.3035,-1.3181,-1.3514,-1.4169,-1.4789,-1.5095,-1.5105,-1.5095,-1.5095,-1.5105,-1.5213,-1.5343,-1.5224,-1.5105,-1.5224,-1.5095,-1.5095,-1.515,-1.4917,-1.4907,-1.4834,-1.4572,-1.4719,-1.4961,-1.5347,-1.5727,-1.6263,-1.6808,-1.727,-1.7551,-1.7551,-1.7313,-1.7132,-1.7029,-1.7094,-1.7114,-1.6914,-1.6807,-1.6767,-1.67,-1.67,-1.67,-1.67,-1.6673,-1.6513,-1.6299,-1.6126,-1.6046,-1.6072,-1.6179,-1.6339,-1.6473,-1.652,-1.6539,-1.6364,-1.6137,-1.624,-1.6022,-1.6832,-1.7468,-1.7874,-1.8282,-1.8457,-1.8457,-1.84,-1.84,-1.833,-1.796,-1.7792,-1.7739,-1.7288,-1.6882,-1.6588,-1.6546,-1.6714,-1.6868,-1.6856,-1.6635,-1.6565,-1.6122,-1.5778,-1.5388,-1.502,-1.5544,-1.6016,-1.632,-1.6644,-1.6786,-1.6785,-1.6813,-1.64,-1.5917,-1.5074,-1.4402,-1.4277,-1.4015,-1.3688,-1.3579,-1.3581,-1.3392,-1.3199,-1.2637,-1.2357,-1.2272,-1.21,-1.1854,-1.1521,-1.151,-1.3152,-1.2881,-1.2743,-1.2572,-1.2426,-1.2418,-1.241,-1.2385,-1.2345,-1.2255,-1.2473,-1.3751,-1.4231,-1.4282,-1.4272,-1.4272,-1.4152,-1.3913,-1.4033,-1.4152,-1.4033,-1.3913,-1.4033,-1.4152,-1.4004,-1.4004,-1.3994,-1.3994,-1.3955,-1.3955,-1.4055,-1.4816,-1.5418,-1.5952,-1.6483,-1.6936,-1.7116,-1.6721,-1.6465,-1.6405,-1.6617,-1.6989,-1.699,-1.7012,-1.6879,-1.6733,-1.672,-1.672,-1.6733,-1.6619,-1.6645,-1.65,-1.6242,-1.6111,-1.6045,-1.6058,-1.6064,-1.6308,-1.6526,-1.6658,-1.638,-1.6164,-1.6011,-1.5909,-1.5719,-1.5922,-1.6558,-1.6845,-1.7252,-1.7477,-1.749,-1.7477,-1.7477,-1.7345,-1.7067,-1.6817,-1.6605,-1.6381,-1.6077,-1.5774,-1.5866,-1.6025,-1.596,-1.6043,-1.5959,-1.5897,-1.5708,-1.5392,-1.5028,-1.4707,-1.4748,-1.5097,-1.5515,-1.5932,-1.6415,-1.6734,-1.6736,-1.6218,-1.559,-1.4369,-1.3374,-1.3256,-1.3218,-1.322,-1.3079,-1.3016,-1.2769,-1.2569,-1.1978,-1.1435,-1.1433,-1.1398,-1.102,-1.0757,-1.0338,-1.3165,-1.3262,-1.323,-1.3108,-1.2946,-1.2938,-1.2865,-1.2718,-1.2572,-1.2491,-1.2529,-1.2507,-1.2564,-1.238,-1.2371,-1.2518,-1.282,-1.2673,-1.2388,-1.2371,-1.2803,-1.2535,-1.2638,-1.2924,-1.2509,-1.2492,-1.2612,-1.2492,-1.2844,-1.2733,-1.2724,-1.3306,-1.3794,-1.444,-1.5032,-1.5536,-1.6076,-1.5654,-1.515,-1.4841,-1.5395,-1.5935,-1.6711,-1.6727,-1.6714,-1.6676,-1.6676,-1.6676,-1.6676,-1.6612,-1.6355,-1.6202,-1.5948,-1.5695,-1.5519,-1.5444,-1.5543,-1.5998,-1.6125,-1.6471,-1.6302,-1.6456,-1.6248,-1.6088,-1.5907,-1.5825,-1.6217,-1.6254,-1.6518,-1.6468,-1.6455,-1.643,-1.6418,-1.6418,-1.6268,-1.6106,-1.5931,-1.5682,-1.5407,-1.5233,-1.5183,-1.5159,-1.5022,-1.4992,-1.5071,-1.4903,-1.471,-1.4402,-1.4321,-1.4162,-1.4026,-1.4378,-1.4814,-1.5419,-1.6038,-1.6512,-1.6538,-1.6007,-1.5193,-1.3887,-1.294,-1.2443,-1.236,-1.2395,-1.2342,-1.2312,-1.2115,-1.1782,-1.15,-1.1071,-1.097,-1.0798,-1.0372,-0.992,-0.9625]},{"header":{"parameterUnit":"m.s-1","parameterCategory":1,"la1":31.0,"la2":29.5877,"lo1":-88.7671,"lo2":-86.6584,"dy":0.0162,"dx":0.0185,"nx":115,"ny":88,"refTime":"2026-04-07T00:00:00:Z","depth":0,"parameterNumber":3,"parameterNumberName":"V-component_of_WINDS"},"data":[0.0,0.0,0.0,0.0,0.0,0.0,0.0,0.0,0.0,0.0,0.0,0.0,0.0,0.0,0.0,0.0,0.0,0.0,0.0,0.0,0.0,0.0,0.0,0.0,0.0,0.0,0.0,0.0,0.0,0.0,0.0,0.0,0.0,0.0,0.0,0.0,0.0,0.0,0.0,0.0,0.0,0.0,0.0,0.0,0.0,0.0,0.0,0.0,0.0,0.0,0.0,0.0,0.0,0.0,0.0,0.0,0.0,0.0,0.0,0.0,0.0,0.0,0.0,0.0,0.0,0.0,0.0,0.0,0.0,0.0,0.0,0.0,0.0,0.0,0.0,0.0,0.0,0.0,0.0,0.0,0.0,0.0,0.0,0.0,0.0,0.0,0.0,0.0,0.0,0.0,0.0,0.0,0.0,0.0,0.0,0.0,0.0,0.0,0.0,0.0,0.0,0.0,0.0,0.0,0.0,0.0,0.0,0.0,0.0,0.0,0.0,0.0,0.0,0.0,0.0,0.0,0.0,0.0,0.0,0.0,0.0,0.0,0.0,0.0,0.0,0.0,0.0,0.0,0.0,0.0,0.0,0.0,0.0,0.0,0.0,0.0,0.0,0.0,0.0,0.0,0.0,0.0,0.0,0.0,0.0,0.0,0.0,0.0,0.0,0.0,0.0,0.0,0.0,0.0,0.0,0.0,0.0,0.0,0.0,0.0,0.0,0.0,0.0,0.0,0.0,0.0,0.0,0.0,0.0,0.0,0.0,0.0,0.0,0.0,0.0,0.0,0.0,0.0,0.0,0.0,0.0,0.0,0.0,0.0,0.0,0.0,0.0,0.0,0.0,0.0,0.0,0.0,0.0,0.0,0.0,0.0,0.0,0.0,0.0,0.0,0.0,0.0,0.0,0.0,0.0,0.0,0.0,0.0,0.0,0.0,0.0,0.0,0.0,0.0,0.0,0.0,0.0,0.0,0.0,0.0,0.0,0.0,0.0,0.0,0.0,0.0,0.0,0.0,0.0,0.0,0.0,0.0,0.0,0.0,0.0,0.0,0.0,0.0,0.0,0.0,0.0,0.0,0.0,0.0,0.0,0.0,0.0,0.0,0.0,0.0,0.0,0.0,0.0,0.0,0.0,0.0,0.0,0.0,0.0,0.0,0.0,0.0,0.0,0.0,0.0,0.0,0.0,0.0,0.0,0.0,0.0,0.0,0.0,0.0,0.0,0.0,0.0,0.0,0.0,0.0,0.0,0.0,0.0,0.0,0.0,0.0,0.0,0.0,0.0,0.0,0.0,0.0,0.0,0.0,0.0,0.0,0.0,0.0,0.0,0.0,0.0,0.0,0.0,0.0,0.0,0.0,0.0,0.0,0.0,0.0,0.0,0.0,0.0,0.0,0.0,0.0,0.0,0.0,0.0,0.0,0.0,0.0,0.0,0.0,0.0,0.0,0.0,0.0,0.0,0.0,0.0,0.0,0.0,0.0,0.0,0.0,0.0,0.0,0.0,0.0,0.0,0.0,0.0,0.0,0.0,0.0,0.0,0.0,0.0,0.0,0.0,0.0,0.0,0.0,0.0,0.0,0.0,0.0,0.0,0.0,0.0,0.0,0.0,0.0,0.0,0.0,0.0,0.0,0.0,0.0,0.0,0.0,0.0,0.0,0.0,0.0,0.0,0.0,0.0,0.0,0.0,0.0,0.0,0.0,0.0,0.0,0.0,0.0,0.0,0.0,0.0,0.0,0.0,0.0,0.0,0.0,0.0,0.0,0.0,0.0,0.0,0.0,0.0,0.0,0.0,0.0,0.0,0.0,0.0,0.0,0.0,0.0,0.0,0.0,0.0,0.0,0.0,0.0,0.0,0.0,0.0,0.0,0.0,0.0,0.0,0.0,0.0,0.0,0.0,0.0,0.0,0.0,0.0,0.0,0.0,0.0,0.0,0.0,0.0,0.0,0.0,0.0,0.0,0.0,0.0,0.0,0.0,0.0,0.0,0.0,0.0,0.0,0.0,0.0,0.0,0.0,0.0,0.0,0.0,0.0,0.0,0.0,0.0,0.0,0.0,0.0,0.0,0.0,0.0,0.0,0.0,0.0,0.0,0.0,0.0,0.0,0.0,0.0,0.0,0.0,0.0,0.0,0.0,0.0,0.0,0.0,0.0,0.0,0.0,0.0,0.0,0.0,0.0,0.0,0.0,0.0,0.0,0.0,0.0,0.0,0.0,0.0,0.0,0.0,0.0,0.0,0.0,0.0,0.0,0.0,0.0,0.0,0.0,0.0,0.0,0.0,0.0,0.0,0.0,0.0,0.0,0.0,0.0,0.0,0.0,0.0,0.0,0.0,0.0,0.0,0.0,0.0,0.0,0.0,0.0,0.0,0.0,0.0,0.0,0.0,0.0,0.0,0.0,0.0,0.0,0.0,0.0,0.0,0.0,0.0,0.0,0.0,0.0,0.0,0.0,0.0,0.0,0.0,0.0,0.0,0.0,0.0,0.0,0.0,0.0,0.0,0.0,0.0,0.0,0.0,0.0,0.0,0.0,0.0,0.0,0.0,0.0,0.0,0.0,0.0,0.0,0.0,0.0,0.0,0.0,0.0,0.0,0.0,0.0,0.0,0.0,0.0,0.0,0.0,0.0,0.0,0.0,0.0,0.0,0.0,0.0,0.0,0.0,0.0,0.0,0.0,0.0,0.0,0.0,0.0,0.0,0.0,0.0,0.0,0.0,0.0,0.0,0.0,0.0,0.0,0.0,0.0,0.0,0.0,0.0,0.0,0.0,0.0,0.0,0.0,0.0,0.0,0.0,0.0,0.0,0.0,0.0,0.0,0.0,0.0,0.0,0.0,0.0,0.0,0.0,0.0,0.0,0.0,0.0,0.0,0.0,0.0,0.0,0.0,0.0,0.0,0.0,0.0,0.0,0.0,0.0,0.0,0.0,0.0,0.0,0.0,0.0,0.0,0.0,0.0,0.0,0.0,0.0,0.0,0.0,0.0,0.0,0.0,0.0,0.0,0.0,0.0,0.0,0.0,0.0,0.0,0.0,0.0,0.0,0.0,0.0,0.0,0.0,0.0,0.0,0.0,0.0,0.0,0.0,0.0,0.0,0.0,0.0,0.0,0.0,0.0,0.0,0.0,0.0,0.0,0.0,0.0,0.0,0.0,0.0,0.0,0.0,0.0,0.0,0.0,0.0,0.0,0.0,0.0,0.0,0.0,0.0,0.0,0.0,0.0,0.0,0.0,0.0,0.0,0.0,0.0,0.0,0.0,0.0,0.0,0.0,0.0,0.0,0.0,0.0,0.0,0.0,0.0,0.0,0.0,0.0,0.0,0.0,0.0,0.0,0.0,0.0,0.0,0.0,0.0,0.0,0.0,0.0,0.0,0.0,0.0,0.0,0.0,0.0,0.0,0.0,0.0,0.0,0.0,0.0,0.0,0.0,0.0,0.0,0.0,0.0,0.0,0.0,0.0,0.0,0.0,0.0,0.0,0.0,0.0,0.0,0.0,0.0,0.0,0.0,0.0,0.0,0.0,0.0,0.0,0.0,0.0,0.0,0.0,0.0,0.0,0.0,0.0,0.0,0.0,0.0,0.0,0.0,0.0,0.0,0.0,0.0,0.0,0.0,0.0,0.0,0.0,0.0,0.0,0.0,0.0,0.0,0.0,0.0,0.0,0.0,0.0,0.0,0.0,0.0,0.0,0.0,0.0,0.0,0.0,0.0,0.0,0.0,0.0,0.0,0.0,0.0,0.0,0.0,0.0,0.0,0.0,0.0,0.0,0.0,0.0,0.0,0.0,0.0,0.0,0.0,0.0,0.0,0.0,0.0,0.0,0.0,0.0,0.0,0.0,0.0,0.0,0.0,0.0,0.0,0.0,0.0,0.0,0.0,0.0,0.0,0.0,0.0,0.0,0.0,0.0,0.0,0.0,0.0,0.0,0.0,0.0,0.0,0.0,0.0,0.0,0.0,0.0,0.0,0.0,0.0,0.0,0.0,0.0,0.0,0.0,0.0,0.0,0.0,0.0,0.0,0.0,0.0,0.0,0.0,0.0,0.0,0.0,0.0,0.0,0.0,0.0,0.0,0.0,0.0,0.0,0.0,0.0,0.0,0.0,0.0,0.0,0.0,0.0,0.0,0.0,0.0,0.0,0.0,0.0,0.0,0.0,0.0,0.0,0.0,0.0,0.0,0.0,0.0,0.0,0.0,0.0,0.0,0.0,0.0,0.0,0.0,0.0,0.0,0.0,0.0,0.0,0.0,0.0,0.0,0.0,0.7424,0.0,0.0,0.0,0.0,0.0,0.0,0.0,0.0,0.0,0.0,0.0,0.0,0.0,0.0,0.0,0.0,0.0,0.0,0.0,0.0,0.0,0.0,0.0,0.0,0.0,0.0,0.0,0.0,0.0,0.0,0.0,0.0,0.0,0.0,0.0,0.0,0.0,0.0,0.0,0.0,0.0,0.0,0.0,0.0,0.0,0.0,0.0,0.0,0.0,0.0,0.0,0.0,0.0,0.0,0.0,0.0,0.0,0.0,0.0,0.0,0.0,0.0,0.0,0.0,0.0,0.0,0.0,0.0,0.0,0.0,0.0,0.0,0.0,0.0,0.0,0.0,0.0,0.0,0.0,0.0,0.0,0.0,0.0,0.0,0.0,0.0,0.0,0.0,0.0,0.0,0.0,0.0,0.0,0.0,0.0,0.0,0.0,0.0,0.0,0.0,0.0,0.0,0.0,0.0,0.0,0.0,0.0,0.0,0.0,0.0,0.6474,0.6504,0.6565,0.6626,0.6747,0.0,0.0,0.0,0.0,0.0,0.0,0.0,0.0,0.0,0.0,0.0,0.0,0.0,0.0,0.0,0.0,0.0,0.0,0.0,0.0,0.0,0.0,0.0,0.0,0.0,0.0,0.0,0.0,0.0,0.0,0.0,0.0,0.0,0.0,0.0,0.0,0.0,0.0,0.0,0.0,0.0,0.0,0.0,0.0,0.0,0.0,0.0,0.0,0.0,0.0,0.0,0.0,0.0,0.0,0.0,0.0,0.0,0.0,0.0,0.0,0.0,0.0,0.0,0.0,0.0,0.0,0.0,0.0,0.0,0.0,0.0,0.0,0.0,0.0,0.0,0.0,0.0,0.0,0.0,0.0,0.0,0.0,0.0,0.0,0.0,0.0,0.0,0.0,0.0,0.0,0.0,0.0,0.0,0.0,0.0,0.0,0.0,0.0,0.0,0.0,0.0,0.0,0.0,0.0,0.0,0.0,0.0,0.0,0.0,0.0,0.0,0.0,0.6044,0.6075,0.6245,0.0,0.0,0.0,0.0,0.0,0.0,0.0,0.0,0.0,0.0,0.0,0.0,0.0,0.0,0.0,0.0,0.0,0.0,0.0,0.0,0.0,0.0,0.0,0.0,0.0,0.0,0.0,0.0,0.0,0.0,0.0,0.0,0.0,0.0,0.0,0.0,0.0,0.0,0.0,0.0,0.0,0.0,0.0,0.0,0.0,0.0,0.0,0.0,0.0,0.0,0.0,0.0,0.0,0.0,0.0,0.0,0.0,0.0,0.0,0.0,0.0,0.0,0.0,0.0,0.0,0.0,0.0,0.0,0.0,0.0,0.0,0.0,0.0,0.0,0.0,0.0,0.0,0.0,0.0,0.0,0.0,0.0,0.0,0.0,0.0,0.0,0.0,0.0,0.0,0.0,0.0,0.0,0.0,0.0,0.0,0.0,0.0,0.0,0.0,0.0,0.0,0.0,0.0,0.0,0.0,0.0,0.0,0.0,0.0,0.0,0.572,0.6089,0.5848,0.0,0.6014,0.0,0.0,0.0,0.0,0.0,0.0,0.0,0.0,0.0,0.0,0.0,0.0,0.0,0.0,0.0,0.0,0.0,0.0,0.0,0.0,0.0,0.0,0.0,0.0,0.0,0.0,0.0,0.0,0.0,0.0,0.0,0.0,0.0,0.0,0.0,0.0,0.0,0.0,0.0,0.0,0.0,0.0,0.0,0.0,0.0,0.0,0.0,0.0,0.0,0.0,0.0,0.0,0.0,0.0,0.0,0.0,0.0,0.0,0.0,0.0,0.0,0.0,0.0,0.0,0.0,0.0,0.0,0.0,0.0,0.0,0.0,0.0,0.0,0.0,0.0,0.0,0.0,0.0,0.0,0.0,0.0,0.0,0.0,0.0,0.0,0.0,0.0,0.0,0.0,0.0,0.0,0.0,0.0,0.0,0.0,0.0,0.0,0.0,0.0,0.0,0.0,0.0,0.0,0.0,0.0,0.0,0.0,0.0,0.0,0.0,0.4997,0.5209,0.5293,0.5307,0.0,0.0,0.0,0.0,0.0,0.0,0.0,0.0,0.0,0.0,0.0,0.0,0.0,0.0,0.0,0.0,0.0,0.0,0.0,0.0,0.0,0.0,0.0,0.0,0.0,0.0,0.0,0.0,0.0,0.0,0.0,0.0,0.0,0.0,0.0,0.0,0.0,0.0,0.0,0.0,0.0,0.0,0.0,0.0,0.0,0.0,0.0,0.0,0.0,0.0,0.0,0.0,0.0,0.0,0.0,0.0,0.0,0.0,0.0,0.0,0.0,0.0,0.0,0.0,0.0,0.0,0.0,0.0,0.0,0.0,0.0,0.0,0.0,0.0,0.0,0.0,0.0,0.0,0.0,0.0,0.0,0.0,0.0,0.0,0.0,0.0,0.0,0.0,0.0,0.0,0.0,0.0,0.0,0.0,0.0,0.0,0.0,0.0,0.0,0.0,0.0,0.0,0.0,0.0,0.0,0.0,0.0,0.0,0.0,0.0,0.4282,0.4436,0.4555,0.4957,0.5037,0.4768,0.0,0.0,0.0,0.0,0.0,0.0,0.0,0.0,0.0,0.0,0.0,0.0,0.0,0.0,0.0,0.0,0.0,0.0,0.0,0.0,0.0,0.0,0.0,0.0,0.0,0.0,0.0,0.0,0.0,0.0,0.0,0.0,0.0,0.0,0.0,0.0,0.0,0.0,0.0,0.0,0.0,0.0,0.0,0.0,0.0,0.0,0.0,0.0,0.0,0.0,0.0,0.0,0.0,0.0,0.0,0.0,0.0,0.0,0.0,0.0,0.0,0.0,0.0,0.0,0.0,0.0,0.0,0.0,0.0,0.0,0.0,0.0,0.0,0.0,0.0,0.0,0.0,0.0,0.0,0.0,0.0,0.0,0.0,0.0,0.0,0.0,0.0,0.0,0.0,0.0,0.0,0.0,0.0,0.0,0.0,0.0,0.0,0.0,0.0,0.0,0.0,0.0,0.0,0.0,0.0,0.0,0.0,0.0,0.4006,0.4048,0.4188,0.4393,0.4991,0.5085,0.0,0.0,0.0,0.0,0.0,0.0,0.0,0.0,0.0,0.0,0.0,0.0,0.0,0.0,0.0,0.0,0.0,0.0,0.0,0.0,0.0,0.0,0.0,0.0,0.0,0.0,0.0,0.0,0.0,0.0,0.0,0.0,0.0,0.0,0.0,0.0,0.0,0.0,0.0,0.0,0.0,0.0,0.0,0.0,0.0,0.0,0.0,0.0,0.0,0.0,0.0,0.0,0.0,0.0,0.0,0.0,0.0,0.0,0.0,0.0,0.0,0.0,0.0,0.0,0.0,0.0,0.0,0.0,0.0,0.0,0.0,0.0,0.0,0.0,0.0,0.0,0.0,0.0,0.0,0.0,0.0,0.0,0.0,0.0,0.0,0.0,0.0,0.0,0.0,0.0,0.0,0.0,0.0,0.0,0.0,0.0,0.0,0.0,0.0,0.0,0.0,0.0,0.0,0.0,0.0,0.0,0.0,0.0,0.0,0.3389,0.3602,0.3765,0.3906,0.4217,0.4342,0.0,0.0,0.0,0.0,0.0,0.0,0.0,0.0,0.0,0.0,0.0,0.0,0.0,0.0,0.0,0.0,0.0,0.0,0.0,0.0,0.0,0.0,0.0,0.0,0.0,0.0,0.0,0.0,0.0,0.0,0.0,0.0,0.0,0.0,0.0,0.0,0.0,0.0,0.0,0.0,0.0,0.0,0.0,0.0,0.0,0.0,0.0,0.0,0.0,0.0,0.0,0.0,0.0,0.0,0.0,0.0,0.0,0.0,0.0,0.0,0.0,0.0,0.0,0.0,0.0,0.0,0.0,0.0,0.0,0.0,0.0,0.0,0.0,0.0,0.0,0.0,0.0,0.0,0.0,0.0,0.0,0.0,0.0,0.0,0.0,0.0,0.0,0.0,0.0,0.0,0.0,0.0,0.0,0.0,0.0,0.0,0.0,0.0,0.0,0.0,0.0,0.0,0.0,0.0,0.0,0.0,0.0,0.0,0.0,0.3215,0.0,0.3689,0.3635,0.3804,0.3846,0.0,0.0,0.0,0.0,0.0,0.0,0.0,0.0,0.0,0.0,0.0,0.0,0.0,0.0,0.0,0.0,0.0,0.0,0.0,0.0,0.0,0.0,0.0,0.0,0.0,0.0,0.0,0.0,0.0,0.0,0.0,0.0,0.0,0.0,0.0,0.0,0.0,0.0,0.0,0.0,0.0,0.0,0.0,0.0,0.0,0.0,0.0,0.0,0.0,0.0,0.0,0.0,0.0,0.0,0.0,0.0,0.0,0.0,0.0,0.0,0.0,0.0,0.0,0.0,0.0,0.0,0.0,0.0,0.0,0.0,0.0,0.0,0.0,0.0,0.0,0.0,0.0,0.0,0.0,0.0,0.0,0.0,0.0,0.0,0.0,0.0,0.0,0.0,0.0,0.0,0.0,0.0,0.0,0.0,0.0,0.0,0.0,0.0,0.0,0.0,0.0,0.0,0.0,0.0,0.0,0.0,0.0,0.0,0.3339,0.361,0.3899,0.3945,0.3698,0.3761,0.3742,0.0,0.0,0.0,0.0,0.0,0.0,0.0,0.0,0.0,0.0,0.0,0.0,0.0,0.0,0.0,0.0,0.0,0.0,0.0,0.0,0.0,0.0,0.0,0.0,0.0,0.0,0.0,0.0,0.0,0.0,0.0,0.0,0.0,0.0,0.0,0.0,0.0,0.0,0.0,0.0,0.0,0.0,0.0,0.0,0.0,0.0,0.0,0.0,0.0,0.0,0.0,0.0,0.0,0.0,0.0,0.0,0.0,0.0,0.0,0.0,0.0,0.0,0.0,0.0,0.0,0.0,0.0,0.0,0.0,0.0,0.0,0.0,0.0,0.0,0.0,0.0,0.0,0.0,0.0,0.0,0.0,0.0,0.0,0.0,0.0,0.0,0.0,0.0,0.0,0.0,0.0,0.0,0.0,0.0,0.0,0.0,0.0,0.0,0.0,0.0,0.0,0.0,0.0,0.0,0.0,0.0,0.0,0.0,0.0,0.3822,0.3912,0.3862,0.3591,0.3512,0.3499,0.0,0.0,0.0,0.0,0.0,0.0,0.0,0.0,0.0,0.0,0.0,0.0,0.0,0.0,0.0,0.0,0.0,0.0,0.0,0.0,0.0,0.0,0.0,0.0,0.0,0.0,0.0,0.0,0.0,0.0,0.0,0.0,0.0,0.0,0.0,0.0,0.0,0.0,0.0,0.0,0.0,0.0,0.0,0.0,0.0,0.0,0.0,0.0,0.0,0.0,0.0,0.0,0.0,0.0,0.0,0.0,0.0,0.0,0.0,0.0,0.0,0.0,0.0,0.0,0.0,0.0,0.0,0.0,0.0,0.0,0.0,0.0,0.0,0.0,0.0,0.0,0.0,0.0,0.0,0.0,0.0,0.0,0.0,0.0,0.0,0.0,0.0,0.0,0.0,0.0,0.0,0.0,0.0,0.0,0.0,0.0,0.0,0.0,0.0,0.0,0.0,0.0,0.0,0.0,0.0,0.0,0.0,0.0,0.0,0.4343,0.4177,0.4004,0.3815,0.3471,0.3349,0.3517,0.0,0.0,0.0,0.0,0.0,0.0,0.0,0.0,0.0,0.0,0.0,0.0,0.0,0.0,0.0,0.0,0.0,0.0,0.0,0.0,0.0,0.0,0.0,0.0,0.0,0.0,0.0,0.0,0.0,0.0,0.0,0.0,0.0,0.0,0.0,0.0,0.0,0.0,0.0,0.0,0.0,0.0,0.0,0.0,0.0,0.0,0.0,0.0,0.0,0.0,0.0,0.0,0.0,0.0,0.0,0.0,0.0,0.0,0.0,0.0,0.0,0.0,0.0,0.0,0.0,0.0,0.0,0.0,0.0,0.0,0.0,0.0,0.0,0.0,0.0,0.0,0.0,0.0,0.0,0.0,0.0,0.0,0.0,0.0,0.0,0.0,0.0,0.0,0.0,0.0,0.0,0.0,0.0,0.0,0.0,0.0,0.0,0.0,0.0,0.0,0.0,0.0,0.0,0.0,0.0,0.0,0.0,0.0,0.5143,0.4681,0.4401,0.4308,0.3621,0.3285,0.0,0.0,0.0,0.0,0.0,0.0,0.0,0.0,0.0,0.0,0.0,0.0,0.0,0.0,0.0,0.0,0.0,0.0,0.0,0.0,0.0,0.0,0.0,0.0,0.0,0.0,0.0,0.0,0.0,0.0,0.0,0.0,0.0,0.0,0.0,0.0,0.0,0.0,0.0,0.0,0.0,0.0,0.0,0.0,0.0,0.0,0.0,0.0,0.0,0.0,0.0,0.0,0.0,0.0,0.0,0.0,0.0,0.0,0.0,0.0,0.0,0.0,0.0,0.0,0.0,0.0,0.0,0.0,0.0,0.0,0.0,0.0,0.0,0.0,0.0,0.0,0.0,0.0,0.0,0.0,0.0,0.0,0.0,0.0,0.0,0.0,0.0,0.0,0.0,0.0,0.0,0.0,0.0,0.0,0.0,0.0,0.0,0.0,0.0,0.0,0.0,0.0,0.0,0.0,0.0,0.0,0.0,0.0,0.0,0.5667,0.5449,0.5022,0.4376,0.3806,0.3436,0.0,0.0,0.0,0.0,0.0,0.0,0.0,0.0,0.0,0.0,0.0,0.0,0.0,0.0,0.0,0.0,0.0,0.0,0.0,0.0,0.0,0.0,0.0,0.0,0.0,0.0,0.0,0.0,0.0,0.0,0.0,0.0,0.0,0.0,0.0,0.0,0.0,0.0,0.0,0.0,0.0,0.0,0.0,0.0,0.0,0.0,0.0,0.0,0.0,0.0,0.0,0.0,0.0,0.0,0.0,0.0,0.0,0.0,0.0,0.0,0.0,0.0,0.0,0.0,0.0,0.0,0.0,0.0,0.0,0.0,0.0,0.0,0.0,0.0,0.0,0.0,0.0,0.0,0.0,0.0,0.0,0.0,0.0,0.0,0.0,0.0,0.0,0.0,0.0,0.0,0.0,0.0,0.0,0.0,0.0,0.0,0.0,0.0,0.0,0.0,0.0,0.0,0.0,0.0,0.0,0.0,0.0,0.0,0.5509,0.6029,0.6109,0.5783,0.5083,0.424,0.3742,0.0,0.0,0.0,0.0,0.0,0.0,0.0,0.0,0.0,0.0,0.0,0.0,0.0,0.0,0.0,0.0,0.0,0.0,0.0,0.0,0.0,0.0,0.0,0.0,0.0,0.0,0.0,0.0,0.0,0.0,0.0,0.0,0.0,0.0,0.0,0.0,0.0,0.0,0.0,0.0,0.0,0.0,0.0,0.0,0.0,0.0,0.0,0.0,0.0,0.0,0.0,0.0,0.0,0.0,0.0,0.0,0.0,0.0,0.0,0.0,0.0,0.0,0.0,0.0,0.0,0.0,0.0,0.0,0.0,0.0,0.0,0.0,0.0,0.0,0.0,0.0,0.0,0.0,0.0,0.0,0.0,0.0,0.0,0.0,0.0,0.0,0.0,0.0,0.0,0.0,0.0,0.0,0.0,0.0,0.0,0.0,0.0,0.0,0.0,0.0,0.0,0.0,0.0,0.0,0.0,0.0,0.0,0.0,0.577,0.6201,0.6595,0.6546,0.6082,0.4791,0.4144,0.0,0.0,0.0,0.0,0.0,0.0,0.0,0.0,0.0,0.0,0.0,0.0,0.0,0.0,0.0,0.0,0.0,0.0,0.0,0.0,0.0,0.0,0.0,0.0,0.0,0.0,0.0,0.0,0.0,0.0,0.0,0.0,0.0,0.0,0.0,0.0,0.0,0.0,0.0,0.0,0.0,0.0,0.0,0.0,0.0,0.0,0.0,0.0,0.0,0.0,0.0,0.0,0.0,0.0,0.0,0.0,0.0,0.0,0.0,0.0,0.0,0.0,0.0,0.0,0.0,0.0,0.0,0.0,0.0,0.0,0.0,0.0,0.0,0.0,0.0,0.0,0.0,0.0,0.0,0.0,0.0,0.0,0.0,0.0,0.0,0.0,0.0,0.0,0.0,0.0,0.0,0.0,0.0,0.0,0.0,0.0,0.0,0.0,0.0,0.0,0.0,0.0,0.0,0.0,0.0,0.0,0.0,0.0,0.5887,0.6389,0.666,0.6728,0.6633,0.5557,0.475,0.0,0.0,0.0,0.0,0.0,0.0,0.0,0.0,0.0,0.0,0.0,0.0,0.0,0.0,0.0,0.0,0.0,0.0,0.0,0.0,0.0,0.0,0.0,0.0,0.0,0.0,0.0,0.0,0.0,0.0,0.0,0.0,0.0,0.0,0.0,0.0,0.0,0.0,0.0,0.0,0.0,0.0,0.0,0.0,0.0,0.0,0.0,0.0,0.7976,0.0,0.0,0.0,0.0,0.0,0.0,0.0,0.0,0.0,0.0,0.0,0.0,0.0,0.0,0.0,0.0,0.0,0.0,0.0,0.0,0.0,0.0,0.0,0.0,0.0,0.0,0.0,0.0,0.0,0.0,0.0,0.0,0.0,0.0,0.0,0.0,0.0,0.0,0.0,0.0,0.0,0.0,0.0,0.0,0.0,0.0,0.0,0.0,0.0,0.0,0.0,0.0,0.0,0.0,0.0,0.0,0.0,0.0,0.0,0.6294,0.6813,0.7031,0.7102,0.7052,0.6413,0.5748,0.0,0.0,0.0,0.0,0.0,0.0,0.0,0.0,0.0,0.0,0.0,0.0,0.0,0.0,0.0,0.0,0.0,0.0,0.0,0.0,0.0,0.0,0.0,0.0,0.0,0.0,0.0,0.0,0.0,0.0,0.0,0.0,0.0,0.0,0.0,0.0,0.0,0.0,0.0,0.0,0.0,0.0,0.0,0.0,0.0,0.0,0.0,0.0,0.0,0.0,0.0,0.0,0.0,0.0,0.0,0.0,0.0,0.0,0.0,0.0,0.0,0.0,0.0,0.0,0.0,0.0,0.0,0.0,0.0,0.0,0.0,0.0,0.0,0.0,0.0,0.0,0.0,0.0,0.0,0.0,0.0,0.0,0.0,0.0,0.0,0.0,0.0,0.0,0.0,0.0,0.0,0.0,0.0,0.0,0.0,0.0,0.0,0.0,0.0,0.0,0.0,0.0,0.0,0.0,0.0,0.0,0.0,0.6292,0.6797,0.7269,0.7481,0.7535,0.7417,0.7208,0.6699,0.5883,0.0,0.0,0.0,0.0,0.0,0.0,0.0,0.0,0.0,0.0,0.0,0.0,0.0,0.0,0.0,0.0,0.0,0.0,0.0,0.0,0.0,0.0,0.0,0.0,0.0,0.0,0.0,0.0,0.0,0.0,0.0,0.0,0.0,0.0,0.0,0.0,0.0,0.0,0.5343,0.5474,0.0,0.0,0.0,0.0,0.0,0.0,0.0,0.0,0.6989,0.0,0.0,0.0,0.0,0.0,0.0,0.0,0.0,0.0,0.0,0.0,0.0,0.0,0.0,0.0,0.0,0.0,0.0,0.0,0.0,0.0,0.0,0.0,0.0,0.0,0.0,0.0,0.0,0.0,0.0,0.0,0.0,0.0,0.0,0.0,0.0,0.0,0.0,0.0,0.0,0.0,0.0,0.0,0.0,0.0,0.0,0.0,0.0,0.0,0.0,0.0,0.0,0.0,0.0,0.0,0.0,0.6156,0.6689,0.715,0.7591,0.7812,0.7795,0.7511,0.7359,0.7041,0.6497,0.0,0.0,0.0,0.0,0.0,0.0,0.0,0.0,0.0,0.0,0.0,0.0,0.0,0.0,0.0,0.0,0.0,0.0,0.0,0.0,0.0,0.0,0.0,0.0,0.0,0.0,0.0,0.0,0.0,0.0,0.0,0.0,0.0,0.0,0.0,0.0,0.0,0.0,0.0,0.5845,0.6176,0.0,0.0,0.0,0.0,0.0,0.0,0.0,0.0,0.6832,0.0,0.0,0.0,0.0,0.0,0.0,0.0,0.0,0.0,0.0,0.0,0.0,0.0,0.0,0.0,0.0,0.0,0.0,0.0,0.0,0.0,0.0,0.0,0.0,0.0,0.0,0.0,0.0,0.0,0.0,0.0,0.0,0.0,0.0,0.0,0.0,0.0,0.0,0.0,0.0,0.0,0.0,0.0,0.0,0.0,0.0,0.0,0.0,0.0,0.0,0.0,0.0,0.0,0.0,0.0,0.6671,0.7161,0.762,0.8133,0.8195,0.8154,0.7928,0.7573,0.72,0.0,0.0,0.0,0.0,0.0,0.0,0.0,0.0,0.0,0.0,0.0,0.0,0.0,0.0,0.0,0.0,0.0,0.0,0.0,0.0,0.0,0.0,0.0,0.0,0.0,0.0,0.0,0.0,0.0,0.0,0.0,0.0,0.0,0.0,0.0,0.0,0.0,0.0,0.0,0.0,0.5798,0.6007,0.6195,0.0,0.0,0.0,0.0,0.0,0.0,0.6526,0.661,0.0,0.0,0.0,0.0,0.0,0.0,0.0,0.0,0.0,0.0,0.0,0.0,0.0,0.0,0.0,0.0,0.0,0.0,0.0,0.0,0.0,0.0,0.0,0.0,0.0,0.0,0.0,0.0,0.0,0.0,0.0,0.0,0.0,0.0,0.0,0.0,0.0,0.0,0.0,0.0,0.0,0.0,0.0,0.0,0.0,0.0,0.0,0.0,0.0,0.0,0.0,0.0,0.0,0.0,0.0,0.7278,0.7731,0.8215,0.8678,0.87,0.8631,0.8404,0.7835,0.7304,0.0,0.0,0.0,0.0,0.0,0.0,0.0,0.0,0.0,0.0,0.0,0.0,0.0,0.0,0.0,0.0,0.0,0.0,0.0,0.0,0.0,0.0,0.0,0.0,0.0,0.0,0.0,0.0,0.0,0.0,0.0,0.0,0.0,0.0,0.0,0.0,0.0,0.0,0.0,0.0,0.0,0.586,0.642,0.6392,0.0,0.0,0.0,0.0,0.6795,0.6607,0.0,0.0,0.0,0.0,0.0,0.0,0.0,0.0,0.0,0.0,0.0,0.0,0.0,0.0,0.0,0.0,0.0,0.0,0.0,0.0,0.0,0.0,0.0,0.0,0.0,0.0,0.0,0.0,0.0,0.0,0.0,0.0,0.0,0.0,0.0,0.0,0.0,0.0,0.0,0.0,0.0,0.0,0.0,0.0,0.0,0.0,0.0,0.0,0.0,0.0,0.0,0.0,0.0,0.0,0.0,0.0,0.7972,0.8405,0.8872,0.936,0.9396,0.9107,0.8504,0.8078,0.744,0.0,0.0,0.0,0.0,0.0,0.0,0.0,0.0,0.0,0.0,0.0,0.0,0.0,0.0,0.0,0.0,0.0,0.0,0.0,0.0,0.0,0.0,0.0,0.0,0.0,0.0,0.0,0.0,0.0,0.0,0.0,0.0,0.0,0.0,0.0,0.0,0.0,0.0,0.0,0.0,0.0,0.6369,0.6476,0.68,0.691,0.0,0.0,0.6593,0.6695,0.6503,0.0,0.0,0.0,0.0,0.0,0.0,0.0,0.0,0.0,0.0,0.0,0.0,0.0,0.0,0.0,0.0,0.0,0.0,0.0,0.0,0.0,0.0,0.0,0.0,0.0,0.0,0.0,0.0,0.0,0.0,0.0,0.0,0.0,0.0,0.0,0.0,0.0,0.0,0.0,0.0,0.0,0.0,0.0,0.0,0.0,0.0,0.0,0.0,0.0,0.0,0.0,0.0,0.0,0.0,0.0,0.7661,0.8712,0.9253,0.9774,1.0312,1.0181,0.9784,0.9337,0.8355,0.7483,0.0,0.0,0.0,0.0,0.0,0.0,0.0,0.0,0.0,0.0,0.0,0.0,0.0,0.0,0.0,0.0,0.0,0.0,0.0,0.0,0.0,0.0,0.0,0.0,0.0,0.0,0.0,0.0,0.0,0.0,0.0,0.0,0.0,0.0,0.0,0.0,0.0,0.0,0.0,0.0,0.0,0.0,0.6851,0.6943,0.0,0.0,0.0,0.6932,0.7051,0.0,0.0,0.0,0.0,0.0,0.0,0.0,0.0,0.0,0.0,0.0,0.0,0.0,0.0,0.0,0.0,0.0,0.0,0.0,0.0,0.0,0.0,0.0,0.0,0.0,0.0,0.0,0.0,0.0,0.0,0.0,0.0,0.0,0.0,0.0,0.0,0.0,0.0,0.0,0.0,0.0,0.0,0.0,0.0,0.0,0.0,0.0,0.0,0.0,0.0,0.0,0.0,0.0,0.0,0.0,0.0,0.0,0.9112,0.9854,1.0418,1.0854,1.0728,1.0401,0.9909,0.8666,0.0,0.0,0.0,0.0,0.0,0.0,0.0,0.0,0.0,0.0,0.0,0.0,0.0,0.0,0.0,0.0,0.0,0.0,0.0,0.0,0.0,0.0,0.0,0.0,0.0,0.0,0.0,0.4662,0.0,0.0,0.0,0.0,0.0,0.0,0.0,0.0,0.0,0.0,0.0,0.0,0.0,0.0,0.6673,0.7321,0.7363,0.7461,0.0,0.0,0.7249,0.7335,0.7004,0.6508,0.0,0.0,0.0,0.0,0.0,0.0,0.0,0.0,0.0,0.0,0.0,0.0,0.0,0.0,0.0,0.0,0.0,0.0,0.0,0.0,0.0,0.0,0.0,0.0,0.0,0.0,0.0,0.0,0.0,0.0,0.0,0.0,0.0,0.0,0.0,0.0,0.0,0.0,0.0,0.0,0.0,0.0,0.0,0.0,0.0,0.0,0.0,0.0,0.0,0.0,0.0,0.0,0.0,0.0,0.0,0.8845,0.9965,1.0552,1.0567,1.0813,1.0654,0.9936,0.902,0.8112,0.0,0.0,0.0,0.0,0.0,0.0,0.0,0.0,0.0,0.0,0.0,0.0,0.0,0.0,0.0,0.0,0.0,0.0,0.0,0.0,0.0,0.0,0.0,0.0,0.0,0.0,0.0,0.0,0.0,0.0,0.0,0.0,0.0,0.0,0.0,0.0,0.0,0.0,0.0,0.0,0.0,0.7258,0.7874,0.8203,0.8343,0.0,0.0,0.7436,0.725,0.6868,0.6577,0.639,0.0,0.0,0.0,0.0,0.0,0.0,0.0,0.0,0.0,0.0,0.0,0.0,0.0,0.0,0.0,0.0,0.0,0.0,0.0,0.0,0.0,0.0,0.0,0.0,0.0,0.0,0.0,0.0,0.0,0.0,0.0,0.0,0.0,0.0,0.0,0.0,0.0,0.0,0.0,0.0,0.0,0.0,0.0,0.0,0.0,0.0,0.0,0.0,0.0,0.0,0.0,0.0,0.0,0.815,0.9159,1.0054,1.0732,1.1076,1.103,1.0821,1.0453,0.9392,0.8395,0.0,0.0,0.0,0.0,0.0,0.0,0.0,0.0,0.0,0.0,0.0,0.0,0.0,0.0,0.0,0.0,0.0,0.0,0.0,0.0,0.0,0.0,0.0,0.0,0.0,0.0,0.0,0.0,0.4301,0.4322,0.4487,0.0,0.0,0.0,0.0,0.0,0.0,0.0,0.0,0.0,0.0,0.7448,0.8034,0.8352,0.0,0.0,0.8078,0.755,0.7304,0.697,0.6613,0.6117,0.6282,0.0,0.0,0.0,0.0,0.0,0.0,0.0,0.0,0.0,0.0,0.0,0.0,0.0,0.0,0.0,0.0,0.0,0.0,0.0,0.0,0.0,0.0,0.0,0.0,0.0,0.0,0.0,0.0,0.0,0.0,0.0,0.0,0.0,0.0,0.0,0.0,0.0,0.0,0.0,0.0,0.0,0.0,0.0,0.0,0.0,0.0,0.0,0.0,0.0,0.0,0.0,0.0,0.8171,0.9247,1.0057,1.0693,1.1169,1.1058,1.0893,1.0661,0.9558,0.8671,0.0,0.0,0.0,0.0,0.0,0.0,0.0,0.0,0.0,0.0,0.0,0.0,0.0,0.0,0.0,0.0,0.0,0.0,0.0,0.0,0.0,0.0,0.0,0.0,0.0,0.0,0.0,0.0,0.4474,0.4411,0.452,0.0,0.0,0.0,0.0,0.0,0.0,0.0,0.0,0.0,0.0,0.7863,0.8372,0.8636,0.8834,0.887,0.8222,0.7596,0.7224,0.7065,0.6707,0.5882,0.0,0.0,0.0,0.0,0.0,0.0,0.0,0.0,0.0,0.0,0.0,0.0,0.0,0.0,0.0,0.0,0.0,0.0,0.0,0.0,0.0,0.0,0.0,0.0,0.0,0.0,0.0,0.0,0.0,0.0,0.9038,0.0,0.0,0.0,0.0,0.0,0.0,0.0,0.0,0.0,0.0,0.0,0.0,0.0,0.0,0.0,0.0,0.0,0.0,0.0,0.0,0.0,0.0,0.8142,0.8913,0.993,1.0522,1.0569,1.082,1.0836,1.0486,0.9595,0.8974,0.8763,0.0,0.0,0.0,0.0,0.0,0.0,0.0,0.0,0.0,0.0,0.0,0.0,0.0,0.0,0.0,0.0,0.0,0.0,0.0,0.0,0.0,0.0,0.0,0.0,0.0,0.0,0.5281,0.4965,0.4796,0.0,0.0,0.0,0.0,0.0,0.0,0.0,0.0,0.0,0.0,0.7891,0.8683,0.8928,0.9262,0.9377,0.9146,0.8371,0.7586,0.6961,0.7073,0.6852,0.0,0.0,0.0,0.0,0.0,0.0,0.0,0.0,0.0,0.0,0.0,0.0,0.0,0.0,0.0,0.0,0.0,0.0,0.0,0.0,0.0,0.0,0.0,0.0,0.0,0.0,0.0,1.2054,1.1915,0.0,0.0,0.0,0.0,0.0,0.0,0.0,0.0,0.0,0.0,0.0,1.1979,1.148,0.0,0.0,0.0,0.0,0.0,0.0,0.0,0.0,0.0,0.0,0.0,0.0,0.8154,0.9082,0.9546,0.9978,1.0506,1.0581,1.0649,1.0522,0.9739,0.9024,0.8431,0.0,0.0,0.0,0.0,0.0,0.0,0.0,0.0,0.0,0.0,0.0,0.0,0.0,0.0,0.0,0.0,0.0,0.0,0.0,0.0,0.0,0.0,0.0,0.0,0.0,0.5473,0.0,0.0,0.0,0.0,0.0,0.0,0.0,0.0,0.0,0.0,0.0,0.5994,0.7256,0.8126,0.8832,0.9328,0.9676,0.9818,0.0,0.0,0.0,0.0,0.0,0.0,0.0,0.0,0.0,0.0,0.0,0.0,0.0,0.0,0.9552,0.9716,0.9637,0.935,0.8884,0.0,0.0,0.0,0.0,0.0,0.0,0.0,0.0,0.0,0.0,0.0,0.0,0.0,0.0,1.4297,0.0,1.3358,0.0,0.0,0.0,0.0,0.0,0.0,0.0,0.0,1.5014,1.4814,1.3974,1.3519,1.3292,0.0,1.285,1.2194,0.0,0.0,0.0,0.0,0.0,0.0,0.0,0.0,0.865,0.9552,0.9757,1.0156,1.0728,1.0761,1.0761,1.0761,1.0105,0.9305,0.8417,0.831,0.8105,0.0,0.0,0.0,0.0,0.0,0.0,0.0,0.0,0.0,0.0,0.0,0.0,0.0,0.0,0.0,0.0,0.0,0.0,0.0,0.0,0.0,0.0,0.0,0.5976,0.0,0.0,0.0,0.0,0.0,0.0,0.0,0.0,0.0,0.5709,0.5964,0.6548,0.7532,0.8328,0.8933,0.935,0.0,0.0,0.0,0.0,0.0,0.0,0.0,0.8218,0.7433,0.7477,0.7793,0.8326,0.8898,0.9271,0.931,0.0,0.0,1.0381,1.0235,0.9842,0.9225,0.9389,0.9283,0.8187,0.834,0.8766,0.0,0.0,0.0,0.0,0.0,0.0,0.0,0.0,1.6565,1.6684,0.0,1.5413,0.0,0.0,0.0,0.0,0.0,1.5135,0.0,0.0,1.6852,1.6713,1.6408,1.5749,1.5522,1.5581,1.4896,1.4395,1.4007,1.1591,0.0,0.0,0.0,0.0,0.0,0.0,0.9736,1.0363,1.0591,1.0922,1.1301,1.1318,1.1301,1.1249,1.0655,0.9821,0.8905,0.8891,0.8657,0.8084,0.7685,0.0,0.0,0.0,0.0,0.0,0.0,0.0,0.0,0.0,0.0,0.0,0.0,0.0,0.0,0.0,0.0,0.0,0.0,0.0,0.0,0.6887,0.0,0.0,0.0,0.0,0.0,0.0,0.0,0.0,0.0,0.0,0.6331,0.7061,0.7617,0.7633,0.0,0.0,0.0,0.0,0.9271,0.9401,0.9503,0.9266,0.842,0.8766,0.8798,0.7694,0.0,0.0,0.8545,0.8741,0.9021,0.9171,0.9542,1.0014,1.0702,1.0309,0.9762,0.9256,0.9329,0.905,0.8269,0.8596,0.9072,2.1665,0.0,0.0,0.0,0.0,1.9114,1.9184,1.8916,1.9269,1.9217,1.8838,1.7956,0.0,0.0,0.0,0.0,0.0,0.0,1.7847,1.8167,1.8535,1.8461,1.7872,1.7195,1.6836,1.6616,1.6256,1.5894,1.5477,1.4079,1.2518,1.0924,0.0,0.0,0.0,0.0,1.0709,1.1315,1.1295,1.1454,1.1801,1.1801,1.1531,1.0974,1.0876,1.0459,0.9692,0.9829,0.956,0.8814,0.8757,0.0,0.0,0.0,0.0,0.0,0.0,0.0,0.0,0.0,0.0,0.0,0.0,0.0,0.0,0.0,0.0,0.0,0.0,0.0,0.6765,0.7187,0.7303,0.0,0.0,0.0,0.0,0.0,0.0,0.0,0.0,0.0,0.7355,0.7418,0.7708,0.0,0.0,0.8881,0.9142,0.9331,0.9503,0.97,1.0144,0.0,0.0,0.9959,0.9996,0.9319,0.9405,0.9447,0.9261,0.9403,0.952,0.9442,0.9709,1.0018,1.0094,1.0196,1.0089,0.9803,0.9637,0.9501,0.9249,0.9246,0.9333,2.4833,2.2165,2.19,2.1377,2.0887,2.1275,2.1329,2.1043,2.1276,2.125,2.0991,2.0184,1.9749,1.9502,1.8282,0.0,0.0,0.0,1.9658,1.9883,1.993,1.9778,1.9327,1.8733,1.8288,1.8013,1.7571,1.7074,1.6615,1.5618,1.4424,1.3073,0.0,0.0,1.1747,1.1733,1.1836,1.203,1.2035,1.2167,1.2363,1.2363,1.195,1.1142,1.1192,1.0899,1.0195,1.0312,1.0149,0.9522,0.9423,0.8704,0.0,0.0,0.0,0.0,0.0,0.0,0.0,0.0,0.0,0.0,0.0,0.5411,0.5712,0.0,0.0,0.0,0.6487,0.6862,0.7511,0.7878,0.0,0.0,0.0,0.0,0.0,0.0,0.0,0.6884,0.7805,0.8334,0.8174,0.8126,0.8234,0.8516,0.8606,0.8675,0.8971,0.0,0.9418,0.9786,1.0382,1.0676,1.0328,1.0686,1.0876,1.0433,1.0319,1.022,1.0062,1.0014,0.9941,0.9765,0.9843,0.9941,0.9823,0.9941,1.0002,0.9783,0.9711,0.962,0.9597,0.9488,0.9525,2.7577,2.6769,2.5044,2.3936,2.3358,2.3275,2.328,2.3315,2.2844,2.2897,2.3263,2.2243,2.1694,2.1432,2.0217,0.0,2.1195,2.1087,2.1259,2.1741,2.115,2.0844,2.0819,2.0213,1.9756,1.947,1.8773,1.8148,1.7479,1.6558,1.5924,1.554,1.4262,1.3362,1.2822,1.305,1.2982,1.2536,1.2819,1.2968,1.2988,1.2968,1.2555,1.1669,1.165,1.1279,1.0468,1.0582,1.0494,1.0154,0.9736,0.914,0.8283,0.0,0.0,0.0,0.0,0.0,0.0,0.0,0.0,0.0,0.0,0.0,0.0,0.0,0.0,0.0,0.751,0.0,0.843,0.8775,0.0,0.0,0.0,0.7537,0.7562,0.6952,0.6897,0.7861,0.0,0.0,0.8967,0.914,0.9011,0.8338,0.8332,0.8455,0.8683,0.8798,0.9079,0.9675,1.0286,1.0669,1.0714,1.1186,1.151,1.1236,1.0946,1.0803,1.0794,1.0625,1.0332,1.0059,1.0019,0.998,0.9862,0.9802,0.969,0.9507,0.9619,0.9633,0.9545,0.96,0.9667,3.0183,2.9449,2.8345,2.6924,2.538,2.538,2.5082,2.457,2.4883,2.4831,2.4517,2.4256,2.3597,2.2545,2.1764,2.1529,2.1812,2.2082,2.228,2.235,2.2052,2.192,2.1895,2.1343,2.0811,2.0221,1.9912,1.9298,1.846,1.7871,1.7427,1.7125,1.6559,1.5669,1.4481,1.4163,1.3949,1.3826,1.3552,1.343,1.343,1.343,1.3047,1.2146,1.2126,1.1716,1.0835,1.0947,1.0851,1.0425,1.0131,0.9508,0.8538,0.8042,0.0,0.0,0.0,0.0,0.0,0.0,0.0,0.0,0.0,0.6835,0.7057,0.0,0.7582,0.0,0.8541,0.8944,0.8867,0.9114,0.0,0.0,0.857,0.8168,0.7537,0.8014,0.8419,0.8348,0.9201,0.9748,0.9754,0.9648,0.9368,0.8807,0.8553,0.8455,0.8561,0.8683,0.9081,0.9907,1.0338,1.0803,1.1454,1.1962,1.2206,1.2102,1.1973,1.1787,1.1346,1.1186,1.0965,1.043,1.039,1.0312,1.0019,0.9941,0.9922,0.9867,0.9806,0.9804,0.9867,0.9845,0.9744,3.1711,3.1368,3.0644,2.9525,2.8048,2.7033,2.6258,2.5808,2.5798,2.5641,2.5354,2.5354,2.4797,2.3878,2.3508,2.3166,2.2959,2.3097,2.3167,2.3167,2.268,2.2438,2.2412,2.1801,2.1217,2.0582,2.0449,1.9937,1.91,1.8655,1.8333,1.8061,1.7733,1.7137,1.6213,1.5309,1.4662,1.4424,1.3848,1.3621,1.3621,1.3621,1.3269,1.2586,1.2401,1.1965,1.124,1.1225,1.1068,1.0829,1.0556,1.0048,0.9305,0.8774,0.8426,0.0,0.0,0.0,0.0,0.0,0.0,0.0,0.0,0.0,0.0,0.0,0.8738,0.9152,0.9492,0.9791,0.9945,1.0175,1.0136,0.9752,0.9714,0.9502,0.9006,0.9335,0.9526,0.9335,0.9847,1.0124,0.9818,0.9763,0.9635,0.9203,0.8822,0.8578,0.8602,0.8602,0.8948,0.9928,1.0273,1.0874,1.1908,1.2332,1.255,1.2606,1.2503,1.2278,1.206,1.1653,1.1267,1.0924,1.0723,1.0505,1.0196,1.0098,1.0059,1.0019,0.998,0.9961,1.0,0.9902,0.9783,3.2727,3.2727,3.2291,3.1568,3.0559,2.8602,2.7531,2.7064,2.6501,2.6264,2.6264,2.6133,2.5792,2.5319,2.5135,2.476,2.423,2.4034,2.3891,2.3865,2.3083,2.268,2.2655,2.1977,2.1418,2.0891,2.0891,2.0482,1.9642,1.9356,1.8964,1.8672,1.841,1.8093,1.7797,1.6392,1.5305,1.4558,1.4042,1.3765,1.3703,1.3765,1.3517,1.2958,1.2606,1.2193,1.1632,1.1393,1.1238,1.1174,1.0945,1.0594,1.0212,0.9689,0.9232,0.0,0.9188,0.0,0.0,0.0,0.0,0.0,0.0,0.0,0.0,0.9864,0.9978,1.0663,1.0528,1.0615,1.1173,1.1376,1.1267,1.0887,1.0855,1.0857,1.0879,1.0586,1.041,1.0371,1.0371,1.0176,0.9791,0.9752,0.9744,0.9527,0.9128,0.8846,0.8765,0.8602,0.8806,0.9759,1.0262,1.0982,1.1999,1.2382,1.2559,1.2783,1.2626,1.2497,1.2589,1.1979,1.145,1.1307,1.0981,1.0641,1.039,1.0273,1.0157,1.0098,1.0079,1.0118,1.0079,0.9961,0.9804,3.4166,3.4044,3.3166,3.2265,3.131,3.1155,3.0276,2.8918,2.881,2.8783,2.8768,2.7796,2.7274,2.6925,2.5868,2.5269,2.4958,2.4216,2.3891,2.3891,2.3467,2.3263,2.3238,2.2934,2.2548,2.202,2.1995,2.1606,2.0971,2.0281,1.9897,1.9709,1.9138,1.8655,1.8417,0.0,0.0,0.0,1.478,1.4552,1.42,1.4552,1.4159,1.3,1.3207,0.0,1.1695,1.1728,1.1595,1.1233,1.0945,0.0,0.0,0.0,0.0,0.0,0.0,0.0,0.0,0.0,0.0,0.0,1.2083,1.2121,1.1578,1.1409,1.152,1.1902,1.186,1.1733,1.1538,1.1669,1.1643,1.1441,1.1006,1.0775,1.0857,1.084,1.0801,1.0781,1.0781,1.0721,1.0524,1.023,0.9902,0.9744,0.9448,0.9208,0.9191,0.8765,0.8699,0.9381,1.036,1.128,1.2159,1.2332,1.248,1.2657,1.2686,1.2547,1.2188,1.2014,1.1675,1.13,1.1124,1.1023,1.0812,1.0677,1.0544,1.0351,1.0273,1.0235,1.0118,1.0079,1.0059,3.516,0.0,3.4486,3.3755,0.0,3.2919,3.2291,3.1387,3.0748,3.0311,2.9979,2.937,2.8636,2.7748,2.6668,2.5861,2.5296,2.4419,2.4008,2.4008,2.3747,2.3654,2.3654,2.345,2.3086,2.2553,2.2553,2.2217,2.1605,2.0941,2.0557,2.0399,1.9772,1.9291,1.8975,1.8289,1.7096,1.5476,1.5455,1.5348,1.5135,1.5327,1.4956,1.4041,0.0,0.0,0.0,0.0,0.0,0.0,0.0,0.0,0.0,0.0,0.0,1.0497,1.0891,1.1118,1.1162,1.1932,1.2429,1.2469,1.3095,1.3184,1.2474,1.2052,1.1962,1.2192,1.193,1.1792,1.1965,1.1953,1.2022,1.2095,1.1875,1.174,1.1766,1.1635,1.1465,1.125,1.1055,1.084,1.0585,1.0311,1.0098,0.998,0.9783,0.9607,0.9527,0.9047,0.9006,0.9865,1.0871,1.178,1.2276,1.2529,1.2627,1.2774,1.2871,1.2788,1.2418,1.2202,1.19,1.1504,1.1267,1.112,1.1002,1.0964,1.0829,1.0621,1.0524,1.0467,1.0351,1.0273,1.0215,3.5998,3.6447,3.5681,3.5317,3.5037,3.4309,3.3944,3.3784,0.0,0.0,0.0,3.08,2.996,2.8636,2.7644,2.6707,2.5888,2.4866,2.4341,2.4256,2.4034,2.3891,2.3891,2.3688,2.3398,2.2936,2.2936,2.2706,2.2275,2.1546,2.1212,2.1107,2.0469,1.988,1.9515,1.8917,1.7914,1.6513,1.6336,1.624,1.6203,1.6218,1.5952,1.5262,1.4858,1.4155,1.3021,1.2609,1.2131,1.1573,1.1567,1.1468,1.1096,1.1424,1.1474,1.1228,1.1905,1.2342,1.2342,1.2795,1.3101,1.3211,1.3564,1.3564,1.3084,1.2613,1.2362,1.2527,1.2066,1.1997,1.2477,1.2417,1.2461,1.2783,1.2696,1.2609,1.2764,1.2433,1.2057,1.1665,1.1292,1.082,1.041,1.0332,1.0235,1.0157,1.0098,1.0019,0.9862,0.9578,0.9659,1.0596,1.15,1.2201,1.254,1.2822,1.2968,1.3094,1.319,1.3131,1.2781,1.2372,1.1984,1.1548,1.1253,1.1141,1.1099,1.1136,1.1078,1.085,1.0791,1.0833,1.0838,1.0703,1.0567,3.6417,3.6477,3.6387,3.5932,3.5424,3.527,3.524,3.5115,3.3813,3.3136,3.2992,3.1927,3.119,3.0586,2.9087,2.8102,2.7564,2.6055,2.519,2.4985,2.4216,2.3891,2.3891,2.3688,2.3577,2.35,2.35,2.3475,2.3321,2.2694,2.2407,2.2249,2.1655,2.0827,2.0109,1.9405,1.8903,1.8572,1.807,1.7626,1.7191,1.755,1.7117,1.5864,1.5992,1.5325,1.3806,1.3651,1.3083,1.207,1.2062,1.2079,1.2014,1.2058,1.2276,1.2563,1.2715,1.2802,1.2781,1.2909,1.3128,1.3587,1.3696,1.3674,1.3696,1.3826,1.386,1.3925,1.3637,1.3626,1.3564,1.324,1.3097,1.3226,1.2681,1.2508,1.3034,1.2696,1.2213,1.184,1.161,1.1175,1.0469,1.0312,1.0312,1.0293,1.0254,1.0235,1.0254,1.0264,1.0475,1.1073,1.1791,1.2402,1.285,1.317,1.3382,1.3647,1.36,1.3331,1.2675,1.2337,1.1881,1.1079,1.1027,1.1099,1.1174,1.1271,1.1271,1.1136,1.1115,1.1259,1.1598,1.1627,1.1448,3.6985,3.6985,3.6985,3.6806,3.6507,3.5818,3.5489,3.5424,3.4866,3.4381,3.3997,3.3469,3.2603,3.1529,3.0297,2.9274,2.833,2.6876,2.6076,2.5747,2.4891,2.4632,2.484,2.4235,2.402,2.4365,2.402,2.3865,2.3813,2.318,2.284,2.2731,2.1801,2.1053,2.0668,2.0035,1.9708,1.9629,1.8975,1.8484,1.8248,1.846,1.8107,1.7189,1.6945,1.6218,1.4898,1.4444,1.3837,1.3013,1.2991,1.3031,1.3031,1.3256,1.3504,1.3687,1.3957,1.4114,1.4114,1.3738,1.3828,1.449,1.4244,1.4222,1.4463,1.4155,1.3956,1.3958,1.3761,1.3696,1.3755,1.3549,1.347,1.3721,1.332,1.3158,1.3307,1.3022,1.2503,1.1971,1.1476,1.1018,1.0371,1.0312,1.0312,1.0312,1.0409,1.0487,1.0643,1.1186,1.1584,1.1713,1.2292,1.2842,1.3273,1.3573,1.3763,1.3905,1.3999,1.3616,1.2807,1.2425,1.1944,1.1077,1.0985,1.112,1.1195,1.1309,1.1346,1.1346,1.1325,1.1535,1.1923,1.2254,1.2172,3.7524,3.7404,3.7584,3.7464,3.7105,3.6148,3.5639,3.5519,3.5489,3.519,3.4741,3.4532,3.3749,3.2461,3.1452,3.0389,2.9181,2.782,2.7067,2.6674,2.5834,2.5651,2.588,2.4899,2.4662,2.4917,2.4387,2.4125,2.4015,2.3482,2.3192,2.3031,2.1992,2.1452,2.1298,2.0681,2.0297,2.0016,1.9478,1.9239,1.9291,1.9239,1.9047,1.8458,1.7921,1.7098,1.602,1.5314,1.4599,1.3906,1.3819,1.3819,1.3819,1.4285,1.4611,1.4751,1.5056,1.5244,1.5197,1.4538,1.4474,1.5322,1.4777,1.4591,1.4963,1.4439,1.4047,1.4138,1.3915,1.3802,1.4005,1.3872,1.3911,1.4204,1.4174,1.41,1.3936,1.3642,1.3111,1.2372,1.1664,1.1158,1.0804,1.0686,1.0765,1.0865,1.0884,1.1042,1.1342,1.211,1.2508,1.2609,1.3011,1.3381,1.3611,1.3909,1.405,1.4054,1.4283,1.398,1.3282,1.2871,1.2297,1.1439,1.1124,1.112,1.1195,1.1309,1.1448,1.1535,1.1676,1.1943,1.2516,1.2914,1.2848,3.7943,3.7554,3.8063,3.7614,3.6626,3.6447,3.6058,3.5519,3.5489,3.5489,3.531,3.4771,3.4349,3.3862,3.249,3.1535,3.084,2.9266,2.8368,2.7947,2.7121,2.6634,2.6539,2.5715,2.5329,2.515,2.4446,2.4125,2.4125,2.3872,2.3728,2.3475,2.2936,2.2347,2.1809,2.1271,2.0502,1.9502,1.9863,2.0067,2.0093,2.0067,1.9813,1.9302,1.9128,1.838,1.7074,1.6397,1.5466,1.4293,1.4221,1.4157,1.4269,1.4725,1.5247,1.566,1.5756,1.5712,1.5623,1.4844,1.4832,1.5493,1.4985,1.4726,1.5116,1.505,1.5059,1.521,1.49,1.4631,1.479,1.4607,1.4647,1.5067,1.5108,1.5077,1.4958,1.4763,1.4254,1.3181,1.2683,1.2297,1.196,1.1838,1.1921,1.1943,1.1923,1.2048,1.2278,1.2786,1.33,1.3498,1.3863,1.3879,1.3753,1.4133,1.429,1.4138,1.4406,1.4362,1.3894,1.3321,1.2696,1.208,1.157,1.1323,1.1301,1.1292,1.1599,1.2023,1.2294,1.2589,1.3493,1.3783,1.3259,3.8601,3.8063,3.8721,3.8242,3.7075,3.6656,3.6118,3.5519,3.5489,3.5489,3.5489,3.522,3.4588,3.3719,3.3121,3.2224,3.1097,3.0185,2.9594,2.9233,2.8368,2.8008,2.7954,2.6484,2.584,2.572,2.4662,2.4125,2.4125,2.4067,2.4008,2.3813,2.3353,2.2911,2.2652,2.1796,2.0939,2.0187,2.0057,1.993,1.9982,2.0116,2.0067,1.9887,1.9504,1.8872,1.797,1.7325,1.671,1.6132,1.6108,1.6232,1.6554,1.6801,1.7024,1.7223,1.7223,1.7257,1.7387,1.6667,1.6598,1.7385,1.6637,1.6367,1.6714,1.6484,1.6429,1.6345,1.544,1.4789,1.488,1.4926,1.513,1.5656,1.5818,1.5932,1.6155,1.571,1.5096,1.4314,1.3626,1.3127,1.2786,1.2616,1.2531,1.2489,1.251,1.2659,1.2764,1.3217,1.3695,1.4069,1.431,1.4286,1.4087,1.4334,1.4448,1.445,1.4608,1.4699,1.416,1.387,1.3386,1.2611,1.2268,1.2138,1.2268,1.2225,1.2351,1.2713,1.3037,1.3428,1.3979,1.4047,1.3539,3.902,3.8542,3.914,3.8661,3.7404,3.6926,3.6267,3.5549,3.5489,3.5489,3.5489,3.5489,3.4861,3.3873,3.3754,3.3004,3.1693,3.1128,3.0684,3.0179,2.9508,2.9261,2.9205,2.7594,2.6772,2.6627,2.5548,2.4813,2.4569,2.4326,2.4274,2.4137,2.3712,2.3367,2.3132,2.2217,2.1381,2.0725,2.0231,1.9969,1.9869,2.0163,2.0347,2.0295,1.9935,1.9394,1.858,1.8016,1.7536,1.7117,1.7117,1.7295,1.7702,1.8007,1.8236,1.8389,1.8389,1.8548,1.8809,1.8142,1.8067,1.8677,1.813,1.7728,1.7802,1.7588,1.7283,1.7031,1.5969,1.531,1.5381,1.5475,1.5845,1.6404,1.6667,1.6881,1.7038,1.6683,1.6097,1.5267,1.463,1.4049,1.3693,1.3541,1.3433,1.3282,1.3282,1.3303,1.3433,1.3828,1.4272,1.463,1.4697,1.4558,1.4419,1.4419,1.4512,1.4448,1.4563,1.4675,1.425,1.4295,1.4226,1.3606,1.3257,1.3125,1.3251,1.3253,1.3215,1.3477,1.3784,1.4116,1.4362,1.4137,1.3817,3.902,3.8542,3.914,3.8631,3.7404,3.7345,3.6656,3.5489,3.5489,3.5489,3.5489,3.5489,3.51,3.4442,3.4442,3.3991,3.3119,3.2254,3.1483,3.0835,3.0598,3.0329,2.9997,2.9068,2.8428,2.798,2.7072,2.6321,2.5805,2.5145,2.465,2.4509,2.4284,2.3905,2.3263,2.2635,2.1799,2.0882,2.062,2.0384,1.9917,2.0361,2.0623,2.0597,2.0597,2.0022,1.8956,1.833,1.76,1.6545,1.6583,1.6557,1.6636,1.76,1.8409,1.8852,1.8904,1.9071,1.9394,1.8773,1.8584,1.9228,1.8724,1.8154,1.8144,1.7993,1.7678,1.7012,1.6842,1.6604,1.6604,1.6564,1.6822,1.7385,1.7706,1.7808,1.7777,1.7604,1.7055,1.6143,1.5609,1.5174,1.4835,1.479,1.4654,1.4518,1.4608,1.4722,1.4699,1.4903,1.5062,1.5176,1.5085,1.4743,1.4348,1.4419,1.429,1.4247,1.4607,1.4808,1.4877,1.4902,1.4722,1.4518,1.4021,1.3905,1.415,1.4289,1.4227,1.4361,1.4488,1.4711,1.4677,1.4019,1.3762,3.9403,3.908,3.932,3.8631,3.7464,3.7404,3.6686,3.5519,3.5489,3.5489,3.5489,3.5489,3.537,3.513,3.513,3.4532,3.3453,3.2615,3.2199,3.1812,3.1368,3.0984,3.06,2.9753,2.917,2.8729,2.7897,2.7137,2.6465,2.6045,2.5458,2.4875,2.4567,2.4173,2.3712,2.2871,2.2008,2.1224,2.0518,1.9995,1.9839,2.0022,2.0126,2.01,2.0126,1.9734,1.8924,1.8375,1.7904,1.7486,1.7486,1.7643,1.8035,1.8767,1.9447,1.9991,2.007,2.0077,2.0135,1.9832,1.9685,1.9787,1.9584,1.9205,1.9025,1.8894,1.8718,1.8394,1.8243,1.8163,1.797,1.7494,1.7232,1.778,1.8001,1.8247,1.8438,1.8267,1.7835,1.7357,1.6739,1.6033,1.5655,1.5468,1.5334,1.5175,1.522,1.5311,1.5332,1.54,1.5539,1.5843,1.568,1.5359,1.5449,1.4946,1.4653,1.4654,1.4812,1.504,1.52,1.5268,1.5149,1.5152,1.4713,1.4896,1.5197,1.5406,1.5337,1.4834,1.4985,1.5054,1.4971,1.4506,1.4397,3.9553,3.9439,3.9439,3.8631,3.7464,3.7404,3.6686,3.5549,3.5489,3.5489,3.5489,3.5489,3.5489,3.5489,3.5489,3.504,3.4113,3.3455,3.2916,3.2497,3.2048,3.1544,3.1043,3.0397,2.9959,2.9636,2.8827,2.8168,2.7684,2.7004,2.6329,2.5658,2.5073,2.465,2.4288,2.3411,2.2617,2.1956,2.1133,2.0576,2.0342,2.0131,2.0051,1.9972,1.9634,1.9173,1.8662,1.827,1.7983,1.7852,1.7826,1.814,1.8845,1.929,1.9865,2.0594,2.0699,2.0675,2.0625,2.0549,2.0472,2.0347,2.0271,2.0169,1.9965,1.9759,1.9604,1.95,1.9396,1.9393,1.9494,1.8924,1.8379,1.837,1.8446,1.8642,1.8903,1.8686,1.8326,1.7795,1.7075,1.645,1.6034,1.5848,1.5691,1.549,1.5579,1.5712,1.5688,1.5756,1.5897,1.6279,1.5972,1.579,1.5751,1.5496,1.522,1.5242,1.5174,1.5379,1.5563,1.5605,1.5605,1.5633,1.5799,1.601,1.6244,1.6406,1.6078,1.5452,1.5383,1.5521,1.5357,1.5176,1.5042,3.9409,3.9439,3.9409,3.8691,3.7653,3.7503,3.6686,3.5764,3.5519,3.5554,3.5554,3.5489,3.5554,3.5489,3.5554,3.5459,3.522,3.4651,3.3784,3.2766,3.2497,3.202,3.1396,3.1043,3.0867,3.069,2.9988,2.961,2.9348,2.8195,2.7257,2.675,2.5883,2.5383,2.5018,2.4368,2.377,2.3144,2.2519,2.1975,2.1437,2.082,2.0595,2.0386,1.9431,1.8719,1.8236,1.8087,1.7869,1.7382,1.7303,1.7774,1.8793,1.9054,1.9499,2.0489,2.0699,2.0775,2.0901,2.0875,2.0924,2.0848,2.0924,2.0749,2.0523,2.0321,2.0169,2.0118,2.0118,2.0296,2.0859,2.0885,2.0366,1.9308,1.9308,1.9332,1.91,1.8999,1.859,1.7724,1.7051,1.6404,1.6017,1.5937,1.5844,1.5756,1.5913,1.6088,1.602,1.6088,1.62,1.6225,1.6181,1.6142,1.6073,1.5981,1.5869,1.578,1.5691,1.576,1.5993,1.6106,1.6058,1.6065,1.65,1.6715,1.6478,1.6693,1.6669,1.6221,1.6174,1.5868,1.5739,1.5617,1.5575,3.9798,3.9798,3.9798,3.9355,3.8478,3.7986,3.7328,3.6511,3.6058,3.5846,3.5876,3.5846,3.5846,3.5782,3.5718,3.5653,3.5623,3.5284,3.4711,3.3844,3.2946,3.2378,3.2079,3.1603,3.1366,3.1278,3.1041,3.0656,3.0155,2.9516,2.8679,2.7561,2.6971,2.63,2.5605,2.4966,2.4406,2.377,2.3181,2.2568,2.1963,2.1666,2.1435,2.1018,2.0495,1.9871,1.9199,1.819,1.7745,1.7903,1.7869,1.8349,1.9264,1.9525,1.9891,2.0594,2.0775,2.0825,2.0875,2.1023,2.1046,2.1046,2.1046,2.1046,2.0871,2.0723,2.0597,2.0649,2.0835,2.1199,2.1381,2.1745,2.166,2.1046,2.0722,2.036,1.9878,1.9376,1.8738,1.8085,1.7508,1.6955,1.6541,1.6292,1.6113,1.6132,1.6262,1.6306,1.6349,1.6392,1.6461,1.6504,1.6504,1.6522,1.6522,1.6565,1.6479,1.6349,1.6262,1.6219,1.6455,1.6598,1.6504,1.6687,1.7063,1.7142,1.6973,1.6975,1.7026,1.6664,1.6182,1.6078,1.6088,1.6071,1.6044,4.0578,4.0578,4.0578,4.0177,3.9565,3.9067,3.8357,3.7589,3.7125,3.6786,3.66,3.6507,3.6445,3.6321,3.607,3.5879,3.5752,3.5619,3.528,3.4771,3.3784,3.3036,3.2527,3.1839,3.1482,3.1482,3.1482,3.13,3.0881,3.0386,2.9658,2.8645,2.7871,2.7219,2.6489,2.5891,2.5208,2.4383,2.39,2.3274,2.2534,2.2193,2.2038,2.1839,2.1219,2.0801,2.0523,1.9201,1.8441,1.8587,1.8534,1.8963,1.9756,1.986,2.0122,2.0644,2.0825,2.0951,2.1023,2.1144,2.1193,2.1166,2.1193,2.1193,2.1095,2.097,2.0921,2.0974,2.1425,2.1824,2.2141,2.2644,2.2933,2.2919,2.2005,2.1312,2.0612,1.9927,1.9308,1.8773,1.8238,1.7654,1.7063,1.6856,1.6548,1.6579,1.6522,1.6607,1.665,1.665,1.6761,1.6888,1.6905,1.6989,1.7073,1.7115,1.7115,1.6989,1.6863,1.6863,1.694,1.6965,1.6923,1.7257,1.7626,1.7538,1.7393,1.7619,1.7743,1.7024,1.6287,1.6349,1.6436,1.6607,1.6608,4.1525,4.1525,4.1525,4.1178,4.0577,4.0419,3.9756,3.8774,3.8457,3.8049,3.7575,3.7358,3.7207,3.6906,3.6538,3.6321,3.6037,3.5748,3.5619,3.5409,3.4778,3.3937,3.2557,3.19,3.1601,3.1482,3.1482,3.1452,3.1332,3.077,3.027,2.9891,2.8781,2.7944,2.7744,2.7137,2.6184,2.5159,2.4849,2.42,2.3007,2.2469,2.2411,2.2877,2.1787,2.1455,2.1942,2.1041,1.9959,1.9341,1.9322,1.9668,1.9998,1.9982,2.0325,2.0947,2.0951,2.1122,2.1242,2.1313,2.1442,2.1594,2.1572,2.1323,2.1583,2.1565,2.1515,2.1565,2.2022,2.2585,2.3176,2.3717,2.4175,2.4383,2.2994,2.1893,2.1237,2.0711,2.0217,1.9775,1.9207,1.8609,1.7802,1.7758,1.7466,1.7273,1.7205,1.7342,1.7187,1.7297,1.7209,1.7267,1.738,1.7503,1.7625,1.757,1.7597,1.7459,1.7361,1.7466,1.7439,1.7398,1.7633,1.7911,1.8144,1.8053,1.7911,1.8113,1.7768,1.6967,1.6658,1.6675,1.6803,1.6947,1.7073,4.1948,4.1948,4.1948,4.1853,4.1598,4.1151,4.0799,4.0288,3.9297,3.891,3.8499,3.7961,3.7711,3.7417,3.6966,3.6723,3.66,3.6196,3.61,3.6226,3.6073,3.4576,3.2886,3.2347,3.1988,3.1629,3.1597,3.1482,3.1452,3.1273,3.0944,3.041,2.9967,2.952,2.908,2.8373,2.7446,2.6228,2.5586,2.4756,2.3629,2.3317,2.3258,2.3347,2.2863,2.2848,2.3421,2.2912,2.1861,2.0516,2.0871,2.1097,2.1111,2.1042,2.1075,2.1355,2.1533,2.1602,2.1746,2.1888,2.213,2.2623,2.2547,2.2776,2.3197,2.3045,2.2944,2.3002,2.3334,2.3635,2.3879,2.4394,2.4689,2.446,2.3589,2.2778,2.2337,2.1873,2.1441,2.1291,2.0604,2.0036,1.9738,1.9225,1.8879,1.8799,1.8735,1.8698,1.8361,1.8269,1.8284,1.7936,1.7921,1.804,1.8108,1.8055,1.7963,1.7855,1.7894,1.8066,1.7982,1.7898,1.8305,1.8745,1.9028,1.904,1.8552,1.8351,1.7617,1.7111,1.7015,1.7073,1.7157,1.7282,1.7447,4.2743,4.2743,4.2805,4.2867,4.2834,4.2472,4.2174,4.1782,4.1063,4.0279,3.9756,3.9331,3.8804,3.8205,3.7796,3.7504,3.7266,3.6966,3.6845,3.6906,3.7027,3.5765,3.4089,3.3304,3.2728,3.2364,3.2031,3.1853,3.1853,3.1826,3.1528,3.114,3.0754,3.0423,2.9924,2.9026,2.8098,2.7081,2.6333,2.5465,2.4537,2.4448,2.4448,2.4343,2.406,2.3909,2.4095,2.4422,2.3799,2.248,2.2114,2.217,2.2077,2.1935,2.1935,2.2077,2.2142,2.2263,2.2356,2.2449,2.278,2.3264,2.3435,2.37,2.4028,2.4025,2.3798,2.3695,2.4149,2.4286,2.4259,2.4666,2.4908,2.4711,2.4329,2.3891,2.3493,2.2998,2.274,2.2481,2.1904,2.1159,2.1171,2.0475,2.0044,1.985,1.9686,1.9565,1.94,1.9403,1.9308,1.8958,1.8742,1.8888,1.8747,1.8623,1.8567,1.8423,1.8536,1.874,1.894,1.8785,1.8993,1.9458,1.9801,1.9834,1.925,1.8676,1.8245,1.785,1.7576,1.7488,1.7597,1.7733,1.7895,4.3628,4.3628,4.3839,4.3898,4.3898,4.4039,4.358,4.3136,4.2812,4.2167,4.1143,4.0829,4.0005,3.9139,3.8632,3.8311,3.8001,3.7738,3.7738,3.7706,3.7732,3.7028,3.5966,3.4643,3.3903,3.3531,3.2918,3.2671,3.2578,3.2382,3.2247,3.1952,3.1329,3.0895,3.0599,2.9529,2.8539,2.781,2.712,2.6339,2.5588,2.5318,2.5258,2.5408,2.5166,2.4865,2.504,2.5527,2.553,2.4112,2.3322,2.3045,2.297,2.2879,2.2879,2.3057,2.319,2.3207,2.3256,2.3373,2.3547,2.4206,2.4323,2.4422,2.4945,2.4876,2.4657,2.4671,2.4833,2.5025,2.4778,2.494,2.5133,2.516,2.5189,2.5021,2.46,2.4169,2.3903,2.3904,2.3068,2.241,2.1876,2.1368,2.1,2.1074,2.0906,2.0765,2.064,2.0599,2.0372,1.9981,1.9872,1.9846,1.9517,1.9199,1.9141,1.9086,1.9279,1.9544,2.0152,2.013,1.997,2.0152,2.0696,2.0479,1.9646,1.9195,1.8973,1.8681,1.8508,1.8276,1.8165,1.8282,1.845,4.3687,4.3839,4.3898,4.3956,4.4039,4.4097,4.3997,4.3796,4.3227,4.2881,4.2289,4.1318,4.0642,4.0192,3.9369,3.8733,3.8809,3.8464,3.8254,3.8567,3.8567,3.8446,3.781,3.6694,3.5522,3.4759,3.4345,3.3911,3.3509,3.3266,3.2841,3.2625,3.2321,3.1891,3.1571,3.0758,2.9826,2.8798,2.8061,2.7182,2.6182,2.5637,2.5576,2.5833,2.6136,2.6408,2.6468,2.6758,2.6758,2.621,2.509,2.4384,2.4591,2.4204,2.4174,2.4621,2.4845,2.4921,2.5044,2.5014,2.5342,2.5771,2.586,2.6258,2.6701,2.6374,2.6323,2.6512,2.6581,2.6442,2.6274,2.5911,2.5883,2.5993,2.6018,2.6071,2.5851,2.5466,2.5246,2.5188,2.4794,2.4334,2.3809,2.3093,2.2666,2.2374,2.2189,2.2089,2.1989,2.1888,2.1582,2.1187,2.0958,2.0862,2.0323,1.9962,1.9672,1.9602,1.9826,2.0372,2.0996,2.1332,2.1102,2.1293,2.175,2.123,2.0745,2.0562,2.0517,1.9963,1.9473,1.9426,1.9347,1.9219,1.9238,4.3923,4.3981,4.4039,4.4155,4.4212,4.427,4.436,4.4259,4.3923,4.3519,4.3115,4.2307,4.1762,4.1285,4.0667,4.0392,4.0204,3.9797,3.952,3.9481,3.9435,3.9382,3.9348,3.8652,3.7597,3.63,3.5772,3.5416,3.5053,3.4716,3.442,3.3719,3.3419,3.2905,3.2407,3.1736,3.1028,3.0381,2.9693,2.883,2.7874,2.7072,2.623,2.6108,2.6366,2.667,2.6991,2.7466,2.7684,2.7391,2.6549,2.5803,2.5742,2.5213,2.5213,2.5712,2.5894,2.594,2.5986,2.6046,2.6229,2.6957,2.6988,2.7516,2.7941,2.7906,2.7994,2.8395,2.8443,2.831,2.8253,2.7818,2.7472,2.7411,2.7287,2.7302,2.719,2.6697,2.6204,2.6087,2.5374,2.4934,2.4488,2.398,2.3663,2.2999,2.3281,2.324,2.3681,2.3493,2.2981,2.2609,2.2218,2.1783,2.1218,2.0754,2.0255,2.0177,2.0186,2.0942,2.1756,2.1961,2.212,2.2476,2.2798,2.2861,2.2448,2.2243,2.18,2.1162,2.0772,2.0695,2.0686,2.0655,2.0694,4.4198,4.4155,4.4236,4.4293,4.4384,4.4497,4.4587,4.4553,4.4553,4.4125,4.3639,4.3504,4.2787,4.2307,4.1984,4.2017,4.1762,4.1412,4.086,4.0542,4.0272,4.0238,4.0137,3.9817,3.9242,3.8071,3.7378,3.6982,3.6767,3.6561,3.5747,3.5045,3.4654,3.3974,3.3055,3.25,3.208,3.1734,3.1376,3.0651,2.9784,2.892,2.786,2.6734,2.6474,2.6794,2.7439,2.7898,2.8253,2.835,2.7765,2.7211,2.6688,2.6103,2.5949,2.6581,2.6796,2.6857,2.6888,2.6872,2.7088,2.7611,2.7734,2.8288,2.9131,2.9246,2.9394,2.975,2.9928,2.9918,3.0093,2.9436,2.9223,2.9134,2.88,2.8689,2.8479,2.7669,2.7306,2.6572,2.5988,2.5404,2.4694,2.4112,2.3891,2.3804,2.409,2.4388,2.4805,2.4781,2.4104,2.3599,2.3076,2.2521,2.1924,2.1704,2.1238,2.0881,2.0744,2.1475,2.236,2.2569,2.2842,2.3466,2.3785,2.3818,2.3864,2.3716,2.3171,2.2415,2.2164,2.2214,2.2203,2.2109,2.2039,4.4691,4.4236,4.4293,4.4384,4.453,4.4587,4.4553,4.4553,4.4553,4.4519,4.4316,4.3707,4.3348,4.3078,4.2395,4.2139,4.2173,4.2044,4.1982,4.1644,4.1271,4.1001,4.0832,4.0426,3.9952,3.9649,3.8891,3.8237,3.7834,3.7385,3.6903,3.6009,3.5626,3.4929,3.4143,3.3673,3.3301,3.2965,3.2675,3.2031,3.0905,2.9681,2.8726,2.7501,2.7319,2.7611,2.8104,2.835,2.8363,2.835,2.7765,2.7734,2.7905,2.7473,2.7504,2.7843,2.8137,2.8216,2.8168,2.8168,2.8508,2.8922,2.9095,2.9484,3.0134,3.031,3.0483,3.0891,3.1036,3.091,3.0794,3.0479,3.0054,2.9902,2.9977,2.9754,2.9327,2.8961,2.8393,2.7387,2.6639,2.5949,2.5319,2.4823,2.464,2.467,2.4893,2.5242,2.5634,2.5354,2.4716,2.4253,2.3835,2.3251,2.2622,2.2535,2.2265,2.1741,2.1689,2.2078,2.2726,2.305,2.3477,2.4173,2.4597,2.4717,2.4792,2.4972,2.4714,2.409,2.3897,2.3702,2.3372,2.3072,2.2932,4.5293,4.498,4.4609,4.4497,4.4587,4.4553,4.4553,4.4553,4.4553,4.4553,4.4485,4.4181,4.4012,4.391,4.3652,4.3192,4.2909,4.2807,4.2658,4.2286,4.1914,4.1508,4.1305,4.0832,4.0426,4.0087,3.9681,3.9411,3.9073,3.8874,3.8187,3.7553,3.7153,3.6389,3.53,3.5021,3.4644,3.4119,3.3889,3.3266,3.1712,3.0206,2.8906,2.8722,2.8512,2.8842,2.9685,2.9873,2.9873,2.9842,2.956,2.9592,2.9623,2.9592,2.9245,2.9193,2.941,2.9645,2.9627,2.9676,2.9782,3.003,3.0173,3.0534,3.1083,3.1415,3.1633,3.2133,3.2298,3.2191,3.2191,3.1818,3.1778,3.1653,3.1436,3.1114,3.0791,3.0329,2.9435,2.8358,2.7611,2.693,2.624,2.5828,2.555,2.5545,2.5771,2.6105,2.6519,2.6086,2.5606,2.5319,2.494,2.4316,2.3751,2.3498,2.3243,2.2809,2.2609,2.3002,2.3227,2.3585,2.4231,2.5009,2.5302,2.5724,2.5846,2.5997,2.5883,2.5691,2.5072,2.453,2.4248,2.403,2.3795,4.6089,4.575,4.5139,4.48,4.4699,4.4665,4.4665,4.4699,4.4665,4.4699,4.4665,4.4665,4.4631,4.4665,4.4563,4.4292,4.3694,4.3749,4.3444,4.3037,4.2698,4.2291,4.1865,4.1425,4.112,4.0493,4.0358,4.0223,3.9918,3.9784,3.9413,3.8707,3.8505,3.7736,3.6404,3.6037,3.5704,3.5257,3.4991,3.4259,3.2531,3.0422,2.9296,2.9714,2.9521,2.994,3.1006,3.1165,3.1197,3.1197,3.1197,3.1292,3.1356,3.1483,3.1195,3.0602,3.0704,3.0829,3.088,3.0848,3.0817,3.1149,3.1111,3.1589,3.2183,3.257,3.278,3.3339,3.3435,3.3371,3.3255,3.3351,3.3319,3.3171,3.2792,3.2431,3.1969,3.1529,3.0911,2.9863,2.8826,2.7921,2.7209,2.7257,2.7026,2.6764,2.6994,2.7377,2.7656,2.7287,2.6887,2.6534,2.6103,2.55,2.4998,2.4605,2.4248,2.377,2.3733,2.3973,2.4036,2.4169,2.4989,2.5765,2.6493,2.6867,2.6961,2.7011,2.6917,2.6628,2.5914,2.533,2.4918,2.4759,2.4657,4.7261,4.6088,4.5986,4.5555,4.5063,4.4995,4.4995,4.4995,4.4995,4.494,4.5015,4.4995,4.4995,4.5049,4.4961,4.4892,4.4824,4.4776,4.4639,4.4418,4.3989,4.3576,4.3212,4.2634,4.1782,4.1086,4.0967,4.0663,4.0223,4.0087,3.9699,3.9158,3.8906,3.8231,3.7023,3.6922,3.6274,3.5734,3.552,3.4734,3.3048,3.0792,3.0375,3.0588,3.0575,3.0635,3.1898,3.2125,3.2158,3.2093,3.2028,3.1963,3.1996,3.2609,3.2964,3.2626,3.2144,3.1502,3.1678,3.1821,3.2077,3.2542,3.262,3.2958,3.359,3.3949,3.4064,3.3935,3.4097,3.4194,3.4258,3.3995,3.3829,3.363,3.3387,3.2953,3.2551,3.2126,3.1565,3.1675,3.0812,2.9342,2.8188,2.8424,2.8572,2.8278,2.8232,2.8607,2.867,2.834,2.7995,2.7637,2.723,2.6647,2.6199,2.5797,2.5353,2.4862,2.4949,2.4964,2.4899,2.5098,2.5707,2.6502,2.7281,2.7924,2.8092,2.8112,2.8025,2.7497,2.67,2.6046,2.5484,2.542,2.5394,4.9234,4.7993,4.7159,4.6604,4.6257,4.584,4.5631,4.5631,4.5631,4.5631,4.5631,4.5631,4.5631,4.558,4.5631,4.5631,4.5631,4.558,4.5631,4.5528,4.5079,4.4613,4.3991,4.3458,4.2686,4.156,4.1136,4.073,4.0324,4.0138,3.9851,3.9648,3.9546,3.9174,3.7956,3.8024,3.7618,3.6907,3.605,3.5026,3.3748,3.2479,3.1741,3.2199,3.2055,3.2438,3.2886,3.3477,3.3609,3.3641,3.3641,3.3689,3.3769,3.4079,3.4339,3.4492,3.4087,3.3689,3.3532,3.3713,3.3958,3.4464,3.4823,3.5313,3.5643,3.5694,3.5744,3.581,3.581,3.5744,3.5613,3.5266,3.4641,3.4198,3.3806,3.3333,3.2866,3.245,3.2142,3.2526,3.2733,3.1381,3.0282,3.0384,3.0491,3.0082,2.9908,3.0035,2.983,2.9243,2.8971,2.8685,2.8283,2.7774,2.739,2.7001,2.6548,2.6184,2.6339,2.625,2.5855,2.6085,2.6775,2.7235,2.7846,2.8437,2.9016,2.8865,2.8435,2.7977,2.7451,2.6904,2.6379,2.6008,2.595,5.1043,5.0165,4.862,4.79,4.7653,4.704,4.6829,4.6794,4.6864,4.6724,4.6477,4.6337,4.6231,4.6231,4.6182,4.6182,4.6231,4.6231,4.6231,4.6133,4.595,4.542,4.4888,4.4302,4.3492,4.185,4.214,4.1528,4.0815,4.051,4.0425,4.0138,3.9952,3.958,3.914,3.8802,3.843,3.7652,3.6299,3.5341,3.4577,3.3657,3.3225,3.3372,3.3729,3.4118,3.4384,3.4764,3.5065,3.5111,3.5078,3.5023,3.5136,3.5227,3.534,3.5442,3.5307,3.5296,3.509,3.5218,3.5789,3.6255,3.6737,3.6887,3.707,3.7286,3.7302,3.7086,3.7119,3.7202,3.7169,3.6488,3.5679,3.4857,3.4219,3.3616,3.321,3.316,3.3237,3.3641,3.3928,3.3809,3.2991,3.2807,3.249,3.201,3.1722,3.1528,3.0932,3.0287,2.9911,2.9675,2.9448,2.9069,2.8753,2.8323,2.7787,2.7514,2.7632,2.7578,2.7247,2.7381,2.7948,2.831,2.8577,2.917,2.9914,2.9368,2.8823,2.854,2.8249,2.7814,2.7344,2.6936,2.6647,5.2351,5.2196,5.0539,4.9472,4.8834,4.8714,4.8643,4.8564,4.8622,4.8232,4.7571,4.6979,4.6708,4.6637,4.6649,4.6602,4.659,4.659,4.6637,4.6554,4.6363,4.6098,4.5711,4.5319,4.4768,4.3768,4.3425,4.2706,4.18,4.142,4.0948,4.0239,4.0238,3.9664,3.9359,3.9238,3.8865,3.8051,3.6729,3.5904,3.5294,3.4506,3.3888,3.4303,3.4549,3.4941,3.5576,3.5722,3.58,3.58,3.5756,3.58,3.58,3.5888,3.601,3.6019,3.6028,3.6096,3.6137,3.5972,3.6072,3.6679,3.7401,3.801,3.8227,3.799,3.7922,3.8091,3.8294,3.8255,3.7868,3.7233,3.6774,3.6014,3.5291,3.4651,3.4358,3.4292,3.4432,3.4858,3.4951,3.4856,3.4822,3.4451,3.3822,3.3274,3.2722,3.2492,3.1945,3.132,3.0912,3.0658,3.0591,3.036,3.0237,2.9722,2.9043,2.8791,2.8803,2.878,2.8581,2.8884,2.9016,2.9185,2.9416,3.0099,3.0572,3.0168,2.9782,2.942,2.9072,2.8799,2.8524,2.8207,2.7944,5.248,5.2397,5.179,5.1084,5.0329,4.9826,4.9611,4.9611,4.9611,4.9216,4.8452,4.8138,4.7743,4.7419,4.7312,4.7276,4.7276,4.7276,4.7267,4.7187,4.7053,4.6788,4.6507,4.6125,4.56,4.4794,4.4535,4.3771,4.2427,4.2367,4.1742,4.1151,4.0734,4.0251,4.0012,3.9939,3.9611,3.8939,3.798,3.7216,3.6546,3.6127,3.5368,3.4721,3.58,3.5572,3.5411,3.577,3.5907,3.6019,3.6019,3.6062,3.6105,3.6182,3.6225,3.6233,3.6284,3.6525,3.6939,3.686,3.7295,3.8357,3.8905,3.9179,3.944,3.9658,3.9692,3.9774,3.9671,3.9615,3.9731,3.9181,3.8425,3.7478,3.6649,3.5824,3.5396,3.5328,3.5508,3.5869,3.5859,3.5745,3.5813,3.5881,3.5172,3.4509,3.3996,3.3495,3.2971,3.2479,3.2052,3.19,3.1866,3.1773,3.1604,3.0977,3.0239,3.0149,3.002,2.9822,2.9653,2.9678,2.981,2.9983,3.0085,3.0421,3.0717,3.0903,3.0717,3.0375,3.018,3.0027,2.9709,2.9451,2.9145,5.248,5.248,5.248,5.219,5.1611,5.1031,5.0814,5.0814,5.085,5.0343,4.9619,4.9401,4.8822,4.8279,4.8387,4.8236,4.8121,4.8048,4.8055,4.7861,4.7587,4.7267,4.6972,4.6671,4.6259,4.5587,4.5364,4.4718,4.3663,4.3532,4.31,4.2496,4.1847,4.1544,4.0849,4.0896,4.0747,4.0249,3.932,3.8608,3.7897,3.7378,3.686,3.59,3.6522,3.6556,3.6062,3.6105,3.6037,3.6105,3.6105,3.6148,3.6191,3.6233,3.6276,3.6318,3.6387,3.6697,3.7318,3.8077,3.856,3.9307,3.9859,4.0272,4.0698,4.0871,4.0617,4.0733,4.0896,4.1093,4.1105,4.0158,3.9513,3.8562,3.7762,3.7011,3.6399,3.6185,3.6512,3.684,3.6644,3.637,3.7055,3.7124,3.6331,3.5497,3.4675,3.4303,3.4117,3.3651,3.3325,3.327,3.3351,3.318,3.294,3.2097,3.1347,3.1418,3.1215,3.066,3.0523,3.0514,3.0537,3.0636,3.0738,3.0738,3.1079,3.1516,3.1482,3.1312,3.1117,3.0959,3.1076,3.0803,3.0349,5.2516,5.248,5.2516,5.248,5.2371,5.2444,5.2335,5.2154,5.2226,5.1792,5.0959,5.0343,4.9619,4.9184,4.9438,4.9329,4.8967,4.8894,4.8822,4.8562,4.8048,4.7507,4.7232,4.7026,4.69,4.6649,4.6447,4.6077,4.524,4.5152,4.4752,4.4289,4.374,4.3164,4.1719,4.1622,4.1666,4.1462,4.0276,3.9559,3.9076,3.8447,3.7853,3.7517,3.755,3.7585,3.7249,3.6913,3.6886,3.6851,3.6817,3.6817,3.6782,3.6713,3.6713,3.6679,3.6609,3.6913,3.7569,3.8915,3.9571,3.9767,4.0181,4.0767,4.0905,4.1009,4.1181,4.1505,4.1324,4.1279,4.0989,4.0617,4.0224,3.9763,3.8989,3.8391,3.781,3.7318,3.7681,3.7828,3.7189,3.6835,3.7845,3.8294,3.7482,3.656,3.548,3.5137,3.529,3.538,3.5255,3.5059,3.5099,3.4623,3.4279,3.3138,3.2511,3.2616,3.2406,3.1917,3.1429,3.1252,3.1281,3.137,3.1302,3.1239,3.172,3.2269,3.2455,3.2639,3.2123,3.1917,3.2126,3.2086,3.1618,5.3277,5.3241,5.2697,5.2526,5.2536,5.2526,5.248,5.248,5.2444,5.2045,5.1393,5.0959,5.0452,5.0017,4.9945,5.0017,4.9764,4.9655,4.9582,4.9016,4.869,4.8218,4.788,4.7729,4.7615,4.7542,4.7464,4.706,4.6313,4.6296,4.5833,4.5373,4.5209,4.4581,4.3672,4.323,4.2875,4.2792,4.1689,4.0685,4.041,3.9888,3.937,3.8818,3.9033,3.8947,3.8649,3.8238,3.8098,3.8063,3.8063,3.8098,3.8098,3.8098,3.8168,3.8203,3.8273,3.8657,3.9425,4.0368,4.0468,4.04,4.0504,4.1194,4.1492,4.2147,4.2368,4.2279,4.1973,4.1963,4.1905,4.1461,4.1076,4.0946,4.0386,3.9966,3.9425,3.8936,3.8761,3.8761,3.8412,3.83,3.8893,3.9408,3.8834,3.8556,3.7748,3.7428,3.7505,3.7777,3.7796,3.7346,3.7036,3.6415,3.5682,3.4871,3.4199,3.4163,3.3776,3.3213,3.2722,3.2302,3.2091,3.2191,3.1946,3.1808,3.2611,3.3347,3.3916,3.4023,3.3457,3.2993,3.3051,3.3001,3.2737,5.3759,5.3603,5.2852,5.2581,5.2672,5.2618,5.2618,5.2618,5.2536,5.22,5.1792,5.1719,5.1249,5.0778,5.0778,5.0669,5.056,5.0532,5.0504,4.9901,4.9616,4.9331,4.8935,4.8539,4.8421,4.8356,4.8028,4.7624,4.7219,4.7223,4.6968,4.66,4.6387,4.6299,4.5585,4.4822,4.3848,4.3532,4.252,4.1542,4.1317,4.1017,4.0677,4.0339,4.0324,4.0341,3.9958,3.9711,3.9499,3.9534,3.9534,3.9575,3.9534,3.9499,3.9499,3.954,3.9852,4.01,4.0665,4.1301,4.1384,4.1349,4.1383,4.1695,4.2202,4.2757,4.3103,4.3083,4.2797,4.2648,4.2451,4.2006,4.1745,4.1569,4.1358,4.0902,4.0411,3.9841,3.9421,3.9421,3.9287,3.9392,3.9743,4.0095,4.0149,4.0165,4.0102,3.9814,3.9498,3.9559,3.9615,3.9124,3.878,3.8217,3.7613,3.697,3.6325,3.579,3.5114,3.444,3.423,3.3876,3.3493,3.3143,3.3284,3.3495,3.3882,3.4447,3.4939,3.5037,3.4634,3.433,3.4129,3.4045,3.3966,5.3925,5.365,5.2944,5.2753,5.2806,5.2893,5.2857,5.2806,5.268,5.2545,5.249,5.2417,5.2019,5.162,5.2127,5.1982,5.152,5.1492,5.1355,5.118,5.0648,5.0441,5.0039,4.9601,4.9277,4.8944,4.8579,4.8254,4.7995,4.7853,4.7816,4.7849,4.7633,4.7594,4.701,4.5986,4.5039,4.4564,4.3761,4.2886,4.2523,4.2049,4.1789,4.1528,4.1336,4.1292,4.0971,4.0724,4.0402,4.0259,4.0188,4.0116,4.0081,4.0009,4.0009,4.0224,4.0867,4.1114,4.1364,4.2042,4.2399,4.2483,4.2635,4.2693,4.3034,4.3637,4.4028,4.3854,4.3533,4.3126,4.28,4.2391,4.2026,4.192,4.185,4.1394,4.0902,4.0446,3.9989,3.9743,3.9392,3.9568,4.0411,4.0875,4.1067,4.1188,4.1131,4.1014,4.0735,4.0685,4.0623,4.0412,4.0129,3.9987,3.9372,3.8472,3.7967,3.725,3.624,3.5594,3.549,3.5211,3.465,3.4442,3.4903,3.5187,3.5293,3.55,3.5843,3.5792,3.596,3.5612,3.541,3.544,3.5462,5.5623,5.4993,5.4195,5.3708,5.344,5.3565,5.3526,5.3203,5.3036,5.2857,5.2708,5.2753,5.2535,5.2425,5.2607,5.2535,5.2462,5.236,5.204,5.1791,5.1548,5.1114,5.079,5.0464,5.0061,4.9621,4.9218,4.8888,4.8412,4.8302,4.8339,4.8192,4.8336,4.8339,4.7899,4.7057,4.6543,4.5957,4.5112,4.4344,4.3797,4.347,4.3141,4.2702,4.2372,4.2296,4.2116,4.2044,4.1863,4.1899,4.1971,4.2008,4.2008,4.2008,4.2044,4.2044,4.2296,4.2405,4.2405,4.2585,4.2874,4.3231,4.335,4.4005,4.441,4.4812,4.5159,4.4879,4.4423,4.405,4.3781,4.3452,4.311,4.2934,4.2722,4.2264,4.1807,4.1349,4.0891,4.0151,3.9834,4.0151,4.0997,4.1305,4.1541,4.1881,4.2015,4.1935,4.1845,4.1713,4.1573,4.1359,4.1179,4.1035,4.0311,3.9444,3.9117,3.8645,3.7522,3.662,3.6378,3.6062,3.5636,3.5636,3.5993,3.6276,3.6486,3.6725,3.7003,3.743,3.7598,3.7131,3.6736,3.6699,3.6683,5.671,5.5854,5.5081,5.4501,5.4163,5.4228,5.4121,5.3906,5.3489,5.3157,5.29,5.29,5.29,5.29,5.29,5.29,5.2864,5.2914,5.2773,5.2595,5.2422,5.2279,5.1952,5.1514,5.1143,5.0704,5.0299,5.0004,4.9452,4.9415,4.945,4.945,4.9154,4.8897,4.8601,4.8012,4.7645,4.7131,4.6507,4.5737,4.5187,4.4785,4.4163,4.3798,4.3433,4.3214,4.3178,4.3214,4.3178,4.3142,4.3142,4.3142,4.3105,4.3105,4.3105,4.3032,4.3032,4.3069,4.3069,4.3069,4.3324,4.3652,4.4014,4.4505,4.5107,4.5561,4.5928,4.5988,4.5564,4.5176,4.4929,4.4693,4.441,4.4173,4.3713,4.3253,4.2829,4.2404,4.1626,4.0778,4.0671,4.0884,4.1308,4.1619,4.1917,4.2163,4.2369,4.2426,4.2436,4.2441,4.2336,4.2193,4.2048,4.1904,4.1144,4.0347,3.984,3.926,3.8246,3.7489,3.7238,3.6874,3.6476,3.6616,3.6971,3.7253,3.7467,3.7895,3.8209,3.8496,3.8559,3.8132,3.7779,3.7808,3.7747,5.7417,5.6519,5.5767,5.5371,5.5042,5.5056,5.5019,5.4936,5.4239,5.36,5.3322,5.3203,5.3244,5.3326,5.3326,5.3326,5.3367,5.3407,5.3447,5.3363,5.3376,5.3306,5.3121,5.2821,5.2344,5.2082,5.1712,5.1158,5.1083,5.0898,5.0787,5.1082,5.0082,4.9601,4.9341,4.8565,4.8086,4.7865,4.7131,4.6287,4.592,4.5406,4.4856,4.4673,4.4233,4.3793,4.3756,4.3754,4.3681,4.3718,4.3754,4.383,4.3683,4.3463,4.3463,4.3573,4.3574,4.3684,4.3759,4.3869,4.4305,4.4562,4.4854,4.5297,4.5867,4.608,4.6354,4.6534,4.6105,4.6141,4.6007,4.5793,4.5587,4.5301,4.4907,4.4657,4.4407,4.362,4.244,4.1654,4.1332,4.1582,4.1899,4.2257,4.2338,4.2494,4.2652,4.2808,4.2994,4.3104,4.303,4.2921,4.2666,4.2412,4.194,4.118,4.0492,3.9731,3.8896,3.8461,3.821,3.7766,3.7275,3.7348,3.7489,3.8089,3.848,3.8658,3.8689,3.8689,3.8713,3.8773,3.8722,3.8654,3.8571,5.8606,5.7815,5.7154,5.686,5.6831,5.689,5.6861,5.6755,5.5895,5.4965,5.4127,5.4016,5.3943,5.3944,5.3944,5.3944,5.398,5.3944,5.4052,5.4016,5.4089,5.4054,5.4089,5.3717,5.3417,5.3,5.2588,5.2292,5.1993,5.1806,5.1622,5.1446,5.0709,5.0194,5.0046,4.912,4.8601,4.8601,4.805,4.7352,4.6948,4.6654,4.6324,4.581,4.5259,4.5112,4.5149,4.5223,4.5259,4.5333,4.5333,4.5039,4.4488,4.3864,4.3534,4.3571,4.4048,4.4268,4.4525,4.4782,4.5257,4.5513,4.5806,4.6286,4.658,4.653,4.6581,4.6711,4.6843,4.6988,4.7066,4.6886,4.6741,4.6416,4.6055,4.5983,4.5874,4.4574,4.3276,4.2623,4.2154,4.2334,4.2657,4.2842,4.2772,4.2885,4.3069,4.325,4.3574,4.3718,4.3724,4.3543,4.3104,4.2777,4.2413,4.1868,4.1107,4.0527,3.9765,3.9472,3.9073,3.8514,3.7906,3.779,3.7894,3.8426,3.881,3.884,3.887,3.8892,3.895,3.9036,3.9082,3.908,3.9063,5.9982,5.9185,5.8441,5.7929,5.772,5.7711,5.7711,5.7606,5.7092,5.6291,5.5283,5.4716,5.443,5.4468,5.443,5.443,5.4468,5.4397,5.4401,5.4434,5.4468,5.4434,5.443,5.443,5.4171,5.379,5.3752,5.3489,5.2994,5.3075,5.3048,5.2653,5.1847,5.119,5.0972,5.0157,4.9562,4.9562,4.9232,4.8716,4.8089,4.761,4.7021,4.6471,4.6177,4.6067,4.5883,4.5883,4.5883,4.5883,4.581,4.5369,4.4782,4.4305,4.4085,4.4158,4.4452,4.4892,4.5259,4.5699,4.6066,4.6211,4.6209,4.6504,4.7198,4.7206,4.7349,4.749,4.7627,4.7769,4.7769,4.7624,4.7624,4.7441,4.6788,4.6351,4.5911,4.5038,4.398,4.3214,4.3105,4.3543,4.3944,4.4492,4.4492,4.4601,4.4597,4.4554,4.469,4.4568,4.4512,4.4303,4.3942,4.336,4.2887,4.2341,4.1615,4.1107,4.0668,3.9528,3.8779,3.87,3.8505,3.8125,3.8081,3.8619,3.8892,3.9164,3.9184,3.9192,3.9219,3.9272,3.9388,3.9527,3.9489,6.122,6.0599,5.995,5.9147,5.8459,5.8421,5.8383,5.8268,5.8077,5.7657,5.6851,5.567,5.5025,5.473,5.4692,5.4692,5.4723,5.4784,5.4754,5.4723,5.4754,5.4784,5.4754,5.4723,5.464,5.464,5.4602,5.4602,5.4451,5.4451,5.4345,5.4345,5.377,5.3003,5.2677,5.2122,5.1528,5.1083,5.0673,5.0118,4.9306,4.8311,4.7647,4.7058,4.6691,4.6287,4.625,4.625,4.6287,4.6287,4.636,4.5956,4.555,4.5182,4.4998,4.5035,4.5365,4.5734,4.6029,4.6397,4.6579,4.6613,4.65,4.6866,4.767,4.7932,4.8088,4.8237,4.8383,4.8344,4.8381,4.8344,4.8344,4.8309,4.7537,4.6838,4.625,4.5625,4.4779,4.3934,4.4191,4.4632,4.507,4.5621,4.6022,4.6168,4.6274,4.6338,4.6252,4.5946,4.5727,4.5449,4.506,4.4375,4.3615,4.3032,4.2487,4.1976,4.1421,3.9748,3.8567,3.8773,3.8662,3.8124,3.8256,3.9184,3.9593,3.9862,3.9799,3.9877,4.0203,4.0416,4.0075,4.0146,3.9974,6.1936,6.2395,6.2242,6.1669,6.0905,6.0867,6.0523,5.9835,5.9147,5.8765,5.8318,5.7603,5.6671,5.5271,5.5233,5.532,5.5531,5.5445,5.5309,5.5233,5.5455,5.5396,5.5293,5.5427,5.5282,5.5206,5.5178,5.5206,5.5085,5.5151,5.5113,5.4895,5.4814,5.4365,5.4204,5.3737,5.3414,5.2847,5.1978,5.1335,5.0355,4.9408,4.8532,4.8237,4.82,4.8089,4.8089,4.8089,4.8089,4.7905,4.7497,4.7054,4.6646,4.6237,4.6049,4.6157,4.6453,4.6794,4.7163,4.7499,4.7681,4.7793,4.7864,4.8083,4.8595,4.8704,4.8822,4.8933,4.901,4.8862,4.8825,4.8751,4.8714,4.8714,4.827,4.7789,4.727,4.653,4.5716,4.5197,4.5049,4.5305,4.5556,4.6141,4.6731,4.6908,4.701,4.7105,4.7211,4.7056,4.6974,4.6663,4.628,4.5423,4.4669,4.4163,4.3652,4.31,4.2316,4.091,3.9825,3.9165,3.8904,3.9016,3.9442,4.0269,4.0574,4.0753,4.1117,4.1316,4.1666,4.1751,4.1215,4.0924,4.0874]}]]